<?xml version="1.0" encoding="UTF-8" standalone="no" ?>
<gpx xmlns="http://www.topografix.com/GPX/1/1" xmlns:xsi="http://www.w3.org/2001/XMLSchema-instance" xsi:schemaLocation="http://www.topografix.com/GPX/1/1 http://www.topografix.com/GPX/1/1/gpx.xsd" version="1.1" creator="VisuGPX - https://www.visugpx.com">
  <metadata>
    <name>Dolomites Jour 2 </name>
    <desc><![CDATA[De JungFrau jusqu\'a Livigno]]></desc>
  </metadata>
  <trk>
    <name><![CDATA[Jour 2 - 28/07/2012]]></name>
    <trkseg>
      <trkpt lat="46.58775" lon="7.90967">
        <ele>798.51</ele>
        <time>2012-07-28T06:54:49Z</time>
      </trkpt>
      <trkpt lat="46.58774" lon="7.90979">
        <ele>801.4</ele>
        <time>2012-07-28T07:04:56Z</time>
      </trkpt>
      <trkpt lat="46.58781" lon="7.90979">
        <ele>799.47</ele>
        <time>2012-07-28T07:05:01Z</time>
      </trkpt>
      <trkpt lat="46.58807" lon="7.90945">
        <ele>799.95</ele>
        <time>2012-07-28T07:05:09Z</time>
      </trkpt>
      <trkpt lat="46.58816" lon="7.90903">
        <ele>802.36</ele>
        <time>2012-07-28T07:05:15Z</time>
      </trkpt>
      <trkpt lat="46.58865" lon="7.90827">
        <ele>808.61</ele>
        <time>2012-07-28T07:05:26Z</time>
      </trkpt>
      <trkpt lat="46.5887" lon="7.90817">
        <ele>808.61</ele>
        <time>2012-07-28T07:05:29Z</time>
      </trkpt>
      <trkpt lat="46.58928" lon="7.90811">
        <ele>811.49</ele>
        <time>2012-07-28T07:05:38Z</time>
      </trkpt>
      <trkpt lat="46.59032" lon="7.90781">
        <ele>808.13</ele>
        <time>2012-07-28T07:05:51Z</time>
      </trkpt>
      <trkpt lat="46.59102" lon="7.90736">
        <ele>806.2</ele>
        <time>2012-07-28T07:06:03Z</time>
      </trkpt>
      <trkpt lat="46.59223" lon="7.90756">
        <ele>811.01</ele>
        <time>2012-07-28T07:06:21Z</time>
      </trkpt>
      <trkpt lat="46.59374" lon="7.90731">
        <ele>813.89</ele>
        <time>2012-07-28T07:07:04Z</time>
      </trkpt>
      <trkpt lat="46.59484" lon="7.90751">
        <ele>818.7</ele>
        <time>2012-07-28T07:07:17Z</time>
      </trkpt>
      <trkpt lat="46.59581" lon="7.90748">
        <ele>817.26</ele>
        <time>2012-07-28T07:07:28Z</time>
      </trkpt>
      <trkpt lat="46.59727" lon="7.90756">
        <ele>811.01</ele>
        <time>2012-07-28T07:07:45Z</time>
      </trkpt>
      <trkpt lat="46.59914" lon="7.90748">
        <ele>802.84</ele>
        <time>2012-07-28T07:08:07Z</time>
      </trkpt>
      <trkpt lat="46.59982" lon="7.90683">
        <ele>796.59</ele>
        <time>2012-07-28T07:08:15Z</time>
      </trkpt>
      <trkpt lat="46.60034" lon="7.90662">
        <ele>794.19</ele>
        <time>2012-07-28T07:08:20Z</time>
      </trkpt>
      <trkpt lat="46.60093" lon="7.90639">
        <ele>789.38</ele>
        <time>2012-07-28T07:08:25Z</time>
      </trkpt>
      <trkpt lat="46.60248" lon="7.90666">
        <ele>779.29</ele>
        <time>2012-07-28T07:08:37Z</time>
      </trkpt>
      <trkpt lat="46.60361" lon="7.90642">
        <ele>772.08</ele>
        <time>2012-07-28T07:08:45Z</time>
      </trkpt>
      <trkpt lat="46.60555" lon="7.90553">
        <ele>756.21</ele>
        <time>2012-07-28T07:08:58Z</time>
      </trkpt>
      <trkpt lat="46.60606" lon="7.90512">
        <ele>750.93</ele>
        <time>2012-07-28T07:09:04Z</time>
      </trkpt>
      <trkpt lat="46.60699" lon="7.90537">
        <ele>745.64</ele>
        <time>2012-07-28T07:09:14Z</time>
      </trkpt>
      <trkpt lat="46.60756" lon="7.90484">
        <ele>744.68</ele>
        <time>2012-07-28T07:09:20Z</time>
      </trkpt>
      <trkpt lat="46.60839" lon="7.90304">
        <ele>744.68</ele>
        <time>2012-07-28T07:09:32Z</time>
      </trkpt>
      <trkpt lat="46.60879" lon="7.90268">
        <ele>743.72</ele>
        <time>2012-07-28T07:09:36Z</time>
      </trkpt>
      <trkpt lat="46.61109" lon="7.90191">
        <ele>741.79</ele>
        <time>2012-07-28T07:09:54Z</time>
      </trkpt>
      <trkpt lat="46.61275" lon="7.9019">
        <ele>739.87</ele>
        <time>2012-07-28T07:10:05Z</time>
      </trkpt>
      <trkpt lat="46.61388" lon="7.90239">
        <ele>740.83</ele>
        <time>2012-07-28T07:10:15Z</time>
      </trkpt>
      <trkpt lat="46.61432" lon="7.90227">
        <ele>738.43</ele>
        <time>2012-07-28T07:10:19Z</time>
      </trkpt>
      <trkpt lat="46.61481" lon="7.90161">
        <ele>735.07</ele>
        <time>2012-07-28T07:10:26Z</time>
      </trkpt>
      <trkpt lat="46.61515" lon="7.90138">
        <ele>732.66</ele>
        <time>2012-07-28T07:10:31Z</time>
      </trkpt>
      <trkpt lat="46.61751" lon="7.90207">
        <ele>716.8</ele>
        <time>2012-07-28T07:10:47Z</time>
      </trkpt>
      <trkpt lat="46.61946" lon="7.90211">
        <ele>704.3</ele>
        <time>2012-07-28T07:11:00Z</time>
      </trkpt>
      <trkpt lat="46.61972" lon="7.90215">
        <ele>702.38</ele>
        <time>2012-07-28T07:11:02Z</time>
      </trkpt>
      <trkpt lat="46.6224" lon="7.90364">
        <ele>691.33</ele>
        <time>2012-07-28T07:11:19Z</time>
      </trkpt>
      <trkpt lat="46.62506" lon="7.90396">
        <ele>684.12</ele>
        <time>2012-07-28T07:11:38Z</time>
      </trkpt>
      <trkpt lat="46.62567" lon="7.90379">
        <ele>683.15</ele>
        <time>2012-07-28T07:11:42Z</time>
      </trkpt>
      <trkpt lat="46.62779" lon="7.90242">
        <ele>676.42</ele>
        <time>2012-07-28T07:11:57Z</time>
      </trkpt>
      <trkpt lat="46.62967" lon="7.90191">
        <ele>672.1</ele>
        <time>2012-07-28T07:12:09Z</time>
      </trkpt>
      <trkpt lat="46.63143" lon="7.89938">
        <ele>668.73</ele>
        <time>2012-07-28T07:12:26Z</time>
      </trkpt>
      <trkpt lat="46.63387" lon="7.89535">
        <ele>666.81</ele>
        <time>2012-07-28T07:12:49Z</time>
      </trkpt>
      <trkpt lat="46.63455" lon="7.89439">
        <ele>663.93</ele>
        <time>2012-07-28T07:12:56Z</time>
      </trkpt>
      <trkpt lat="46.63548" lon="7.89399">
        <ele>664.41</ele>
        <time>2012-07-28T07:13:03Z</time>
      </trkpt>
      <trkpt lat="46.63622" lon="7.89376">
        <ele>662.01</ele>
        <time>2012-07-28T07:13:08Z</time>
      </trkpt>
      <trkpt lat="46.63665" lon="7.89335">
        <ele>662.01</ele>
        <time>2012-07-28T07:13:12Z</time>
      </trkpt>
      <trkpt lat="46.63723" lon="7.89112">
        <ele>662.01</ele>
        <time>2012-07-28T07:13:23Z</time>
      </trkpt>
      <trkpt lat="46.63784" lon="7.8888">
        <ele>658.64</ele>
        <time>2012-07-28T07:13:34Z</time>
      </trkpt>
      <trkpt lat="46.63812" lon="7.88838">
        <ele>659.12</ele>
        <time>2012-07-28T07:13:37Z</time>
      </trkpt>
      <trkpt lat="46.63869" lon="7.88787">
        <ele>657.68</ele>
        <time>2012-07-28T07:13:42Z</time>
      </trkpt>
      <trkpt lat="46.63939" lon="7.88647">
        <ele>658.16</ele>
        <time>2012-07-28T07:13:51Z</time>
      </trkpt>
      <trkpt lat="46.63983" lon="7.88604">
        <ele>658.16</ele>
        <time>2012-07-28T07:13:55Z</time>
      </trkpt>
      <trkpt lat="46.64091" lon="7.88551">
        <ele>654.8</ele>
        <time>2012-07-28T07:14:03Z</time>
      </trkpt>
      <trkpt lat="46.64177" lon="7.88442">
        <ele>655.28</ele>
        <time>2012-07-28T07:14:11Z</time>
      </trkpt>
      <trkpt lat="46.64272" lon="7.8813">
        <ele>653.35</ele>
        <time>2012-07-28T07:14:27Z</time>
      </trkpt>
      <trkpt lat="46.64362" lon="7.87941">
        <ele>654.8</ele>
        <time>2012-07-28T07:14:38Z</time>
      </trkpt>
      <trkpt lat="46.64412" lon="7.87823">
        <ele>652.87</ele>
        <time>2012-07-28T07:14:46Z</time>
      </trkpt>
      <trkpt lat="46.64469" lon="7.87768">
        <ele>649.99</ele>
        <time>2012-07-28T07:14:53Z</time>
      </trkpt>
      <trkpt lat="46.64529" lon="7.87576">
        <ele>642.3</ele>
        <time>2012-07-28T07:15:05Z</time>
      </trkpt>
      <trkpt lat="46.64561" lon="7.87518">
        <ele>641.82</ele>
        <time>2012-07-28T07:15:09Z</time>
      </trkpt>
      <trkpt lat="46.64618" lon="7.8747">
        <ele>636.05</ele>
        <time>2012-07-28T07:15:19Z</time>
      </trkpt>
      <trkpt lat="46.64597" lon="7.87456">
        <ele>638.93</ele>
        <time>2012-07-28T07:20:21Z</time>
      </trkpt>
      <trkpt lat="46.64673" lon="7.87389">
        <ele>639.41</ele>
        <time>2012-07-28T07:22:07Z</time>
      </trkpt>
      <trkpt lat="46.64879" lon="7.87277">
        <ele>636.05</ele>
        <time>2012-07-28T07:22:22Z</time>
      </trkpt>
      <trkpt lat="46.65006" lon="7.8716">
        <ele>628.36</ele>
        <time>2012-07-28T07:22:33Z</time>
      </trkpt>
      <trkpt lat="46.65099" lon="7.87146">
        <ele>625.47</ele>
        <time>2012-07-28T07:22:41Z</time>
      </trkpt>
      <trkpt lat="46.65229" lon="7.8693">
        <ele>622.11</ele>
        <time>2012-07-28T07:22:56Z</time>
      </trkpt>
      <trkpt lat="46.66027" lon="7.8637">
        <ele>624.99</ele>
        <time>2012-07-28T07:24:07Z</time>
      </trkpt>
      <trkpt lat="46.66033" lon="7.86368">
        <ele>624.51</ele>
        <time>2012-07-28T07:24:08Z</time>
      </trkpt>
      <trkpt lat="46.66055" lon="7.86403">
        <ele>623.55</ele>
        <time>2012-07-28T07:24:13Z</time>
      </trkpt>
      <trkpt lat="46.66072" lon="7.86513">
        <ele>621.15</ele>
        <time>2012-07-28T07:24:20Z</time>
      </trkpt>
      <trkpt lat="46.66069" lon="7.86593">
        <ele>618.75</ele>
        <time>2012-07-28T07:24:25Z</time>
      </trkpt>
      <trkpt lat="46.66085" lon="7.86668">
        <ele>616.82</ele>
        <time>2012-07-28T07:24:30Z</time>
      </trkpt>
      <trkpt lat="46.66091" lon="7.86681">
        <ele>616.34</ele>
        <time>2012-07-28T07:24:31Z</time>
      </trkpt>
      <trkpt lat="46.6622" lon="7.86827">
        <ele>611.54</ele>
        <time>2012-07-28T07:24:45Z</time>
      </trkpt>
      <trkpt lat="46.6631" lon="7.86912">
        <ele>611.54</ele>
        <time>2012-07-28T07:24:54Z</time>
      </trkpt>
      <trkpt lat="46.66355" lon="7.87002">
        <ele>610.09</ele>
        <time>2012-07-28T07:25:02Z</time>
      </trkpt>
      <trkpt lat="46.66464" lon="7.86919">
        <ele>609.61</ele>
        <time>2012-07-28T07:25:14Z</time>
      </trkpt>
      <trkpt lat="46.66535" lon="7.869">
        <ele>608.65</ele>
        <time>2012-07-28T07:25:22Z</time>
      </trkpt>
      <trkpt lat="46.66718" lon="7.87008">
        <ele>607.21</ele>
        <time>2012-07-28T07:25:52Z</time>
      </trkpt>
      <trkpt lat="46.66779" lon="7.86996">
        <ele>607.69</ele>
        <time>2012-07-28T07:25:58Z</time>
      </trkpt>
      <trkpt lat="46.66923" lon="7.86919">
        <ele>606.73</ele>
        <time>2012-07-28T07:26:13Z</time>
      </trkpt>
      <trkpt lat="46.67026" lon="7.86848">
        <ele>605.29</ele>
        <time>2012-07-28T07:26:22Z</time>
      </trkpt>
      <trkpt lat="46.67156" lon="7.86807">
        <ele>602.88</ele>
        <time>2012-07-28T07:26:34Z</time>
      </trkpt>
      <trkpt lat="46.67181" lon="7.86822">
        <ele>603.36</ele>
        <time>2012-07-28T07:26:37Z</time>
      </trkpt>
      <trkpt lat="46.67201" lon="7.8686">
        <ele>603.36</ele>
        <time>2012-07-28T07:26:40Z</time>
      </trkpt>
      <trkpt lat="46.67278" lon="7.87019">
        <ele>600.48</ele>
        <time>2012-07-28T07:26:49Z</time>
      </trkpt>
      <trkpt lat="46.67409" lon="7.87239">
        <ele>600.48</ele>
        <time>2012-07-28T07:27:00Z</time>
      </trkpt>
      <trkpt lat="46.67598" lon="7.87481">
        <ele>599.52</ele>
        <time>2012-07-28T07:27:13Z</time>
      </trkpt>
      <trkpt lat="46.67741" lon="7.87571">
        <ele>600.48</ele>
        <time>2012-07-28T07:27:21Z</time>
      </trkpt>
      <trkpt lat="46.67876" lon="7.87598">
        <ele>604.81</ele>
        <time>2012-07-28T07:27:28Z</time>
      </trkpt>
      <trkpt lat="46.67994" lon="7.87585">
        <ele>606.73</ele>
        <time>2012-07-28T07:27:34Z</time>
      </trkpt>
      <trkpt lat="46.68162" lon="7.87564">
        <ele>606.25</ele>
        <time>2012-07-28T07:27:43Z</time>
      </trkpt>
      <trkpt lat="46.68294" lon="7.87608">
        <ele>605.77</ele>
        <time>2012-07-28T07:27:50Z</time>
      </trkpt>
      <trkpt lat="46.68378" lon="7.87677">
        <ele>602.4</ele>
        <time>2012-07-28T07:27:55Z</time>
      </trkpt>
      <trkpt lat="46.68468" lon="7.8782">
        <ele>600</ele>
        <time>2012-07-28T07:28:02Z</time>
      </trkpt>
      <trkpt lat="46.68511" lon="7.87947">
        <ele>599.04</ele>
        <time>2012-07-28T07:28:07Z</time>
      </trkpt>
      <trkpt lat="46.68532" lon="7.88148">
        <ele>600.96</ele>
        <time>2012-07-28T07:28:14Z</time>
      </trkpt>
      <trkpt lat="46.68527" lon="7.88234">
        <ele>602.4</ele>
        <time>2012-07-28T07:28:17Z</time>
      </trkpt>
      <trkpt lat="46.68476" lon="7.88424">
        <ele>601.92</ele>
        <time>2012-07-28T07:28:24Z</time>
      </trkpt>
      <trkpt lat="46.68355" lon="7.88685">
        <ele>596.64</ele>
        <time>2012-07-28T07:28:35Z</time>
      </trkpt>
      <trkpt lat="46.683" lon="7.88866">
        <ele>615.86</ele>
        <time>2012-07-28T07:29:11Z</time>
      </trkpt>
      <trkpt lat="46.68424" lon="7.89706">
        <ele>618.26</ele>
        <time>2012-07-28T07:29:14Z</time>
      </trkpt>
      <trkpt lat="46.685" lon="7.89907">
        <ele>625.96</ele>
        <time>2012-07-28T07:29:22Z</time>
      </trkpt>
      <trkpt lat="46.68553" lon="7.90094">
        <ele>629.8</ele>
        <time>2012-07-28T07:29:29Z</time>
      </trkpt>
      <trkpt lat="46.68615" lon="7.90407">
        <ele>632.68</ele>
        <time>2012-07-28T07:29:40Z</time>
      </trkpt>
      <trkpt lat="46.68644" lon="7.90736">
        <ele>632.2</ele>
        <time>2012-07-28T07:29:51Z</time>
      </trkpt>
      <trkpt lat="46.68645" lon="7.91082">
        <ele>629.8</ele>
        <time>2012-07-28T07:30:02Z</time>
      </trkpt>
      <trkpt lat="46.68674" lon="7.91496">
        <ele>628.84</ele>
        <time>2012-07-28T07:30:15Z</time>
      </trkpt>
      <trkpt lat="46.68719" lon="7.9174">
        <ele>625.47</ele>
        <time>2012-07-28T07:30:23Z</time>
      </trkpt>
      <trkpt lat="46.68815" lon="7.9202">
        <ele>623.07</ele>
        <time>2012-07-28T07:30:33Z</time>
      </trkpt>
      <trkpt lat="46.68937" lon="7.92199">
        <ele>621.63</ele>
        <time>2012-07-28T07:30:41Z</time>
      </trkpt>
      <trkpt lat="46.6904" lon="7.92401">
        <ele>620.19</ele>
        <time>2012-07-28T07:30:49Z</time>
      </trkpt>
      <trkpt lat="46.69315" lon="7.93182">
        <ele>630.28</ele>
        <time>2012-07-28T07:31:17Z</time>
      </trkpt>
      <trkpt lat="46.6954" lon="7.93711">
        <ele>646.14</ele>
        <time>2012-07-28T07:31:37Z</time>
      </trkpt>
      <trkpt lat="46.69671" lon="7.93955">
        <ele>653.83</ele>
        <time>2012-07-28T07:31:47Z</time>
      </trkpt>
      <trkpt lat="46.69718" lon="7.94019">
        <ele>656.72</ele>
        <time>2012-07-28T07:31:50Z</time>
      </trkpt>
      <trkpt lat="46.699" lon="7.94194">
        <ele>663.93</ele>
        <time>2012-07-28T07:32:00Z</time>
      </trkpt>
      <trkpt lat="46.69968" lon="7.94267">
        <ele>666.33</ele>
        <time>2012-07-28T07:32:04Z</time>
      </trkpt>
      <trkpt lat="46.70067" lon="7.94423">
        <ele>669.22</ele>
        <time>2012-07-28T07:32:11Z</time>
      </trkpt>
      <trkpt lat="46.70208" lon="7.94649">
        <ele>673.06</ele>
        <time>2012-07-28T07:32:21Z</time>
      </trkpt>
      <trkpt lat="46.70289" lon="7.94827">
        <ele>674.5</ele>
        <time>2012-07-28T07:32:28Z</time>
      </trkpt>
      <trkpt lat="46.70318" lon="7.9488">
        <ele>674.98</ele>
        <time>2012-07-28T07:32:30Z</time>
      </trkpt>
      <trkpt lat="46.70346" lon="7.94932">
        <ele>670.66</ele>
        <time>2012-07-28T07:32:32Z</time>
      </trkpt>
      <trkpt lat="46.70354" lon="7.94928">
        <ele>677.39</ele>
        <time>2012-07-28T07:32:37Z</time>
      </trkpt>
      <trkpt lat="46.70632" lon="7.95937">
        <ele>666.81</ele>
        <time>2012-07-28T07:33:09Z</time>
      </trkpt>
      <trkpt lat="46.707" lon="7.96229">
        <ele>662.97</ele>
        <time>2012-07-28T07:33:19Z</time>
      </trkpt>
      <trkpt lat="46.70901" lon="7.96669">
        <ele>659.12</ele>
        <time>2012-07-28T07:33:36Z</time>
      </trkpt>
      <trkpt lat="46.71131" lon="7.97279">
        <ele>670.66</ele>
        <time>2012-07-28T07:33:59Z</time>
      </trkpt>
      <trkpt lat="46.71122" lon="7.97274">
        <ele>665.85</ele>
        <time>2012-07-28T07:34:00Z</time>
      </trkpt>
      <trkpt lat="46.71128" lon="7.97298">
        <ele>676.42</ele>
        <time>2012-07-28T07:34:14Z</time>
      </trkpt>
      <trkpt lat="46.71142" lon="7.97347">
        <ele>683.15</ele>
        <time>2012-07-28T07:34:47Z</time>
      </trkpt>
      <trkpt lat="46.71142" lon="7.97349">
        <ele>681.71</ele>
        <time>2012-07-28T07:34:48Z</time>
      </trkpt>
      <trkpt lat="46.71843" lon="7.98574">
        <ele>682.67</ele>
        <time>2012-07-28T07:34:56Z</time>
      </trkpt>
      <trkpt lat="46.71996" lon="7.98906">
        <ele>688.92</ele>
        <time>2012-07-28T07:35:09Z</time>
      </trkpt>
      <trkpt lat="46.72178" lon="7.99248">
        <ele>687.48</ele>
        <time>2012-07-28T07:35:23Z</time>
      </trkpt>
      <trkpt lat="46.72409" lon="7.99615">
        <ele>681.71</ele>
        <time>2012-07-28T07:35:39Z</time>
      </trkpt>
      <trkpt lat="46.7254" lon="7.99864">
        <ele>675.94</ele>
        <time>2012-07-28T07:35:49Z</time>
      </trkpt>
      <trkpt lat="46.72575" lon="7.99966">
        <ele>673.54</ele>
        <time>2012-07-28T07:35:53Z</time>
      </trkpt>
      <trkpt lat="46.72615" lon="8.00159">
        <ele>630.28</ele>
        <time>2012-07-28T07:38:10Z</time>
      </trkpt>
      <trkpt lat="46.72617" lon="8.00172">
        <ele>624.03</ele>
        <time>2012-07-28T07:38:15Z</time>
      </trkpt>
      <trkpt lat="46.72615" lon="8.00162">
        <ele>625.96</ele>
        <time>2012-07-28T07:38:16Z</time>
      </trkpt>
      <trkpt lat="46.73954" lon="8.03771">
        <ele>624.03</ele>
        <time>2012-07-28T07:38:23Z</time>
      </trkpt>
      <trkpt lat="46.73954" lon="8.03918">
        <ele>622.11</ele>
        <time>2012-07-28T07:38:28Z</time>
      </trkpt>
      <trkpt lat="46.73924" lon="8.04127">
        <ele>618.75</ele>
        <time>2012-07-28T07:38:35Z</time>
      </trkpt>
      <trkpt lat="46.73861" lon="8.04486">
        <ele>611.06</ele>
        <time>2012-07-28T07:38:47Z</time>
      </trkpt>
      <trkpt lat="46.73871" lon="8.04931">
        <ele>600.96</ele>
        <time>2012-07-28T07:39:01Z</time>
      </trkpt>
      <trkpt lat="46.73911" lon="8.05146">
        <ele>597.6</ele>
        <time>2012-07-28T07:39:08Z</time>
      </trkpt>
      <trkpt lat="46.74187" lon="8.05878">
        <ele>595.19</ele>
        <time>2012-07-28T07:39:35Z</time>
      </trkpt>
      <trkpt lat="46.74241" lon="8.06169">
        <ele>594.71</ele>
        <time>2012-07-28T07:39:45Z</time>
      </trkpt>
      <trkpt lat="46.7428" lon="8.07035">
        <ele>599.04</ele>
        <time>2012-07-28T07:40:13Z</time>
      </trkpt>
      <trkpt lat="46.74302" lon="8.07603">
        <ele>598.56</ele>
        <time>2012-07-28T07:40:31Z</time>
      </trkpt>
      <trkpt lat="46.74462" lon="8.08878">
        <ele>600.96</ele>
        <time>2012-07-28T07:41:12Z</time>
      </trkpt>
      <trkpt lat="46.7452" lon="8.09315">
        <ele>598.56</ele>
        <time>2012-07-28T07:41:27Z</time>
      </trkpt>
      <trkpt lat="46.74537" lon="8.09432">
        <ele>595.19</ele>
        <time>2012-07-28T07:41:32Z</time>
      </trkpt>
      <trkpt lat="46.74545" lon="8.09511">
        <ele>592.79</ele>
        <time>2012-07-28T07:41:37Z</time>
      </trkpt>
      <trkpt lat="46.74536" lon="8.09549">
        <ele>592.31</ele>
        <time>2012-07-28T07:41:40Z</time>
      </trkpt>
      <trkpt lat="46.74513" lon="8.09572">
        <ele>593.75</ele>
        <time>2012-07-28T07:41:43Z</time>
      </trkpt>
      <trkpt lat="46.74504" lon="8.09573">
        <ele>593.75</ele>
        <time>2012-07-28T07:41:44Z</time>
      </trkpt>
      <trkpt lat="46.74477" lon="8.0956">
        <ele>594.71</ele>
        <time>2012-07-28T07:41:47Z</time>
      </trkpt>
      <trkpt lat="46.74461" lon="8.09523">
        <ele>596.15</ele>
        <time>2012-07-28T07:41:50Z</time>
      </trkpt>
      <trkpt lat="46.74484" lon="8.09432">
        <ele>599.04</ele>
        <time>2012-07-28T07:41:56Z</time>
      </trkpt>
      <trkpt lat="46.74515" lon="8.09406">
        <ele>600</ele>
        <time>2012-07-28T07:41:59Z</time>
      </trkpt>
      <trkpt lat="46.74595" lon="8.09384">
        <ele>601.44</ele>
        <time>2012-07-28T07:42:06Z</time>
      </trkpt>
      <trkpt lat="46.74611" lon="8.09392">
        <ele>602.4</ele>
        <time>2012-07-28T07:42:08Z</time>
      </trkpt>
      <trkpt lat="46.74629" lon="8.09423">
        <ele>605.77</ele>
        <time>2012-07-28T07:42:11Z</time>
      </trkpt>
      <trkpt lat="46.74667" lon="8.09571">
        <ele>618.75</ele>
        <time>2012-07-28T07:42:19Z</time>
      </trkpt>
      <trkpt lat="46.74683" lon="8.09699">
        <ele>625.96</ele>
        <time>2012-07-28T07:42:25Z</time>
      </trkpt>
      <trkpt lat="46.74766" lon="8.09898">
        <ele>642.78</ele>
        <time>2012-07-28T07:42:35Z</time>
      </trkpt>
      <trkpt lat="46.7479" lon="8.10062">
        <ele>651.91</ele>
        <time>2012-07-28T07:42:43Z</time>
      </trkpt>
      <trkpt lat="46.74822" lon="8.10229">
        <ele>657.68</ele>
        <time>2012-07-28T07:42:50Z</time>
      </trkpt>
      <trkpt lat="46.74827" lon="8.10423">
        <ele>669.7</ele>
        <time>2012-07-28T07:42:57Z</time>
      </trkpt>
      <trkpt lat="46.74821" lon="8.10551">
        <ele>676.91</ele>
        <time>2012-07-28T07:43:02Z</time>
      </trkpt>
      <trkpt lat="46.74817" lon="8.10618">
        <ele>677.87</ele>
        <time>2012-07-28T07:43:05Z</time>
      </trkpt>
      <trkpt lat="46.74791" lon="8.10733">
        <ele>683.63</ele>
        <time>2012-07-28T07:43:12Z</time>
      </trkpt>
      <trkpt lat="46.7478" lon="8.10784">
        <ele>683.63</ele>
        <time>2012-07-28T07:43:17Z</time>
      </trkpt>
      <trkpt lat="46.74812" lon="8.10782">
        <ele>685.08</ele>
        <time>2012-07-28T07:43:22Z</time>
      </trkpt>
      <trkpt lat="46.74851" lon="8.10649">
        <ele>693.73</ele>
        <time>2012-07-28T07:43:31Z</time>
      </trkpt>
      <trkpt lat="46.74872" lon="8.10634">
        <ele>695.17</ele>
        <time>2012-07-28T07:43:33Z</time>
      </trkpt>
      <trkpt lat="46.74917" lon="8.10647">
        <ele>699.02</ele>
        <time>2012-07-28T07:43:37Z</time>
      </trkpt>
      <trkpt lat="46.74954" lon="8.10709">
        <ele>740.35</ele>
        <time>2012-07-28T07:44:15Z</time>
      </trkpt>
      <trkpt lat="46.75137" lon="8.10801">
        <ele>742.28</ele>
        <time>2012-07-28T07:44:16Z</time>
      </trkpt>
      <trkpt lat="46.75073" lon="8.10751">
        <ele>746.6</ele>
        <time>2012-07-28T07:44:21Z</time>
      </trkpt>
      <trkpt lat="46.75018" lon="8.10763">
        <ele>751.41</ele>
        <time>2012-07-28T07:44:26Z</time>
      </trkpt>
      <trkpt lat="46.74982" lon="8.10789">
        <ele>753.33</ele>
        <time>2012-07-28T07:44:29Z</time>
      </trkpt>
      <trkpt lat="46.74938" lon="8.10915">
        <ele>761.5</ele>
        <time>2012-07-28T07:44:37Z</time>
      </trkpt>
      <trkpt lat="46.74961" lon="8.10989">
        <ele>766.79</ele>
        <time>2012-07-28T07:44:42Z</time>
      </trkpt>
      <trkpt lat="46.74994" lon="8.11003">
        <ele>769.67</ele>
        <time>2012-07-28T07:44:45Z</time>
      </trkpt>
      <trkpt lat="46.75031" lon="8.1099">
        <ele>771.6</ele>
        <time>2012-07-28T07:44:48Z</time>
      </trkpt>
      <trkpt lat="46.75043" lon="8.10913">
        <ele>775.44</ele>
        <time>2012-07-28T07:44:53Z</time>
      </trkpt>
      <trkpt lat="46.75045" lon="8.10853">
        <ele>776.88</ele>
        <time>2012-07-28T07:44:58Z</time>
      </trkpt>
      <trkpt lat="46.7507" lon="8.10876">
        <ele>779.29</ele>
        <time>2012-07-28T07:45:02Z</time>
      </trkpt>
      <trkpt lat="46.75045" lon="8.11054">
        <ele>789.86</ele>
        <time>2012-07-28T07:45:12Z</time>
      </trkpt>
      <trkpt lat="46.74975" lon="8.11153">
        <ele>801.88</ele>
        <time>2012-07-28T07:45:20Z</time>
      </trkpt>
      <trkpt lat="46.74973" lon="8.11189">
        <ele>805.24</ele>
        <time>2012-07-28T07:45:22Z</time>
      </trkpt>
      <trkpt lat="46.74978" lon="8.11394">
        <ele>820.14</ele>
        <time>2012-07-28T07:45:32Z</time>
      </trkpt>
      <trkpt lat="46.74966" lon="8.11509">
        <ele>829.27</ele>
        <time>2012-07-28T07:45:38Z</time>
      </trkpt>
      <trkpt lat="46.74994" lon="8.11669">
        <ele>841.29</ele>
        <time>2012-07-28T07:45:46Z</time>
      </trkpt>
      <trkpt lat="46.75005" lon="8.11793">
        <ele>848.98</ele>
        <time>2012-07-28T07:45:52Z</time>
      </trkpt>
      <trkpt lat="46.74951" lon="8.11897">
        <ele>859.08</ele>
        <time>2012-07-28T07:45:58Z</time>
      </trkpt>
      <trkpt lat="46.74925" lon="8.11978">
        <ele>861.96</ele>
        <time>2012-07-28T07:46:03Z</time>
      </trkpt>
      <trkpt lat="46.74994" lon="8.12111">
        <ele>875.42</ele>
        <time>2012-07-28T07:46:13Z</time>
      </trkpt>
      <trkpt lat="46.75054" lon="8.12274">
        <ele>885.99</ele>
        <time>2012-07-28T07:46:21Z</time>
      </trkpt>
      <trkpt lat="46.75099" lon="8.12457">
        <ele>898.49</ele>
        <time>2012-07-28T07:46:30Z</time>
      </trkpt>
      <trkpt lat="46.75191" lon="8.12685">
        <ele>910.03</ele>
        <time>2012-07-28T07:46:43Z</time>
      </trkpt>
      <trkpt lat="46.75186" lon="8.12728">
        <ele>912.43</ele>
        <time>2012-07-28T07:46:46Z</time>
      </trkpt>
      <trkpt lat="46.75154" lon="8.12781">
        <ele>917.24</ele>
        <time>2012-07-28T07:46:50Z</time>
      </trkpt>
      <trkpt lat="46.75147" lon="8.12795">
        <ele>918.2</ele>
        <time>2012-07-28T07:46:51Z</time>
      </trkpt>
      <trkpt lat="46.75128" lon="8.12843">
        <ele>919.16</ele>
        <time>2012-07-28T07:46:55Z</time>
      </trkpt>
      <trkpt lat="46.75144" lon="8.12862">
        <ele>919.64</ele>
        <time>2012-07-28T07:46:58Z</time>
      </trkpt>
      <trkpt lat="46.75175" lon="8.1284">
        <ele>922.52</ele>
        <time>2012-07-28T07:47:02Z</time>
      </trkpt>
      <trkpt lat="46.75201" lon="8.12826">
        <ele>924.45</ele>
        <time>2012-07-28T07:47:05Z</time>
      </trkpt>
      <trkpt lat="46.75248" lon="8.1281">
        <ele>922.52</ele>
        <time>2012-07-28T07:47:10Z</time>
      </trkpt>
      <trkpt lat="46.75272" lon="8.12822">
        <ele>922.04</ele>
        <time>2012-07-28T07:47:13Z</time>
      </trkpt>
      <trkpt lat="46.75279" lon="8.12831">
        <ele>921.56</ele>
        <time>2012-07-28T07:47:14Z</time>
      </trkpt>
      <trkpt lat="46.75354" lon="8.13083">
        <ele>922.52</ele>
        <time>2012-07-28T08:01:49Z</time>
      </trkpt>
      <trkpt lat="46.75363" lon="8.13202">
        <ele>921.08</ele>
        <time>2012-07-28T08:01:57Z</time>
      </trkpt>
      <trkpt lat="46.75414" lon="8.13297">
        <ele>920.6</ele>
        <time>2012-07-28T08:02:05Z</time>
      </trkpt>
      <trkpt lat="46.75479" lon="8.13515">
        <ele>913.39</ele>
        <time>2012-07-28T08:02:18Z</time>
      </trkpt>
      <trkpt lat="46.75482" lon="8.13621">
        <ele>909.54</ele>
        <time>2012-07-28T08:02:27Z</time>
      </trkpt>
      <trkpt lat="46.75462" lon="8.13699">
        <ele>896.57</ele>
        <time>2012-07-28T08:02:36Z</time>
      </trkpt>
      <trkpt lat="46.75443" lon="8.13719">
        <ele>894.16</ele>
        <time>2012-07-28T08:02:38Z</time>
      </trkpt>
      <trkpt lat="46.75273" lon="8.1376">
        <ele>884.55</ele>
        <time>2012-07-28T08:02:46Z</time>
      </trkpt>
      <trkpt lat="46.75081" lon="8.13851">
        <ele>878.78</ele>
        <time>2012-07-28T08:02:57Z</time>
      </trkpt>
      <trkpt lat="46.75007" lon="8.13879">
        <ele>875.42</ele>
        <time>2012-07-28T08:03:01Z</time>
      </trkpt>
      <trkpt lat="46.74899" lon="8.13917">
        <ele>868.69</ele>
        <time>2012-07-28T08:03:08Z</time>
      </trkpt>
      <trkpt lat="46.74839" lon="8.13956">
        <ele>864.84</ele>
        <time>2012-07-28T08:03:13Z</time>
      </trkpt>
      <trkpt lat="46.74808" lon="8.14025">
        <ele>863.4</ele>
        <time>2012-07-28T08:03:17Z</time>
      </trkpt>
      <trkpt lat="46.74793" lon="8.14124">
        <ele>859.08</ele>
        <time>2012-07-28T08:03:22Z</time>
      </trkpt>
      <trkpt lat="46.74795" lon="8.14242">
        <ele>854.27</ele>
        <time>2012-07-28T08:03:28Z</time>
      </trkpt>
      <trkpt lat="46.7483" lon="8.14471">
        <ele>838.89</ele>
        <time>2012-07-28T08:03:40Z</time>
      </trkpt>
      <trkpt lat="46.74842" lon="8.14499">
        <ele>836</ele>
        <time>2012-07-28T08:03:42Z</time>
      </trkpt>
      <trkpt lat="46.74872" lon="8.14527">
        <ele>833.6</ele>
        <time>2012-07-28T08:03:45Z</time>
      </trkpt>
      <trkpt lat="46.74922" lon="8.14568">
        <ele>826.87</ele>
        <time>2012-07-28T08:03:51Z</time>
      </trkpt>
      <trkpt lat="46.74928" lon="8.14594">
        <ele>824.95</ele>
        <time>2012-07-28T08:03:54Z</time>
      </trkpt>
      <trkpt lat="46.74894" lon="8.1459">
        <ele>825.43</ele>
        <time>2012-07-28T08:03:59Z</time>
      </trkpt>
      <trkpt lat="46.7484" lon="8.14552">
        <ele>821.58</ele>
        <time>2012-07-28T08:04:03Z</time>
      </trkpt>
      <trkpt lat="46.74792" lon="8.1449">
        <ele>815.34</ele>
        <time>2012-07-28T08:04:09Z</time>
      </trkpt>
      <trkpt lat="46.7477" lon="8.14501">
        <ele>814.37</ele>
        <time>2012-07-28T08:04:13Z</time>
      </trkpt>
      <trkpt lat="46.74789" lon="8.14576">
        <ele>811.97</ele>
        <time>2012-07-28T08:04:20Z</time>
      </trkpt>
      <trkpt lat="46.74765" lon="8.14665">
        <ele>809.09</ele>
        <time>2012-07-28T08:04:25Z</time>
      </trkpt>
      <trkpt lat="46.7473" lon="8.14743">
        <ele>800.92</ele>
        <time>2012-07-28T08:04:29Z</time>
      </trkpt>
      <trkpt lat="46.74713" lon="8.14838">
        <ele>794.67</ele>
        <time>2012-07-28T08:04:33Z</time>
      </trkpt>
      <trkpt lat="46.74712" lon="8.15046">
        <ele>773.04</ele>
        <time>2012-07-28T08:04:45Z</time>
      </trkpt>
      <trkpt lat="46.74692" lon="8.15035">
        <ele>771.6</ele>
        <time>2012-07-28T08:04:48Z</time>
      </trkpt>
      <trkpt lat="46.74686" lon="8.15009">
        <ele>771.6</ele>
        <time>2012-07-28T08:04:50Z</time>
      </trkpt>
      <trkpt lat="46.7469" lon="8.14982">
        <ele>770.63</ele>
        <time>2012-07-28T08:04:52Z</time>
      </trkpt>
      <trkpt lat="46.74696" lon="8.14937">
        <ele>767.27</ele>
        <time>2012-07-28T08:04:56Z</time>
      </trkpt>
      <trkpt lat="46.74661" lon="8.14949">
        <ele>766.31</ele>
        <time>2012-07-28T08:05:01Z</time>
      </trkpt>
      <trkpt lat="46.74647" lon="8.14987">
        <ele>766.79</ele>
        <time>2012-07-28T08:05:03Z</time>
      </trkpt>
      <trkpt lat="46.74628" lon="8.15051">
        <ele>760.06</ele>
        <time>2012-07-28T08:05:06Z</time>
      </trkpt>
      <trkpt lat="46.74619" lon="8.15094">
        <ele>755.73</ele>
        <time>2012-07-28T08:05:08Z</time>
      </trkpt>
      <trkpt lat="46.74609" lon="8.153">
        <ele>736.51</ele>
        <time>2012-07-28T08:05:17Z</time>
      </trkpt>
      <trkpt lat="46.74566" lon="8.15421">
        <ele>727.86</ele>
        <time>2012-07-28T08:05:23Z</time>
      </trkpt>
      <trkpt lat="46.7451" lon="8.15624">
        <ele>709.59</ele>
        <time>2012-07-28T08:05:32Z</time>
      </trkpt>
      <trkpt lat="46.74375" lon="8.15826">
        <ele>693.25</ele>
        <time>2012-07-28T08:05:43Z</time>
      </trkpt>
      <trkpt lat="46.74238" lon="8.15961">
        <ele>679.79</ele>
        <time>2012-07-28T08:05:52Z</time>
      </trkpt>
      <trkpt lat="46.74209" lon="8.16026">
        <ele>675.46</ele>
        <time>2012-07-28T08:05:55Z</time>
      </trkpt>
      <trkpt lat="46.74154" lon="8.16225">
        <ele>666.33</ele>
        <time>2012-07-28T08:06:03Z</time>
      </trkpt>
      <trkpt lat="46.74157" lon="8.16376">
        <ele>658.64</ele>
        <time>2012-07-28T08:06:08Z</time>
      </trkpt>
      <trkpt lat="46.74113" lon="8.1653">
        <ele>651.43</ele>
        <time>2012-07-28T08:06:15Z</time>
      </trkpt>
      <trkpt lat="46.741" lon="8.16657">
        <ele>643.74</ele>
        <time>2012-07-28T08:06:20Z</time>
      </trkpt>
      <trkpt lat="46.74043" lon="8.16791">
        <ele>634.13</ele>
        <time>2012-07-28T08:06:27Z</time>
      </trkpt>
      <trkpt lat="46.73959" lon="8.16843">
        <ele>625.96</ele>
        <time>2012-07-28T08:06:33Z</time>
      </trkpt>
      <trkpt lat="46.73738" lon="8.16759">
        <ele>620.19</ele>
        <time>2012-07-28T08:06:48Z</time>
      </trkpt>
      <trkpt lat="46.73726" lon="8.1676">
        <ele>619.23</ele>
        <time>2012-07-28T08:06:49Z</time>
      </trkpt>
      <trkpt lat="46.73574" lon="8.16857">
        <ele>618.26</ele>
        <time>2012-07-28T08:07:02Z</time>
      </trkpt>
      <trkpt lat="46.73507" lon="8.17042">
        <ele>614.42</ele>
        <time>2012-07-28T08:07:15Z</time>
      </trkpt>
      <trkpt lat="46.73411" lon="8.17215">
        <ele>612.5</ele>
        <time>2012-07-28T08:07:27Z</time>
      </trkpt>
      <trkpt lat="46.73349" lon="8.17393">
        <ele>610.57</ele>
        <time>2012-07-28T08:07:48Z</time>
      </trkpt>
      <trkpt lat="46.73349" lon="8.174">
        <ele>610.09</ele>
        <time>2012-07-28T08:08:00Z</time>
      </trkpt>
      <trkpt lat="46.73339" lon="8.17393">
        <ele>610.09</ele>
        <time>2012-07-28T08:08:58Z</time>
      </trkpt>
      <trkpt lat="46.73322" lon="8.17445">
        <ele>611.06</ele>
        <time>2012-07-28T08:09:11Z</time>
      </trkpt>
      <trkpt lat="46.73111" lon="8.17768">
        <ele>612.98</ele>
        <time>2012-07-28T08:09:42Z</time>
      </trkpt>
      <trkpt lat="46.73073" lon="8.17827">
        <ele>611.06</ele>
        <time>2012-07-28T08:09:52Z</time>
      </trkpt>
      <trkpt lat="46.72883" lon="8.17412">
        <ele>612.02</ele>
        <time>2012-07-28T08:10:58Z</time>
      </trkpt>
      <trkpt lat="46.72794" lon="8.17178">
        <ele>613.46</ele>
        <time>2012-07-28T08:11:17Z</time>
      </trkpt>
      <trkpt lat="46.72713" lon="8.17016">
        <ele>613.46</ele>
        <time>2012-07-28T08:11:35Z</time>
      </trkpt>
      <trkpt lat="46.72701" lon="8.17017">
        <ele>612.98</ele>
        <time>2012-07-28T08:11:38Z</time>
      </trkpt>
      <trkpt lat="46.7267" lon="8.17091">
        <ele>616.82</ele>
        <time>2012-07-28T08:11:44Z</time>
      </trkpt>
      <trkpt lat="46.72591" lon="8.1726">
        <ele>618.26</ele>
        <time>2012-07-28T08:11:52Z</time>
      </trkpt>
      <trkpt lat="46.72446" lon="8.17561">
        <ele>622.59</ele>
        <time>2012-07-28T08:12:06Z</time>
      </trkpt>
      <trkpt lat="46.72306" lon="8.18005">
        <ele>625.47</ele>
        <time>2012-07-28T08:12:23Z</time>
      </trkpt>
      <trkpt lat="46.72243" lon="8.18352">
        <ele>625.96</ele>
        <time>2012-07-28T08:12:35Z</time>
      </trkpt>
      <trkpt lat="46.72211" lon="8.18727">
        <ele>624.03</ele>
        <time>2012-07-28T08:12:48Z</time>
      </trkpt>
      <trkpt lat="46.72184" lon="8.18909">
        <ele>620.67</ele>
        <time>2012-07-28T08:12:59Z</time>
      </trkpt>
      <trkpt lat="46.7216" lon="8.18947">
        <ele>621.63</ele>
        <time>2012-07-28T08:13:03Z</time>
      </trkpt>
      <trkpt lat="46.72124" lon="8.18969">
        <ele>624.51</ele>
        <time>2012-07-28T08:13:07Z</time>
      </trkpt>
      <trkpt lat="46.71982" lon="8.19015">
        <ele>628.36</ele>
        <time>2012-07-28T08:13:18Z</time>
      </trkpt>
      <trkpt lat="46.7184" lon="8.19131">
        <ele>636.05</ele>
        <time>2012-07-28T08:13:31Z</time>
      </trkpt>
      <trkpt lat="46.71616" lon="8.19475">
        <ele>654.31</ele>
        <time>2012-07-28T08:13:55Z</time>
      </trkpt>
      <trkpt lat="46.71541" lon="8.19626">
        <ele>662.01</ele>
        <time>2012-07-28T08:14:12Z</time>
      </trkpt>
      <trkpt lat="46.7146" lon="8.19946">
        <ele>677.87</ele>
        <time>2012-07-28T08:14:39Z</time>
      </trkpt>
      <trkpt lat="46.71425" lon="8.20107">
        <ele>681.71</ele>
        <time>2012-07-28T08:14:55Z</time>
      </trkpt>
      <trkpt lat="46.71441" lon="8.20222">
        <ele>687</ele>
        <time>2012-07-28T08:15:06Z</time>
      </trkpt>
      <trkpt lat="46.71514" lon="8.20356">
        <ele>691.81</ele>
        <time>2012-07-28T08:15:15Z</time>
      </trkpt>
      <trkpt lat="46.7155" lon="8.20686">
        <ele>706.71</ele>
        <time>2012-07-28T08:15:30Z</time>
      </trkpt>
      <trkpt lat="46.71573" lon="8.2081">
        <ele>709.59</ele>
        <time>2012-07-28T08:15:37Z</time>
      </trkpt>
      <trkpt lat="46.71551" lon="8.20882">
        <ele>713.92</ele>
        <time>2012-07-28T08:15:41Z</time>
      </trkpt>
      <trkpt lat="46.71452" lon="8.21095">
        <ele>721.13</ele>
        <time>2012-07-28T08:15:53Z</time>
      </trkpt>
      <trkpt lat="46.71425" lon="8.21146">
        <ele>722.57</ele>
        <time>2012-07-28T08:15:56Z</time>
      </trkpt>
      <trkpt lat="46.71388" lon="8.21182">
        <ele>725.45</ele>
        <time>2012-07-28T08:15:59Z</time>
      </trkpt>
      <trkpt lat="46.71298" lon="8.21254">
        <ele>726.89</ele>
        <time>2012-07-28T08:16:06Z</time>
      </trkpt>
      <trkpt lat="46.71252" lon="8.21332">
        <ele>722.09</ele>
        <time>2012-07-28T08:16:11Z</time>
      </trkpt>
      <trkpt lat="46.71234" lon="8.21408">
        <ele>719.2</ele>
        <time>2012-07-28T08:16:15Z</time>
      </trkpt>
      <trkpt lat="46.71247" lon="8.21512">
        <ele>712.95</ele>
        <time>2012-07-28T08:16:21Z</time>
      </trkpt>
      <trkpt lat="46.71275" lon="8.21552">
        <ele>709.11</ele>
        <time>2012-07-28T08:16:26Z</time>
      </trkpt>
      <trkpt lat="46.71272" lon="8.21571">
        <ele>707.67</ele>
        <time>2012-07-28T08:16:29Z</time>
      </trkpt>
      <trkpt lat="46.71248" lon="8.2155">
        <ele>709.59</ele>
        <time>2012-07-28T08:16:33Z</time>
      </trkpt>
      <trkpt lat="46.71236" lon="8.21523">
        <ele>707.67</ele>
        <time>2012-07-28T08:16:35Z</time>
      </trkpt>
      <trkpt lat="46.7122" lon="8.21434">
        <ele>702.86</ele>
        <time>2012-07-28T08:16:41Z</time>
      </trkpt>
      <trkpt lat="46.71202" lon="8.21405">
        <ele>701.42</ele>
        <time>2012-07-28T08:16:44Z</time>
      </trkpt>
      <trkpt lat="46.71117" lon="8.21419">
        <ele>697.09</ele>
        <time>2012-07-28T08:16:52Z</time>
      </trkpt>
      <trkpt lat="46.71067" lon="8.21383">
        <ele>695.65</ele>
        <time>2012-07-28T08:16:57Z</time>
      </trkpt>
      <trkpt lat="46.70971" lon="8.21355">
        <ele>687.48</ele>
        <time>2012-07-28T08:17:06Z</time>
      </trkpt>
      <trkpt lat="46.70959" lon="8.21377">
        <ele>687</ele>
        <time>2012-07-28T08:17:10Z</time>
      </trkpt>
      <trkpt lat="46.71023" lon="8.21391">
        <ele>684.6</ele>
        <time>2012-07-28T08:17:17Z</time>
      </trkpt>
      <trkpt lat="46.71111" lon="8.21454">
        <ele>678.35</ele>
        <time>2012-07-28T08:17:25Z</time>
      </trkpt>
      <trkpt lat="46.71153" lon="8.2147">
        <ele>674.5</ele>
        <time>2012-07-28T08:17:29Z</time>
      </trkpt>
      <trkpt lat="46.7118" lon="8.21547">
        <ele>672.58</ele>
        <time>2012-07-28T08:17:34Z</time>
      </trkpt>
      <trkpt lat="46.71206" lon="8.21651">
        <ele>665.85</ele>
        <time>2012-07-28T08:17:45Z</time>
      </trkpt>
      <trkpt lat="46.71154" lon="8.21505">
        <ele>660.56</ele>
        <time>2012-07-28T08:17:57Z</time>
      </trkpt>
      <trkpt lat="46.71025" lon="8.21462">
        <ele>653.35</ele>
        <time>2012-07-28T08:18:08Z</time>
      </trkpt>
      <trkpt lat="46.70888" lon="8.21491">
        <ele>644.22</ele>
        <time>2012-07-28T08:18:19Z</time>
      </trkpt>
      <trkpt lat="46.70864" lon="8.21524">
        <ele>641.82</ele>
        <time>2012-07-28T08:18:22Z</time>
      </trkpt>
      <trkpt lat="46.70851" lon="8.21858">
        <ele>641.82</ele>
        <time>2012-07-28T08:18:39Z</time>
      </trkpt>
      <trkpt lat="46.70794" lon="8.22069">
        <ele>642.78</ele>
        <time>2012-07-28T08:18:49Z</time>
      </trkpt>
      <trkpt lat="46.7072" lon="8.22276">
        <ele>641.34</ele>
        <time>2012-07-28T08:19:01Z</time>
      </trkpt>
      <trkpt lat="46.7052" lon="8.22724">
        <ele>645.66</ele>
        <time>2012-07-28T08:19:33Z</time>
      </trkpt>
      <trkpt lat="46.70529" lon="8.22783">
        <ele>647.1</ele>
        <time>2012-07-28T08:19:38Z</time>
      </trkpt>
      <trkpt lat="46.70534" lon="8.22794">
        <ele>647.1</ele>
        <time>2012-07-28T08:19:39Z</time>
      </trkpt>
      <trkpt lat="46.70573" lon="8.22913">
        <ele>643.74</ele>
        <time>2012-07-28T08:19:53Z</time>
      </trkpt>
      <trkpt lat="46.70566" lon="8.22929">
        <ele>643.26</ele>
        <time>2012-07-28T08:19:55Z</time>
      </trkpt>
      <trkpt lat="46.70369" lon="8.23002">
        <ele>649.03</ele>
        <time>2012-07-28T08:20:13Z</time>
      </trkpt>
      <trkpt lat="46.70027" lon="8.23323">
        <ele>655.76</ele>
        <time>2012-07-28T08:20:44Z</time>
      </trkpt>
      <trkpt lat="46.69698" lon="8.23767">
        <ele>666.33</ele>
        <time>2012-07-28T08:21:12Z</time>
      </trkpt>
      <trkpt lat="46.69604" lon="8.23945">
        <ele>669.7</ele>
        <time>2012-07-28T08:21:21Z</time>
      </trkpt>
      <trkpt lat="46.69545" lon="8.23994">
        <ele>671.62</ele>
        <time>2012-07-28T08:21:25Z</time>
      </trkpt>
      <trkpt lat="46.69362" lon="8.24021">
        <ele>678.83</ele>
        <time>2012-07-28T08:21:36Z</time>
      </trkpt>
      <trkpt lat="46.69271" lon="8.23976">
        <ele>686.52</ele>
        <time>2012-07-28T08:21:43Z</time>
      </trkpt>
      <trkpt lat="46.69239" lon="8.23976">
        <ele>688.44</ele>
        <time>2012-07-28T08:21:45Z</time>
      </trkpt>
      <trkpt lat="46.69125" lon="8.24041">
        <ele>696.13</ele>
        <time>2012-07-28T08:21:53Z</time>
      </trkpt>
      <trkpt lat="46.69017" lon="8.2418">
        <ele>699.98</ele>
        <time>2012-07-28T08:22:02Z</time>
      </trkpt>
      <trkpt lat="46.68962" lon="8.24226">
        <ele>700.46</ele>
        <time>2012-07-28T08:22:06Z</time>
      </trkpt>
      <trkpt lat="46.68885" lon="8.24255">
        <ele>703.34</ele>
        <time>2012-07-28T08:22:12Z</time>
      </trkpt>
      <trkpt lat="46.68835" lon="8.24365">
        <ele>711.99</ele>
        <time>2012-07-28T08:22:19Z</time>
      </trkpt>
      <trkpt lat="46.68789" lon="8.24401">
        <ele>717.76</ele>
        <time>2012-07-28T08:22:24Z</time>
      </trkpt>
      <trkpt lat="46.68711" lon="8.24382">
        <ele>726.41</ele>
        <time>2012-07-28T08:22:31Z</time>
      </trkpt>
      <trkpt lat="46.68683" lon="8.24346">
        <ele>730.74</ele>
        <time>2012-07-28T08:22:34Z</time>
      </trkpt>
      <trkpt lat="46.68653" lon="8.2426">
        <ele>738.91</ele>
        <time>2012-07-28T08:22:39Z</time>
      </trkpt>
      <trkpt lat="46.6862" lon="8.24237">
        <ele>742.76</ele>
        <time>2012-07-28T08:22:42Z</time>
      </trkpt>
      <trkpt lat="46.68508" lon="8.24264">
        <ele>752.37</ele>
        <time>2012-07-28T08:22:50Z</time>
      </trkpt>
      <trkpt lat="46.68477" lon="8.24307">
        <ele>755.25</ele>
        <time>2012-07-28T08:22:53Z</time>
      </trkpt>
      <trkpt lat="46.6842" lon="8.24346">
        <ele>759.1</ele>
        <time>2012-07-28T08:22:58Z</time>
      </trkpt>
      <trkpt lat="46.68389" lon="8.24462">
        <ele>762.46</ele>
        <time>2012-07-28T08:23:05Z</time>
      </trkpt>
      <trkpt lat="46.68357" lon="8.24637">
        <ele>761.5</ele>
        <time>2012-07-28T08:23:13Z</time>
      </trkpt>
      <trkpt lat="46.68315" lon="8.24746">
        <ele>760.06</ele>
        <time>2012-07-28T08:23:19Z</time>
      </trkpt>
      <trkpt lat="46.68196" lon="8.2484">
        <ele>761.98</ele>
        <time>2012-07-28T08:23:28Z</time>
      </trkpt>
      <trkpt lat="46.67903" lon="8.25119">
        <ele>776.4</ele>
        <time>2012-07-28T08:23:51Z</time>
      </trkpt>
      <trkpt lat="46.67834" lon="8.25218">
        <ele>785.05</ele>
        <time>2012-07-28T08:23:58Z</time>
      </trkpt>
      <trkpt lat="46.67805" lon="8.25333">
        <ele>792.74</ele>
        <time>2012-07-28T08:24:04Z</time>
      </trkpt>
      <trkpt lat="46.67779" lon="8.25385">
        <ele>796.11</ele>
        <time>2012-07-28T08:24:07Z</time>
      </trkpt>
      <trkpt lat="46.67703" lon="8.25467">
        <ele>805.24</ele>
        <time>2012-07-28T08:24:14Z</time>
      </trkpt>
      <trkpt lat="46.67636" lon="8.25494">
        <ele>811.49</ele>
        <time>2012-07-28T08:24:18Z</time>
      </trkpt>
      <trkpt lat="46.67656" lon="8.25499">
        <ele>813.41</ele>
        <time>2012-07-28T08:24:19Z</time>
      </trkpt>
      <trkpt lat="46.67656" lon="8.255">
        <ele>818.22</ele>
        <time>2012-07-28T08:24:22Z</time>
      </trkpt>
      <trkpt lat="46.67639" lon="8.2551">
        <ele>829.27</ele>
        <time>2012-07-28T08:24:31Z</time>
      </trkpt>
      <trkpt lat="46.67378" lon="8.25579">
        <ele>830.24</ele>
        <time>2012-07-28T08:24:32Z</time>
      </trkpt>
      <trkpt lat="46.67382" lon="8.2564">
        <ele>834.08</ele>
        <time>2012-07-28T08:24:35Z</time>
      </trkpt>
      <trkpt lat="46.67357" lon="8.25702">
        <ele>838.41</ele>
        <time>2012-07-28T08:24:39Z</time>
      </trkpt>
      <trkpt lat="46.67299" lon="8.25937">
        <ele>853.31</ele>
        <time>2012-07-28T08:24:50Z</time>
      </trkpt>
      <trkpt lat="46.67189" lon="8.26163">
        <ele>866.77</ele>
        <time>2012-07-28T08:25:02Z</time>
      </trkpt>
      <trkpt lat="46.6715" lon="8.26201">
        <ele>868.21</ele>
        <time>2012-07-28T08:25:06Z</time>
      </trkpt>
      <trkpt lat="46.67127" lon="8.26268">
        <ele>871.57</ele>
        <time>2012-07-28T08:25:10Z</time>
      </trkpt>
      <trkpt lat="46.67035" lon="8.26501">
        <ele>872.05</ele>
        <time>2012-07-28T08:25:23Z</time>
      </trkpt>
      <trkpt lat="46.67016" lon="8.26665">
        <ele>873.98</ele>
        <time>2012-07-28T08:25:31Z</time>
      </trkpt>
      <trkpt lat="46.66963" lon="8.2681">
        <ele>875.42</ele>
        <time>2012-07-28T08:25:40Z</time>
      </trkpt>
      <trkpt lat="46.66936" lon="8.26847">
        <ele>876.38</ele>
        <time>2012-07-28T08:25:43Z</time>
      </trkpt>
      <trkpt lat="46.66894" lon="8.26881">
        <ele>879.26</ele>
        <time>2012-07-28T08:25:47Z</time>
      </trkpt>
      <trkpt lat="46.66851" lon="8.26898">
        <ele>880.22</ele>
        <time>2012-07-28T08:25:52Z</time>
      </trkpt>
      <trkpt lat="46.66835" lon="8.26855">
        <ele>883.59</ele>
        <time>2012-07-28T08:25:57Z</time>
      </trkpt>
      <trkpt lat="46.66857" lon="8.26766">
        <ele>887.91</ele>
        <time>2012-07-28T08:26:05Z</time>
      </trkpt>
      <trkpt lat="46.66851" lon="8.26742">
        <ele>888.4</ele>
        <time>2012-07-28T08:26:08Z</time>
      </trkpt>
      <trkpt lat="46.66835" lon="8.2673">
        <ele>890.32</ele>
        <time>2012-07-28T08:26:11Z</time>
      </trkpt>
      <trkpt lat="46.66828" lon="8.26731">
        <ele>890.32</ele>
        <time>2012-07-28T08:26:12Z</time>
      </trkpt>
      <trkpt lat="46.66809" lon="8.26761">
        <ele>892.72</ele>
        <time>2012-07-28T08:26:16Z</time>
      </trkpt>
      <trkpt lat="46.66799" lon="8.26888">
        <ele>900.41</ele>
        <time>2012-07-28T08:26:25Z</time>
      </trkpt>
      <trkpt lat="46.66737" lon="8.26966">
        <ele>909.06</ele>
        <time>2012-07-28T08:26:32Z</time>
      </trkpt>
      <trkpt lat="46.66647" lon="8.27065">
        <ele>920.12</ele>
        <time>2012-07-28T08:26:41Z</time>
      </trkpt>
      <trkpt lat="46.66564" lon="8.27269">
        <ele>934.54</ele>
        <time>2012-07-28T08:26:52Z</time>
      </trkpt>
      <trkpt lat="46.66525" lon="8.27391">
        <ele>942.23</ele>
        <time>2012-07-28T08:26:58Z</time>
      </trkpt>
      <trkpt lat="46.66505" lon="8.27481">
        <ele>944.15</ele>
        <time>2012-07-28T08:27:04Z</time>
      </trkpt>
      <trkpt lat="46.66484" lon="8.27483">
        <ele>946.56</ele>
        <time>2012-07-28T08:27:07Z</time>
      </trkpt>
      <trkpt lat="46.6646" lon="8.27431">
        <ele>952.32</ele>
        <time>2012-07-28T08:27:11Z</time>
      </trkpt>
      <trkpt lat="46.66446" lon="8.2739">
        <ele>956.17</ele>
        <time>2012-07-28T08:27:13Z</time>
      </trkpt>
      <trkpt lat="46.66431" lon="8.27348">
        <ele>959.05</ele>
        <time>2012-07-28T08:27:15Z</time>
      </trkpt>
      <trkpt lat="46.66409" lon="8.27287">
        <ele>959.53</ele>
        <time>2012-07-28T08:27:19Z</time>
      </trkpt>
      <trkpt lat="46.66389" lon="8.27273">
        <ele>960.01</ele>
        <time>2012-07-28T08:27:22Z</time>
      </trkpt>
      <trkpt lat="46.66371" lon="8.2729">
        <ele>961.94</ele>
        <time>2012-07-28T08:27:25Z</time>
      </trkpt>
      <trkpt lat="46.66354" lon="8.2738">
        <ele>967.7</ele>
        <time>2012-07-28T08:27:32Z</time>
      </trkpt>
      <trkpt lat="46.66292" lon="8.27502">
        <ele>978.28</ele>
        <time>2012-07-28T08:27:41Z</time>
      </trkpt>
      <trkpt lat="46.6623" lon="8.27569">
        <ele>985.01</ele>
        <time>2012-07-28T08:27:48Z</time>
      </trkpt>
      <trkpt lat="46.66175" lon="8.27597">
        <ele>997.02</ele>
        <time>2012-07-28T08:28:10Z</time>
      </trkpt>
      <trkpt lat="46.66105" lon="8.27746">
        <ele>998.47</ele>
        <time>2012-07-28T08:28:11Z</time>
      </trkpt>
      <trkpt lat="46.66099" lon="8.27861">
        <ele>1008.08</ele>
        <time>2012-07-28T08:28:18Z</time>
      </trkpt>
      <trkpt lat="46.66022" lon="8.27983">
        <ele>1021.54</ele>
        <time>2012-07-28T08:28:27Z</time>
      </trkpt>
      <trkpt lat="46.65952" lon="8.28131">
        <ele>1034.52</ele>
        <time>2012-07-28T08:28:36Z</time>
      </trkpt>
      <trkpt lat="46.65918" lon="8.28251">
        <ele>1042.21</ele>
        <time>2012-07-28T08:28:42Z</time>
      </trkpt>
      <trkpt lat="46.6591" lon="8.28339">
        <ele>1048.45</ele>
        <time>2012-07-28T08:28:46Z</time>
      </trkpt>
      <trkpt lat="46.65914" lon="8.28382">
        <ele>1050.38</ele>
        <time>2012-07-28T08:28:48Z</time>
      </trkpt>
      <trkpt lat="46.6592" lon="8.28418">
        <ele>1051.34</ele>
        <time>2012-07-28T08:28:50Z</time>
      </trkpt>
      <trkpt lat="46.65914" lon="8.28492">
        <ele>1053.74</ele>
        <time>2012-07-28T08:28:54Z</time>
      </trkpt>
      <trkpt lat="46.65888" lon="8.28545">
        <ele>1056.63</ele>
        <time>2012-07-28T08:28:57Z</time>
      </trkpt>
      <trkpt lat="46.65809" lon="8.28646">
        <ele>1056.63</ele>
        <time>2012-07-28T08:29:03Z</time>
      </trkpt>
      <trkpt lat="46.65764" lon="8.2867">
        <ele>1057.59</ele>
        <time>2012-07-28T08:29:06Z</time>
      </trkpt>
      <trkpt lat="46.65637" lon="8.28691">
        <ele>1054.22</ele>
        <time>2012-07-28T08:29:17Z</time>
      </trkpt>
      <trkpt lat="46.65615" lon="8.2871">
        <ele>1051.82</ele>
        <time>2012-07-28T08:29:21Z</time>
      </trkpt>
      <trkpt lat="46.65517" lon="8.28927">
        <ele>1058.55</ele>
        <time>2012-07-28T08:30:12Z</time>
      </trkpt>
      <trkpt lat="46.65277" lon="8.2925">
        <ele>1071.53</ele>
        <time>2012-07-28T08:30:38Z</time>
      </trkpt>
      <trkpt lat="46.65185" lon="8.29322">
        <ele>1078.26</ele>
        <time>2012-07-28T08:30:45Z</time>
      </trkpt>
      <trkpt lat="46.65071" lon="8.29363">
        <ele>1088.35</ele>
        <time>2012-07-28T08:30:53Z</time>
      </trkpt>
      <trkpt lat="46.65046" lon="8.2938">
        <ele>1089.79</ele>
        <time>2012-07-28T08:30:55Z</time>
      </trkpt>
      <trkpt lat="46.65018" lon="8.29425">
        <ele>1092.68</ele>
        <time>2012-07-28T08:30:58Z</time>
      </trkpt>
      <trkpt lat="46.65005" lon="8.29488">
        <ele>1094.12</ele>
        <time>2012-07-28T08:31:01Z</time>
      </trkpt>
      <trkpt lat="46.64974" lon="8.29606">
        <ele>1094.6</ele>
        <time>2012-07-28T08:31:07Z</time>
      </trkpt>
      <trkpt lat="46.64963" lon="8.29623">
        <ele>1093.64</ele>
        <time>2012-07-28T08:31:08Z</time>
      </trkpt>
      <trkpt lat="46.64819" lon="8.2984">
        <ele>1092.68</ele>
        <time>2012-07-28T08:31:21Z</time>
      </trkpt>
      <trkpt lat="46.64645" lon="8.30013">
        <ele>1107.1</ele>
        <time>2012-07-28T08:31:36Z</time>
      </trkpt>
      <trkpt lat="46.64613" lon="8.30059">
        <ele>1110.94</ele>
        <time>2012-07-28T08:31:39Z</time>
      </trkpt>
      <trkpt lat="46.6454" lon="8.30156">
        <ele>1117.19</ele>
        <time>2012-07-28T08:31:46Z</time>
      </trkpt>
      <trkpt lat="46.64471" lon="8.30178">
        <ele>1122.96</ele>
        <time>2012-07-28T08:31:51Z</time>
      </trkpt>
      <trkpt lat="46.64299" lon="8.30166">
        <ele>1133.05</ele>
        <time>2012-07-28T08:32:03Z</time>
      </trkpt>
      <trkpt lat="46.64002" lon="8.30199">
        <ele>1146.03</ele>
        <time>2012-07-28T08:32:26Z</time>
      </trkpt>
      <trkpt lat="46.6395" lon="8.30221">
        <ele>1148.43</ele>
        <time>2012-07-28T08:36:02Z</time>
      </trkpt>
      <trkpt lat="46.6395" lon="8.30222">
        <ele>1150.35</ele>
        <time>2012-07-28T08:44:03Z</time>
      </trkpt>
      <trkpt lat="46.63935" lon="8.30258">
        <ele>1152.76</ele>
        <time>2012-07-28T08:45:45Z</time>
      </trkpt>
      <trkpt lat="46.63906" lon="8.30293">
        <ele>1157.56</ele>
        <time>2012-07-28T08:45:49Z</time>
      </trkpt>
      <trkpt lat="46.63852" lon="8.30335">
        <ele>1161.89</ele>
        <time>2012-07-28T08:45:54Z</time>
      </trkpt>
      <trkpt lat="46.63698" lon="8.30334">
        <ele>1172.95</ele>
        <time>2012-07-28T08:46:06Z</time>
      </trkpt>
      <trkpt lat="46.63564" lon="8.30392">
        <ele>1182.56</ele>
        <time>2012-07-28T08:46:16Z</time>
      </trkpt>
      <trkpt lat="46.63371" lon="8.30445">
        <ele>1190.25</ele>
        <time>2012-07-28T08:46:29Z</time>
      </trkpt>
      <trkpt lat="46.63268" lon="8.30458">
        <ele>1197.46</ele>
        <time>2012-07-28T08:46:36Z</time>
      </trkpt>
      <trkpt lat="46.63158" lon="8.30427">
        <ele>1207.55</ele>
        <time>2012-07-28T08:46:45Z</time>
      </trkpt>
      <trkpt lat="46.63093" lon="8.30431">
        <ele>1211.88</ele>
        <time>2012-07-28T08:46:50Z</time>
      </trkpt>
      <trkpt lat="46.6298" lon="8.30428">
        <ele>1217.17</ele>
        <time>2012-07-28T08:46:58Z</time>
      </trkpt>
      <trkpt lat="46.62859" lon="8.3043">
        <ele>1217.17</ele>
        <time>2012-07-28T08:47:06Z</time>
      </trkpt>
      <trkpt lat="46.62721" lon="8.30333">
        <ele>1228.7</ele>
        <time>2012-07-28T08:47:16Z</time>
      </trkpt>
      <trkpt lat="46.62676" lon="8.30331">
        <ele>1231.59</ele>
        <time>2012-07-28T08:47:19Z</time>
      </trkpt>
      <trkpt lat="46.62578" lon="8.30393">
        <ele>1241.2</ele>
        <time>2012-07-28T08:47:26Z</time>
      </trkpt>
      <trkpt lat="46.62468" lon="8.30557">
        <ele>1253.22</ele>
        <time>2012-07-28T08:47:36Z</time>
      </trkpt>
      <trkpt lat="46.62415" lon="8.30612">
        <ele>1279.65</ele>
        <time>2012-07-28T08:47:57Z</time>
      </trkpt>
      <trkpt lat="46.62186" lon="8.30776">
        <ele>1283.02</ele>
        <time>2012-07-28T08:47:59Z</time>
      </trkpt>
      <trkpt lat="46.62102" lon="8.3065">
        <ele>1285.9</ele>
        <time>2012-07-28T08:48:03Z</time>
      </trkpt>
      <trkpt lat="46.62064" lon="8.30617">
        <ele>1287.34</ele>
        <time>2012-07-28T08:48:05Z</time>
      </trkpt>
      <trkpt lat="46.62002" lon="8.3055">
        <ele>1288.3</ele>
        <time>2012-07-28T08:48:07Z</time>
      </trkpt>
      <trkpt lat="46.61832" lon="8.30553">
        <ele>1295.51</ele>
        <time>2012-07-28T08:48:18Z</time>
      </trkpt>
      <trkpt lat="46.61645" lon="8.3048">
        <ele>1304.17</ele>
        <time>2012-07-28T08:48:40Z</time>
      </trkpt>
      <trkpt lat="46.61612" lon="8.30488">
        <ele>1307.05</ele>
        <time>2012-07-28T08:48:44Z</time>
      </trkpt>
      <trkpt lat="46.61584" lon="8.30522">
        <ele>1311.38</ele>
        <time>2012-07-28T08:48:48Z</time>
      </trkpt>
      <trkpt lat="46.61566" lon="8.30644">
        <ele>1319.07</ele>
        <time>2012-07-28T08:48:56Z</time>
      </trkpt>
      <trkpt lat="46.61561" lon="8.30709">
        <ele>1320.03</ele>
        <time>2012-07-28T08:49:02Z</time>
      </trkpt>
      <trkpt lat="46.6155" lon="8.30711">
        <ele>1320.51</ele>
        <time>2012-07-28T08:49:05Z</time>
      </trkpt>
      <trkpt lat="46.61539" lon="8.30615">
        <ele>1330.12</ele>
        <time>2012-07-28T08:49:13Z</time>
      </trkpt>
      <trkpt lat="46.61493" lon="8.30516">
        <ele>1335.41</ele>
        <time>2012-07-28T08:49:18Z</time>
      </trkpt>
      <trkpt lat="46.61502" lon="8.30437">
        <ele>1338.77</ele>
        <time>2012-07-28T08:49:23Z</time>
      </trkpt>
      <trkpt lat="46.61502" lon="8.30397">
        <ele>1339.25</ele>
        <time>2012-07-28T08:49:27Z</time>
      </trkpt>
      <trkpt lat="46.61488" lon="8.3039">
        <ele>1338.77</ele>
        <time>2012-07-28T08:49:29Z</time>
      </trkpt>
      <trkpt lat="46.61473" lon="8.30445">
        <ele>1341.66</ele>
        <time>2012-07-28T08:49:34Z</time>
      </trkpt>
      <trkpt lat="46.6148" lon="8.30579">
        <ele>1350.31</ele>
        <time>2012-07-28T08:49:41Z</time>
      </trkpt>
      <trkpt lat="46.61489" lon="8.30659">
        <ele>1353.19</ele>
        <time>2012-07-28T08:49:46Z</time>
      </trkpt>
      <trkpt lat="46.61462" lon="8.30707">
        <ele>1357.04</ele>
        <time>2012-07-28T08:49:50Z</time>
      </trkpt>
      <trkpt lat="46.61423" lon="8.3074">
        <ele>1361.84</ele>
        <time>2012-07-28T08:49:54Z</time>
      </trkpt>
      <trkpt lat="46.61417" lon="8.30725">
        <ele>1371.46</ele>
        <time>2012-07-28T08:50:01Z</time>
      </trkpt>
      <trkpt lat="46.61263" lon="8.30871">
        <ele>1379.15</ele>
        <time>2012-07-28T08:50:09Z</time>
      </trkpt>
      <trkpt lat="46.61215" lon="8.3087">
        <ele>1383.47</ele>
        <time>2012-07-28T08:50:13Z</time>
      </trkpt>
      <trkpt lat="46.61124" lon="8.30803">
        <ele>1393.09</ele>
        <time>2012-07-28T08:50:22Z</time>
      </trkpt>
      <trkpt lat="46.61063" lon="8.30794">
        <ele>1396.45</ele>
        <time>2012-07-28T08:50:27Z</time>
      </trkpt>
      <trkpt lat="46.61002" lon="8.30823">
        <ele>1399.82</ele>
        <time>2012-07-28T08:50:32Z</time>
      </trkpt>
      <trkpt lat="46.60859" lon="8.30944">
        <ele>1409.91</ele>
        <time>2012-07-28T08:50:44Z</time>
      </trkpt>
      <trkpt lat="46.60809" lon="8.30987">
        <ele>1412.31</ele>
        <time>2012-07-28T08:50:48Z</time>
      </trkpt>
      <trkpt lat="46.60603" lon="8.31165">
        <ele>1414.72</ele>
        <time>2012-07-28T08:51:03Z</time>
      </trkpt>
      <trkpt lat="46.60533" lon="8.31246">
        <ele>1413.76</ele>
        <time>2012-07-28T08:51:10Z</time>
      </trkpt>
      <trkpt lat="46.60509" lon="8.31353">
        <ele>1415.68</ele>
        <time>2012-07-28T08:51:16Z</time>
      </trkpt>
      <trkpt lat="46.60532" lon="8.31542">
        <ele>1427.21</ele>
        <time>2012-07-28T08:51:25Z</time>
      </trkpt>
      <trkpt lat="46.60561" lon="8.3164">
        <ele>1431.54</ele>
        <time>2012-07-28T08:51:31Z</time>
      </trkpt>
      <trkpt lat="46.60641" lon="8.31685">
        <ele>1440.19</ele>
        <time>2012-07-28T08:51:39Z</time>
      </trkpt>
      <trkpt lat="46.6069" lon="8.31683">
        <ele>1443.56</ele>
        <time>2012-07-28T08:51:41Z</time>
      </trkpt>
      <trkpt lat="46.60782" lon="8.31613">
        <ele>1449.81</ele>
        <time>2012-07-28T08:51:52Z</time>
      </trkpt>
      <trkpt lat="46.60791" lon="8.31626">
        <ele>1450.77</ele>
        <time>2012-07-28T08:51:55Z</time>
      </trkpt>
      <trkpt lat="46.60559" lon="8.31841">
        <ele>1484.89</ele>
        <time>2012-07-28T08:52:19Z</time>
      </trkpt>
      <trkpt lat="46.60545" lon="8.31803">
        <ele>1493.06</ele>
        <time>2012-07-28T08:52:24Z</time>
      </trkpt>
      <trkpt lat="46.60544" lon="8.31803">
        <ele>1499.79</ele>
        <time>2012-07-28T08:52:28Z</time>
      </trkpt>
      <trkpt lat="46.60535" lon="8.31808">
        <ele>1501.24</ele>
        <time>2012-07-28T08:52:29Z</time>
      </trkpt>
      <trkpt lat="46.60528" lon="8.31812">
        <ele>1515.66</ele>
        <time>2012-07-28T08:52:38Z</time>
      </trkpt>
      <trkpt lat="46.60528" lon="8.31812">
        <ele>1517.58</ele>
        <time>2012-07-28T08:52:39Z</time>
      </trkpt>
      <trkpt lat="46.60528" lon="8.31812">
        <ele>1520.94</ele>
        <time>2012-07-28T08:52:41Z</time>
      </trkpt>
      <trkpt lat="46.60525" lon="8.31814">
        <ele>1522.87</ele>
        <time>2012-07-28T08:52:42Z</time>
      </trkpt>
      <trkpt lat="46.60524" lon="8.31814">
        <ele>1524.31</ele>
        <time>2012-07-28T08:52:43Z</time>
      </trkpt>
      <trkpt lat="46.60525" lon="8.31813">
        <ele>1529.59</ele>
        <time>2012-07-28T08:52:48Z</time>
      </trkpt>
      <trkpt lat="46.60519" lon="8.31817">
        <ele>1537.77</ele>
        <time>2012-07-28T08:52:52Z</time>
      </trkpt>
      <trkpt lat="46.60515" lon="8.31819">
        <ele>1540.17</ele>
        <time>2012-07-28T08:52:53Z</time>
      </trkpt>
      <trkpt lat="46.60518" lon="8.31817">
        <ele>1543.53</ele>
        <time>2012-07-28T08:52:55Z</time>
      </trkpt>
      <trkpt lat="46.60508" lon="8.31823">
        <ele>1560.36</ele>
        <time>2012-07-28T08:53:05Z</time>
      </trkpt>
      <trkpt lat="46.60503" lon="8.31826">
        <ele>1563.24</ele>
        <time>2012-07-28T08:53:08Z</time>
      </trkpt>
      <trkpt lat="46.6051" lon="8.31822">
        <ele>1566.61</ele>
        <time>2012-07-28T08:53:11Z</time>
      </trkpt>
      <trkpt lat="46.60504" lon="8.31825">
        <ele>1570.93</ele>
        <time>2012-07-28T08:53:13Z</time>
      </trkpt>
      <trkpt lat="46.59864" lon="8.3233">
        <ele>1570.93</ele>
        <time>2012-07-28T08:53:14Z</time>
      </trkpt>
      <trkpt lat="46.59843" lon="8.32446">
        <ele>1576.22</ele>
        <time>2012-07-28T08:53:20Z</time>
      </trkpt>
      <trkpt lat="46.59791" lon="8.32508">
        <ele>1584.87</ele>
        <time>2012-07-28T08:53:25Z</time>
      </trkpt>
      <trkpt lat="46.5973" lon="8.32564">
        <ele>1589.68</ele>
        <time>2012-07-28T08:53:30Z</time>
      </trkpt>
      <trkpt lat="46.59678" lon="8.32559">
        <ele>1594.48</ele>
        <time>2012-07-28T08:53:35Z</time>
      </trkpt>
      <trkpt lat="46.59648" lon="8.32465">
        <ele>1603.14</ele>
        <time>2012-07-28T08:53:41Z</time>
      </trkpt>
      <trkpt lat="46.59618" lon="8.32363">
        <ele>1609.86</ele>
        <time>2012-07-28T08:53:47Z</time>
      </trkpt>
      <trkpt lat="46.59586" lon="8.32308">
        <ele>1616.11</ele>
        <time>2012-07-28T08:53:51Z</time>
      </trkpt>
      <trkpt lat="46.59485" lon="8.32239">
        <ele>1627.65</ele>
        <time>2012-07-28T08:54:00Z</time>
      </trkpt>
      <trkpt lat="46.59474" lon="8.32239">
        <ele>1627.17</ele>
        <time>2012-07-28T08:54:01Z</time>
      </trkpt>
      <trkpt lat="46.594" lon="8.32289">
        <ele>1634.38</ele>
        <time>2012-07-28T08:54:08Z</time>
      </trkpt>
      <trkpt lat="46.59315" lon="8.32385">
        <ele>1642.55</ele>
        <time>2012-07-28T08:54:17Z</time>
      </trkpt>
      <trkpt lat="46.59233" lon="8.32406">
        <ele>1653.12</ele>
        <time>2012-07-28T08:54:24Z</time>
      </trkpt>
      <trkpt lat="46.59153" lon="8.32453">
        <ele>1662.26</ele>
        <time>2012-07-28T08:54:31Z</time>
      </trkpt>
      <trkpt lat="46.59102" lon="8.32484">
        <ele>1663.7</ele>
        <time>2012-07-28T08:55:39Z</time>
      </trkpt>
      <trkpt lat="46.59129" lon="8.32502">
        <ele>1666.1</ele>
        <time>2012-07-28T08:57:08Z</time>
      </trkpt>
      <trkpt lat="46.59191" lon="8.32453">
        <ele>1670.91</ele>
        <time>2012-07-28T08:57:16Z</time>
      </trkpt>
      <trkpt lat="46.59276" lon="8.32435">
        <ele>1678.12</ele>
        <time>2012-07-28T08:57:24Z</time>
      </trkpt>
      <trkpt lat="46.59301" lon="8.32454">
        <ele>1680.52</ele>
        <time>2012-07-28T08:57:27Z</time>
      </trkpt>
      <trkpt lat="46.59318" lon="8.32488">
        <ele>1682.93</ele>
        <time>2012-07-28T08:57:30Z</time>
      </trkpt>
      <trkpt lat="46.59341" lon="8.32535">
        <ele>1686.29</ele>
        <time>2012-07-28T08:57:34Z</time>
      </trkpt>
      <trkpt lat="46.59379" lon="8.32554">
        <ele>1690.14</ele>
        <time>2012-07-28T08:57:38Z</time>
      </trkpt>
      <trkpt lat="46.59414" lon="8.32566">
        <ele>1692.06</ele>
        <time>2012-07-28T08:57:42Z</time>
      </trkpt>
      <trkpt lat="46.59425" lon="8.32589">
        <ele>1693.98</ele>
        <time>2012-07-28T08:57:45Z</time>
      </trkpt>
      <trkpt lat="46.59408" lon="8.32616">
        <ele>1695.42</ele>
        <time>2012-07-28T08:57:49Z</time>
      </trkpt>
      <trkpt lat="46.5937" lon="8.32587">
        <ele>1701.67</ele>
        <time>2012-07-28T08:57:54Z</time>
      </trkpt>
      <trkpt lat="46.59326" lon="8.32573">
        <ele>1706.96</ele>
        <time>2012-07-28T08:57:58Z</time>
      </trkpt>
      <trkpt lat="46.59303" lon="8.32569">
        <ele>1706.96</ele>
        <time>2012-07-28T08:58:00Z</time>
      </trkpt>
      <trkpt lat="46.59274" lon="8.32545">
        <ele>1712.25</ele>
        <time>2012-07-28T08:58:03Z</time>
      </trkpt>
      <trkpt lat="46.59249" lon="8.32497">
        <ele>1715.61</ele>
        <time>2012-07-28T08:58:08Z</time>
      </trkpt>
      <trkpt lat="46.59229" lon="8.32492">
        <ele>1717.53</ele>
        <time>2012-07-28T08:58:11Z</time>
      </trkpt>
      <trkpt lat="46.59206" lon="8.32537">
        <ele>1724.26</ele>
        <time>2012-07-28T08:58:16Z</time>
      </trkpt>
      <trkpt lat="46.59188" lon="8.32576">
        <ele>1726.18</ele>
        <time>2012-07-28T08:58:19Z</time>
      </trkpt>
      <trkpt lat="46.5915" lon="8.32613">
        <ele>1732.91</ele>
        <time>2012-07-28T08:58:23Z</time>
      </trkpt>
      <trkpt lat="46.59115" lon="8.32657">
        <ele>1736.28</ele>
        <time>2012-07-28T08:58:27Z</time>
      </trkpt>
      <trkpt lat="46.59062" lon="8.32767">
        <ele>1751.66</ele>
        <time>2012-07-28T09:04:09Z</time>
      </trkpt>
      <trkpt lat="46.59048" lon="8.32873">
        <ele>1748.78</ele>
        <time>2012-07-28T09:06:00Z</time>
      </trkpt>
      <trkpt lat="46.59024" lon="8.32903">
        <ele>1751.66</ele>
        <time>2012-07-28T09:06:03Z</time>
      </trkpt>
      <trkpt lat="46.58974" lon="8.32966">
        <ele>1752.62</ele>
        <time>2012-07-28T09:06:08Z</time>
      </trkpt>
      <trkpt lat="46.58916" lon="8.33073">
        <ele>1753.1</ele>
        <time>2012-07-28T09:06:15Z</time>
      </trkpt>
      <trkpt lat="46.58867" lon="8.33144">
        <ele>1750.22</ele>
        <time>2012-07-28T09:06:21Z</time>
      </trkpt>
      <trkpt lat="46.58829" lon="8.33149">
        <ele>1750.7</ele>
        <time>2012-07-28T09:06:25Z</time>
      </trkpt>
      <trkpt lat="46.58755" lon="8.33109">
        <ele>1752.62</ele>
        <time>2012-07-28T09:06:33Z</time>
      </trkpt>
      <trkpt lat="46.58715" lon="8.33148">
        <ele>1754.54</ele>
        <time>2012-07-28T09:06:38Z</time>
      </trkpt>
      <trkpt lat="46.5857" lon="8.33289">
        <ele>1754.06</ele>
        <time>2012-07-28T09:06:54Z</time>
      </trkpt>
      <trkpt lat="46.58549" lon="8.33298">
        <ele>1752.14</ele>
        <time>2012-07-28T09:06:56Z</time>
      </trkpt>
      <trkpt lat="46.58417" lon="8.33327">
        <ele>1754.54</ele>
        <time>2012-07-28T09:07:07Z</time>
      </trkpt>
      <trkpt lat="46.58237" lon="8.33289">
        <ele>1753.1</ele>
        <time>2012-07-28T09:07:21Z</time>
      </trkpt>
      <trkpt lat="46.58214" lon="8.33293">
        <ele>1755.02</ele>
        <time>2012-07-28T09:07:23Z</time>
      </trkpt>
      <trkpt lat="46.58102" lon="8.33328">
        <ele>1755.5</ele>
        <time>2012-07-28T09:07:34Z</time>
      </trkpt>
      <trkpt lat="46.58039" lon="8.33407">
        <ele>1755.02</ele>
        <time>2012-07-28T09:07:42Z</time>
      </trkpt>
      <trkpt lat="46.57955" lon="8.33465">
        <ele>1761.27</ele>
        <time>2012-07-28T09:07:49Z</time>
      </trkpt>
      <trkpt lat="46.57939" lon="8.33491">
        <ele>1765.12</ele>
        <time>2012-07-28T09:07:51Z</time>
      </trkpt>
      <trkpt lat="46.57895" lon="8.33585">
        <ele>1769.92</ele>
        <time>2012-07-28T09:07:57Z</time>
      </trkpt>
      <trkpt lat="46.57859" lon="8.33645">
        <ele>1773.77</ele>
        <time>2012-07-28T09:08:01Z</time>
      </trkpt>
      <trkpt lat="46.57772" lon="8.33742">
        <ele>1781.94</ele>
        <time>2012-07-28T09:08:10Z</time>
      </trkpt>
      <trkpt lat="46.57677" lon="8.33702">
        <ele>1790.59</ele>
        <time>2012-07-28T09:08:19Z</time>
      </trkpt>
      <trkpt lat="46.57627" lon="8.33736">
        <ele>1799.73</ele>
        <time>2012-07-28T09:08:24Z</time>
      </trkpt>
      <trkpt lat="46.57586" lon="8.33784">
        <ele>1803.57</ele>
        <time>2012-07-28T09:08:28Z</time>
      </trkpt>
      <trkpt lat="46.57536" lon="8.33805">
        <ele>1808.86</ele>
        <time>2012-07-28T09:08:32Z</time>
      </trkpt>
      <trkpt lat="46.57497" lon="8.338">
        <ele>1811.74</ele>
        <time>2012-07-28T09:08:35Z</time>
      </trkpt>
      <trkpt lat="46.57407" lon="8.33752">
        <ele>1820.87</ele>
        <time>2012-07-28T09:08:42Z</time>
      </trkpt>
      <trkpt lat="46.57382" lon="8.33717">
        <ele>1825.68</ele>
        <time>2012-07-28T09:08:45Z</time>
      </trkpt>
      <trkpt lat="46.57375" lon="8.33677">
        <ele>1829.53</ele>
        <time>2012-07-28T09:08:48Z</time>
      </trkpt>
      <trkpt lat="46.57362" lon="8.3363">
        <ele>1831.93</ele>
        <time>2012-07-28T09:08:53Z</time>
      </trkpt>
      <trkpt lat="46.57351" lon="8.33629">
        <ele>1831.45</ele>
        <time>2012-07-28T09:08:55Z</time>
      </trkpt>
      <trkpt lat="46.57342" lon="8.3366">
        <ele>1833.85</ele>
        <time>2012-07-28T09:08:59Z</time>
      </trkpt>
      <trkpt lat="46.57358" lon="8.33749">
        <ele>1844.43</ele>
        <time>2012-07-28T09:09:04Z</time>
      </trkpt>
      <trkpt lat="46.57396" lon="8.33852">
        <ele>1854.52</ele>
        <time>2012-07-28T09:09:10Z</time>
      </trkpt>
      <trkpt lat="46.57416" lon="8.33878">
        <ele>1854.04</ele>
        <time>2012-07-28T09:09:12Z</time>
      </trkpt>
      <trkpt lat="46.57493" lon="8.33941">
        <ele>1859.81</ele>
        <time>2012-07-28T09:09:18Z</time>
      </trkpt>
      <trkpt lat="46.57505" lon="8.33947">
        <ele>1858.85</ele>
        <time>2012-07-28T09:09:19Z</time>
      </trkpt>
      <trkpt lat="46.57592" lon="8.33948">
        <ele>1866.54</ele>
        <time>2012-07-28T09:09:26Z</time>
      </trkpt>
      <trkpt lat="46.57641" lon="8.33945">
        <ele>1867.98</ele>
        <time>2012-07-28T09:09:33Z</time>
      </trkpt>
      <trkpt lat="46.57629" lon="8.33971">
        <ele>1869.9</ele>
        <time>2012-07-28T09:09:37Z</time>
      </trkpt>
      <trkpt lat="46.57579" lon="8.33977">
        <ele>1877.11</ele>
        <time>2012-07-28T09:09:42Z</time>
      </trkpt>
      <trkpt lat="46.57437" lon="8.3402">
        <ele>1888.65</ele>
        <time>2012-07-28T09:09:52Z</time>
      </trkpt>
      <trkpt lat="46.57346" lon="8.34023">
        <ele>1892.97</ele>
        <time>2012-07-28T09:09:58Z</time>
      </trkpt>
      <trkpt lat="46.57232" lon="8.34017">
        <ele>1889.13</ele>
        <time>2012-07-28T09:10:05Z</time>
      </trkpt>
      <trkpt lat="46.57081" lon="8.33961">
        <ele>1889.13</ele>
        <time>2012-07-28T09:10:15Z</time>
      </trkpt>
      <trkpt lat="46.57043" lon="8.33924">
        <ele>1888.65</ele>
        <time>2012-07-28T09:10:18Z</time>
      </trkpt>
      <trkpt lat="46.5696" lon="8.33729">
        <ele>1893.93</ele>
        <time>2012-07-28T09:10:28Z</time>
      </trkpt>
      <trkpt lat="46.56762" lon="8.33386">
        <ele>1922.77</ele>
        <time>2012-07-28T09:10:46Z</time>
      </trkpt>
      <trkpt lat="46.56731" lon="8.33328">
        <ele>1925.66</ele>
        <time>2012-07-28T09:10:49Z</time>
      </trkpt>
      <trkpt lat="46.5669" lon="8.33168">
        <ele>1936.23</ele>
        <time>2012-07-28T09:10:56Z</time>
      </trkpt>
      <trkpt lat="46.56687" lon="8.33048">
        <ele>1939.12</ele>
        <time>2012-07-28T09:11:03Z</time>
      </trkpt>
      <trkpt lat="46.56668" lon="8.3303">
        <ele>1941.04</ele>
        <time>2012-07-28T09:11:07Z</time>
      </trkpt>
      <trkpt lat="46.56656" lon="8.33074">
        <ele>1944.88</ele>
        <time>2012-07-28T09:11:12Z</time>
      </trkpt>
      <trkpt lat="46.56664" lon="8.33233">
        <ele>1957.38</ele>
        <time>2012-07-28T09:11:20Z</time>
      </trkpt>
      <trkpt lat="46.56666" lon="8.33347">
        <ele>1964.59</ele>
        <time>2012-07-28T09:11:25Z</time>
      </trkpt>
      <trkpt lat="46.56675" lon="8.33449">
        <ele>1966.51</ele>
        <time>2012-07-28T09:11:31Z</time>
      </trkpt>
      <trkpt lat="46.56729" lon="8.3355">
        <ele>1974.69</ele>
        <time>2012-07-28T09:11:39Z</time>
      </trkpt>
      <trkpt lat="46.56763" lon="8.33696">
        <ele>1989.1</ele>
        <time>2012-07-28T09:11:47Z</time>
      </trkpt>
      <trkpt lat="46.56803" lon="8.33833">
        <ele>1996.8</ele>
        <time>2012-07-28T09:11:55Z</time>
      </trkpt>
      <trkpt lat="46.56801" lon="8.33857">
        <ele>1993.91</ele>
        <time>2012-07-28T09:11:58Z</time>
      </trkpt>
      <trkpt lat="46.56782" lon="8.3385">
        <ele>1994.39</ele>
        <time>2012-07-28T09:12:02Z</time>
      </trkpt>
      <trkpt lat="46.56736" lon="8.33734">
        <ele>2005.93</ele>
        <time>2012-07-28T09:12:09Z</time>
      </trkpt>
      <trkpt lat="46.56718" lon="8.33693">
        <ele>2009.77</ele>
        <time>2012-07-28T09:12:11Z</time>
      </trkpt>
      <trkpt lat="46.56675" lon="8.33613">
        <ele>2015.06</ele>
        <time>2012-07-28T09:12:16Z</time>
      </trkpt>
      <trkpt lat="46.56617" lon="8.33581">
        <ele>2021.79</ele>
        <time>2012-07-28T09:12:21Z</time>
      </trkpt>
      <trkpt lat="46.56581" lon="8.3357">
        <ele>2023.23</ele>
        <time>2012-07-28T09:12:24Z</time>
      </trkpt>
      <trkpt lat="46.56555" lon="8.33541">
        <ele>2026.6</ele>
        <time>2012-07-28T09:12:27Z</time>
      </trkpt>
      <trkpt lat="46.56541" lon="8.33397">
        <ele>2037.65</ele>
        <time>2012-07-28T09:12:35Z</time>
      </trkpt>
      <trkpt lat="46.56531" lon="8.33255">
        <ele>2044.86</ele>
        <time>2012-07-28T09:12:45Z</time>
      </trkpt>
      <trkpt lat="46.5651" lon="8.33273">
        <ele>2045.82</ele>
        <time>2012-07-28T09:12:50Z</time>
      </trkpt>
      <trkpt lat="46.56507" lon="8.33366">
        <ele>2053.99</ele>
        <time>2012-07-28T09:12:56Z</time>
      </trkpt>
      <trkpt lat="46.56486" lon="8.33447">
        <ele>2060.72</ele>
        <time>2012-07-28T09:13:00Z</time>
      </trkpt>
      <trkpt lat="46.56461" lon="8.33585">
        <ele>2070.34</ele>
        <time>2012-07-28T09:13:08Z</time>
      </trkpt>
      <trkpt lat="46.56476" lon="8.33652">
        <ele>2071.3</ele>
        <time>2012-07-28T09:13:12Z</time>
      </trkpt>
      <trkpt lat="46.56573" lon="8.33817">
        <ele>2085.24</ele>
        <time>2012-07-28T09:13:23Z</time>
      </trkpt>
      <trkpt lat="46.56605" lon="8.33881">
        <ele>2086.68</ele>
        <time>2012-07-28T09:13:30Z</time>
      </trkpt>
      <trkpt lat="46.56588" lon="8.33896">
        <ele>2087.64</ele>
        <time>2012-07-28T09:13:35Z</time>
      </trkpt>
      <trkpt lat="46.56555" lon="8.33849">
        <ele>2092.93</ele>
        <time>2012-07-28T09:13:40Z</time>
      </trkpt>
      <trkpt lat="46.56496" lon="8.33817">
        <ele>2099.66</ele>
        <time>2012-07-28T09:13:45Z</time>
      </trkpt>
      <trkpt lat="46.56376" lon="8.33774">
        <ele>2108.79</ele>
        <time>2012-07-28T09:13:55Z</time>
      </trkpt>
      <trkpt lat="46.56261" lon="8.33765">
        <ele>2116.96</ele>
        <time>2012-07-28T09:14:05Z</time>
      </trkpt>
      <trkpt lat="46.56233" lon="8.33744">
        <ele>2118.4</ele>
        <time>2012-07-28T09:14:08Z</time>
      </trkpt>
      <trkpt lat="46.56171" lon="8.33655">
        <ele>2127.05</ele>
        <time>2012-07-28T09:14:19Z</time>
      </trkpt>
      <trkpt lat="46.56145" lon="8.33647">
        <ele>2128.98</ele>
        <time>2012-07-28T09:14:25Z</time>
      </trkpt>
      <trkpt lat="46.56119" lon="8.33667">
        <ele>2130.42</ele>
        <time>2012-07-28T09:14:31Z</time>
      </trkpt>
      <trkpt lat="46.56116" lon="8.33724">
        <ele>2131.38</ele>
        <time>2012-07-28T09:14:38Z</time>
      </trkpt>
      <trkpt lat="46.56159" lon="8.33785">
        <ele>2131.38</ele>
        <time>2012-07-28T09:14:51Z</time>
      </trkpt>
      <trkpt lat="46.56276" lon="8.3405">
        <ele>2133.78</ele>
        <time>2012-07-28T09:15:14Z</time>
      </trkpt>
      <trkpt lat="46.56279" lon="8.34064">
        <ele>2132.82</ele>
        <time>2012-07-28T09:15:15Z</time>
      </trkpt>
      <trkpt lat="46.56245" lon="8.34197">
        <ele>2132.34</ele>
        <time>2012-07-28T09:15:24Z</time>
      </trkpt>
      <trkpt lat="46.56246" lon="8.34258">
        <ele>2132.34</ele>
        <time>2012-07-28T09:15:28Z</time>
      </trkpt>
      <trkpt lat="46.56243" lon="8.34357">
        <ele>2130.9</ele>
        <time>2012-07-28T09:15:34Z</time>
      </trkpt>
      <trkpt lat="46.56218" lon="8.34413">
        <ele>2130.9</ele>
        <time>2012-07-28T09:15:39Z</time>
      </trkpt>
      <trkpt lat="46.56172" lon="8.34493">
        <ele>2129.46</ele>
        <time>2012-07-28T09:15:47Z</time>
      </trkpt>
      <trkpt lat="46.56166" lon="8.34542">
        <ele>2128.02</ele>
        <time>2012-07-28T09:15:51Z</time>
      </trkpt>
      <trkpt lat="46.56167" lon="8.34739">
        <ele>2119.36</ele>
        <time>2012-07-28T09:16:05Z</time>
      </trkpt>
      <trkpt lat="46.56184" lon="8.34774">
        <ele>2117.44</ele>
        <time>2012-07-28T09:16:08Z</time>
      </trkpt>
      <trkpt lat="46.56206" lon="8.34791">
        <ele>2116.96</ele>
        <time>2012-07-28T09:16:10Z</time>
      </trkpt>
      <trkpt lat="46.56218" lon="8.34798">
        <ele>2116</ele>
        <time>2012-07-28T09:16:11Z</time>
      </trkpt>
      <trkpt lat="46.56283" lon="8.34845">
        <ele>2108.79</ele>
        <time>2012-07-28T09:16:17Z</time>
      </trkpt>
      <trkpt lat="46.56331" lon="8.34968">
        <ele>2101.58</ele>
        <time>2012-07-28T09:16:25Z</time>
      </trkpt>
      <trkpt lat="46.5639" lon="8.35026">
        <ele>2095.81</ele>
        <time>2012-07-28T09:16:30Z</time>
      </trkpt>
      <trkpt lat="46.5642" lon="8.35075">
        <ele>2094.37</ele>
        <time>2012-07-28T09:16:33Z</time>
      </trkpt>
      <trkpt lat="46.5653" lon="8.35454">
        <ele>2068.41</ele>
        <time>2012-07-28T09:16:54Z</time>
      </trkpt>
      <trkpt lat="46.56643" lon="8.35745">
        <ele>2052.07</ele>
        <time>2012-07-28T09:17:12Z</time>
      </trkpt>
      <trkpt lat="46.5678" lon="8.3594">
        <ele>2033.81</ele>
        <time>2012-07-28T09:17:30Z</time>
      </trkpt>
      <trkpt lat="46.56765" lon="8.35952">
        <ele>2033.33</ele>
        <time>2012-07-28T09:17:34Z</time>
      </trkpt>
      <trkpt lat="46.56748" lon="8.35923">
        <ele>2034.29</ele>
        <time>2012-07-28T09:17:37Z</time>
      </trkpt>
      <trkpt lat="46.56716" lon="8.3587">
        <ele>2032.84</ele>
        <time>2012-07-28T09:17:41Z</time>
      </trkpt>
      <trkpt lat="46.56577" lon="8.35759">
        <ele>2020.35</ele>
        <time>2012-07-28T09:17:53Z</time>
      </trkpt>
      <trkpt lat="46.56481" lon="8.35565">
        <ele>2005.45</ele>
        <time>2012-07-28T09:18:04Z</time>
      </trkpt>
      <trkpt lat="46.56386" lon="8.35423">
        <ele>1993.91</ele>
        <time>2012-07-28T09:18:14Z</time>
      </trkpt>
      <trkpt lat="46.56347" lon="8.35319">
        <ele>1987.18</ele>
        <time>2012-07-28T09:18:20Z</time>
      </trkpt>
      <trkpt lat="46.56319" lon="8.35254">
        <ele>1979.49</ele>
        <time>2012-07-28T09:18:29Z</time>
      </trkpt>
      <trkpt lat="46.56196" lon="8.35142">
        <ele>1968.92</ele>
        <time>2012-07-28T09:20:52Z</time>
      </trkpt>
      <trkpt lat="46.56201" lon="8.35167">
        <ele>1967.96</ele>
        <time>2012-07-28T09:20:57Z</time>
      </trkpt>
      <trkpt lat="46.56221" lon="8.35185">
        <ele>1966.51</ele>
        <time>2012-07-28T09:21:00Z</time>
      </trkpt>
      <trkpt lat="46.56293" lon="8.35303">
        <ele>1957.86</ele>
        <time>2012-07-28T09:21:11Z</time>
      </trkpt>
      <trkpt lat="46.56346" lon="8.35553">
        <ele>1942.96</ele>
        <time>2012-07-28T09:21:25Z</time>
      </trkpt>
      <trkpt lat="46.56404" lon="8.35839">
        <ele>1922.29</ele>
        <time>2012-07-28T09:21:44Z</time>
      </trkpt>
      <trkpt lat="46.56389" lon="8.3583">
        <ele>1921.81</ele>
        <time>2012-07-28T09:21:47Z</time>
      </trkpt>
      <trkpt lat="46.56382" lon="8.35805">
        <ele>1922.77</ele>
        <time>2012-07-28T09:21:49Z</time>
      </trkpt>
      <trkpt lat="46.56379" lon="8.35788">
        <ele>1922.29</ele>
        <time>2012-07-28T09:21:50Z</time>
      </trkpt>
      <trkpt lat="46.56313" lon="8.35618">
        <ele>1913.16</ele>
        <time>2012-07-28T09:21:59Z</time>
      </trkpt>
      <trkpt lat="46.56189" lon="8.35348">
        <ele>1889.61</ele>
        <time>2012-07-28T09:22:14Z</time>
      </trkpt>
      <trkpt lat="46.56098" lon="8.35243">
        <ele>1877.59</ele>
        <time>2012-07-28T09:22:26Z</time>
      </trkpt>
      <trkpt lat="46.56092" lon="8.35269">
        <ele>1876.63</ele>
        <time>2012-07-28T09:22:30Z</time>
      </trkpt>
      <trkpt lat="46.5614" lon="8.35322">
        <ele>1875.67</ele>
        <time>2012-07-28T09:22:36Z</time>
      </trkpt>
      <trkpt lat="46.56172" lon="8.35381">
        <ele>1869.9</ele>
        <time>2012-07-28T09:22:40Z</time>
      </trkpt>
      <trkpt lat="46.56218" lon="8.35547">
        <ele>1861.25</ele>
        <time>2012-07-28T09:22:48Z</time>
      </trkpt>
      <trkpt lat="46.56257" lon="8.35731">
        <ele>1846.83</ele>
        <time>2012-07-28T09:22:57Z</time>
      </trkpt>
      <trkpt lat="46.5626" lon="8.35834">
        <ele>1839.14</ele>
        <time>2012-07-28T09:23:06Z</time>
      </trkpt>
      <trkpt lat="46.56244" lon="8.3582">
        <ele>1839.14</ele>
        <time>2012-07-28T09:23:10Z</time>
      </trkpt>
      <trkpt lat="46.56235" lon="8.35733">
        <ele>1835.77</ele>
        <time>2012-07-28T09:23:15Z</time>
      </trkpt>
      <trkpt lat="46.56212" lon="8.35674">
        <ele>1832.89</ele>
        <time>2012-07-28T09:23:18Z</time>
      </trkpt>
      <trkpt lat="46.56123" lon="8.35477">
        <ele>1817.03</ele>
        <time>2012-07-28T09:23:29Z</time>
      </trkpt>
      <trkpt lat="46.56028" lon="8.3533">
        <ele>1802.61</ele>
        <time>2012-07-28T09:23:42Z</time>
      </trkpt>
      <trkpt lat="46.56011" lon="8.35325">
        <ele>1802.13</ele>
        <time>2012-07-28T09:23:46Z</time>
      </trkpt>
      <trkpt lat="46.56005" lon="8.35338">
        <ele>1801.17</ele>
        <time>2012-07-28T09:23:48Z</time>
      </trkpt>
      <trkpt lat="46.56051" lon="8.35407">
        <ele>1798.76</ele>
        <time>2012-07-28T09:23:56Z</time>
      </trkpt>
      <trkpt lat="46.56077" lon="8.35494">
        <ele>1792.03</ele>
        <time>2012-07-28T09:24:02Z</time>
      </trkpt>
      <trkpt lat="46.56079" lon="8.35595">
        <ele>1785.79</ele>
        <time>2012-07-28T09:24:09Z</time>
      </trkpt>
      <trkpt lat="46.56068" lon="8.35645">
        <ele>1781.94</ele>
        <time>2012-07-28T09:24:13Z</time>
      </trkpt>
      <trkpt lat="46.56079" lon="8.35711">
        <ele>1779.06</ele>
        <time>2012-07-28T09:24:17Z</time>
      </trkpt>
      <trkpt lat="46.56112" lon="8.35867">
        <ele>1768</ele>
        <time>2012-07-28T09:24:26Z</time>
      </trkpt>
      <trkpt lat="46.56117" lon="8.35883">
        <ele>1764.16</ele>
        <time>2012-07-28T09:24:27Z</time>
      </trkpt>
      <trkpt lat="46.5613" lon="8.35913">
        <ele>1763.68</ele>
        <time>2012-07-28T09:24:29Z</time>
      </trkpt>
      <trkpt lat="46.56171" lon="8.35978">
        <ele>1755.99</ele>
        <time>2012-07-28T09:24:34Z</time>
      </trkpt>
      <trkpt lat="46.56178" lon="8.35992">
        <ele>1757.43</ele>
        <time>2012-07-28T09:24:35Z</time>
      </trkpt>
      <trkpt lat="46.56209" lon="8.36062">
        <ele>1751.66</ele>
        <time>2012-07-28T09:24:40Z</time>
      </trkpt>
      <trkpt lat="46.56256" lon="8.36103">
        <ele>1746.37</ele>
        <time>2012-07-28T09:24:47Z</time>
      </trkpt>
      <trkpt lat="46.56223" lon="8.36148">
        <ele>1743.01</ele>
        <time>2012-07-28T09:25:36Z</time>
      </trkpt>
      <trkpt lat="46.56245" lon="8.36255">
        <ele>1745.89</ele>
        <time>2012-07-28T09:25:48Z</time>
      </trkpt>
      <trkpt lat="46.5622" lon="8.36294">
        <ele>1746.85</ele>
        <time>2012-07-28T09:25:52Z</time>
      </trkpt>
      <trkpt lat="46.56199" lon="8.36307">
        <ele>1747.81</ele>
        <time>2012-07-28T09:25:55Z</time>
      </trkpt>
      <trkpt lat="46.56193" lon="8.36305">
        <ele>1747.81</ele>
        <time>2012-07-28T09:25:56Z</time>
      </trkpt>
      <trkpt lat="46.56139" lon="8.36226">
        <ele>1759.83</ele>
        <time>2012-07-28T09:26:03Z</time>
      </trkpt>
      <trkpt lat="46.56086" lon="8.36149">
        <ele>1762.23</ele>
        <time>2012-07-28T09:26:08Z</time>
      </trkpt>
      <trkpt lat="46.56056" lon="8.3604">
        <ele>1770.41</ele>
        <time>2012-07-28T09:26:14Z</time>
      </trkpt>
      <trkpt lat="46.5603" lon="8.35922">
        <ele>1775.21</ele>
        <time>2012-07-28T09:26:20Z</time>
      </trkpt>
      <trkpt lat="46.56011" lon="8.35847">
        <ele>1775.69</ele>
        <time>2012-07-28T09:26:25Z</time>
      </trkpt>
      <trkpt lat="46.55985" lon="8.35838">
        <ele>1777.61</ele>
        <time>2012-07-28T09:26:30Z</time>
      </trkpt>
      <trkpt lat="46.56017" lon="8.35945">
        <ele>1782.9</ele>
        <time>2012-07-28T09:26:39Z</time>
      </trkpt>
      <trkpt lat="46.56023" lon="8.36146">
        <ele>1796.84</ele>
        <time>2012-07-28T09:26:50Z</time>
      </trkpt>
      <trkpt lat="46.56121" lon="8.36352">
        <ele>1811.26</ele>
        <time>2012-07-28T09:27:03Z</time>
      </trkpt>
      <trkpt lat="46.56163" lon="8.36519">
        <ele>1820.87</ele>
        <time>2012-07-28T09:27:12Z</time>
      </trkpt>
      <trkpt lat="46.56187" lon="8.36656">
        <ele>1827.6</ele>
        <time>2012-07-28T09:27:19Z</time>
      </trkpt>
      <trkpt lat="46.56272" lon="8.36835">
        <ele>1832.89</ele>
        <time>2012-07-28T09:27:34Z</time>
      </trkpt>
      <trkpt lat="46.5627" lon="8.36857">
        <ele>1834.33</ele>
        <time>2012-07-28T09:27:37Z</time>
      </trkpt>
      <trkpt lat="46.56255" lon="8.36857">
        <ele>1833.85</ele>
        <time>2012-07-28T09:27:40Z</time>
      </trkpt>
      <trkpt lat="46.5623" lon="8.36788">
        <ele>1839.62</ele>
        <time>2012-07-28T09:27:46Z</time>
      </trkpt>
      <trkpt lat="46.56141" lon="8.36638">
        <ele>1848.75</ele>
        <time>2012-07-28T09:27:58Z</time>
      </trkpt>
      <trkpt lat="46.56117" lon="8.36569">
        <ele>1852.12</ele>
        <time>2012-07-28T09:28:04Z</time>
      </trkpt>
      <trkpt lat="46.56104" lon="8.3642">
        <ele>1857.89</ele>
        <time>2012-07-28T09:28:18Z</time>
      </trkpt>
      <trkpt lat="46.561" lon="8.36418">
        <ele>1858.37</ele>
        <time>2012-07-28T09:28:19Z</time>
      </trkpt>
      <trkpt lat="46.56089" lon="8.36432">
        <ele>1858.85</ele>
        <time>2012-07-28T09:28:22Z</time>
      </trkpt>
      <trkpt lat="46.56093" lon="8.36501">
        <ele>1863.17</ele>
        <time>2012-07-28T09:28:27Z</time>
      </trkpt>
      <trkpt lat="46.5611" lon="8.36656">
        <ele>1870.38</ele>
        <time>2012-07-28T09:28:35Z</time>
      </trkpt>
      <trkpt lat="46.562" lon="8.36915">
        <ele>1887.69</ele>
        <time>2012-07-28T09:28:49Z</time>
      </trkpt>
      <trkpt lat="46.56244" lon="8.36979">
        <ele>1890.09</ele>
        <time>2012-07-28T09:28:53Z</time>
      </trkpt>
      <trkpt lat="46.56322" lon="8.37142">
        <ele>1900.66</ele>
        <time>2012-07-28T09:29:03Z</time>
      </trkpt>
      <trkpt lat="46.56358" lon="8.37285">
        <ele>1910.76</ele>
        <time>2012-07-28T09:29:12Z</time>
      </trkpt>
      <trkpt lat="46.56367" lon="8.37365">
        <ele>1915.08</ele>
        <time>2012-07-28T09:29:16Z</time>
      </trkpt>
      <trkpt lat="46.56414" lon="8.37671">
        <ele>1930.46</ele>
        <time>2012-07-28T09:29:33Z</time>
      </trkpt>
      <trkpt lat="46.56471" lon="8.37901">
        <ele>1941.52</ele>
        <time>2012-07-28T09:29:46Z</time>
      </trkpt>
      <trkpt lat="46.56565" lon="8.38113">
        <ele>1954.5</ele>
        <time>2012-07-28T09:29:59Z</time>
      </trkpt>
      <trkpt lat="46.56679" lon="8.38239">
        <ele>1966.03</ele>
        <time>2012-07-28T09:30:10Z</time>
      </trkpt>
      <trkpt lat="46.56731" lon="8.38351">
        <ele>1973.24</ele>
        <time>2012-07-28T09:30:17Z</time>
      </trkpt>
      <trkpt lat="46.56894" lon="8.38643">
        <ele>1990.55</ele>
        <time>2012-07-28T09:30:34Z</time>
      </trkpt>
      <trkpt lat="46.57019" lon="8.3899">
        <ele>2007.85</ele>
        <time>2012-07-28T09:30:51Z</time>
      </trkpt>
      <trkpt lat="46.57042" lon="8.39213">
        <ele>2018.43</ele>
        <time>2012-07-28T09:31:01Z</time>
      </trkpt>
      <trkpt lat="46.57041" lon="8.39468">
        <ele>2024.67</ele>
        <time>2012-07-28T09:31:12Z</time>
      </trkpt>
      <trkpt lat="46.57038" lon="8.39648">
        <ele>2024.67</ele>
        <time>2012-07-28T09:31:21Z</time>
      </trkpt>
      <trkpt lat="46.57048" lon="8.39685">
        <ele>2026.12</ele>
        <time>2012-07-28T09:31:25Z</time>
      </trkpt>
      <trkpt lat="46.57094" lon="8.39673">
        <ele>2029.48</ele>
        <time>2012-07-28T09:31:30Z</time>
      </trkpt>
      <trkpt lat="46.57135" lon="8.3962">
        <ele>2033.81</ele>
        <time>2012-07-28T09:31:34Z</time>
      </trkpt>
      <trkpt lat="46.57144" lon="8.39602">
        <ele>2034.29</ele>
        <time>2012-07-28T09:31:35Z</time>
      </trkpt>
      <trkpt lat="46.57172" lon="8.39523">
        <ele>2039.57</ele>
        <time>2012-07-28T09:31:39Z</time>
      </trkpt>
      <trkpt lat="46.57195" lon="8.39386">
        <ele>2048.23</ele>
        <time>2012-07-28T09:31:45Z</time>
      </trkpt>
      <trkpt lat="46.57239" lon="8.39219">
        <ele>2054.47</ele>
        <time>2012-07-28T09:31:54Z</time>
      </trkpt>
      <trkpt lat="46.57247" lon="8.39095">
        <ele>2061.68</ele>
        <time>2012-07-28T09:32:01Z</time>
      </trkpt>
      <trkpt lat="46.57265" lon="8.39021">
        <ele>2065.05</ele>
        <time>2012-07-28T09:32:05Z</time>
      </trkpt>
      <trkpt lat="46.57282" lon="8.38923">
        <ele>2067.45</ele>
        <time>2012-07-28T09:32:13Z</time>
      </trkpt>
      <trkpt lat="46.5727" lon="8.39343">
        <ele>2091</ele>
        <time>2012-07-28T09:32:42Z</time>
      </trkpt>
      <trkpt lat="46.57258" lon="8.39573">
        <ele>2101.1</ele>
        <time>2012-07-28T09:32:58Z</time>
      </trkpt>
      <trkpt lat="46.57278" lon="8.39561">
        <ele>2102.54</ele>
        <time>2012-07-28T09:33:02Z</time>
      </trkpt>
      <trkpt lat="46.57282" lon="8.39488">
        <ele>2108.31</ele>
        <time>2012-07-28T09:33:07Z</time>
      </trkpt>
      <trkpt lat="46.57331" lon="8.39112">
        <ele>2127.53</ele>
        <time>2012-07-28T09:33:28Z</time>
      </trkpt>
      <trkpt lat="46.57358" lon="8.39004">
        <ele>2136.19</ele>
        <time>2012-07-28T09:33:34Z</time>
      </trkpt>
      <trkpt lat="46.57398" lon="8.38948">
        <ele>2141.95</ele>
        <time>2012-07-28T09:33:39Z</time>
      </trkpt>
      <trkpt lat="46.5744" lon="8.38849">
        <ele>2150.61</ele>
        <time>2012-07-28T09:33:46Z</time>
      </trkpt>
      <trkpt lat="46.5753" lon="8.38812">
        <ele>2163.58</ele>
        <time>2012-07-28T09:33:54Z</time>
      </trkpt>
      <trkpt lat="46.57624" lon="8.38671">
        <ele>2178</ele>
        <time>2012-07-28T09:34:07Z</time>
      </trkpt>
      <trkpt lat="46.57639" lon="8.38667">
        <ele>2179.45</ele>
        <time>2012-07-28T09:34:10Z</time>
      </trkpt>
      <trkpt lat="46.57639" lon="8.38687">
        <ele>2180.89</ele>
        <time>2012-07-28T09:34:13Z</time>
      </trkpt>
      <trkpt lat="46.57564" lon="8.38861">
        <ele>2196.75</ele>
        <time>2012-07-28T09:34:26Z</time>
      </trkpt>
      <trkpt lat="46.5751" lon="8.38904">
        <ele>2204.44</ele>
        <time>2012-07-28T09:34:32Z</time>
      </trkpt>
      <trkpt lat="46.57428" lon="8.39056">
        <ele>2217.9</ele>
        <time>2012-07-28T09:34:45Z</time>
      </trkpt>
      <trkpt lat="46.57432" lon="8.39075">
        <ele>2219.82</ele>
        <time>2012-07-28T09:34:48Z</time>
      </trkpt>
      <trkpt lat="46.57442" lon="8.39074">
        <ele>2223.19</ele>
        <time>2012-07-28T09:34:50Z</time>
      </trkpt>
      <trkpt lat="46.57527" lon="8.38965">
        <ele>2229.43</ele>
        <time>2012-07-28T09:35:01Z</time>
      </trkpt>
      <trkpt lat="46.576" lon="8.38921">
        <ele>2236.64</ele>
        <time>2012-07-28T09:35:09Z</time>
      </trkpt>
      <trkpt lat="46.57656" lon="8.38835">
        <ele>2247.22</ele>
        <time>2012-07-28T09:35:17Z</time>
      </trkpt>
      <trkpt lat="46.57688" lon="8.38815">
        <ele>2244.82</ele>
        <time>2012-07-28T09:35:23Z</time>
      </trkpt>
      <trkpt lat="46.57642" lon="8.38889">
        <ele>2255.87</ele>
        <time>2012-07-28T09:35:33Z</time>
      </trkpt>
      <trkpt lat="46.57614" lon="8.38965">
        <ele>2256.35</ele>
        <time>2012-07-28T09:35:39Z</time>
      </trkpt>
      <trkpt lat="46.57549" lon="8.39055">
        <ele>2264.52</ele>
        <time>2012-07-28T09:35:47Z</time>
      </trkpt>
      <trkpt lat="46.57501" lon="8.3915">
        <ele>2272.21</ele>
        <time>2012-07-28T09:35:54Z</time>
      </trkpt>
      <trkpt lat="46.57482" lon="8.3926">
        <ele>2279.9</ele>
        <time>2012-07-28T09:36:01Z</time>
      </trkpt>
      <trkpt lat="46.57491" lon="8.39292">
        <ele>2279.9</ele>
        <time>2012-07-28T09:36:05Z</time>
      </trkpt>
      <trkpt lat="46.57504" lon="8.39289">
        <ele>2282.79</ele>
        <time>2012-07-28T09:36:07Z</time>
      </trkpt>
      <trkpt lat="46.57508" lon="8.39283">
        <ele>2282.31</ele>
        <time>2012-07-28T09:36:08Z</time>
      </trkpt>
      <trkpt lat="46.57531" lon="8.39172">
        <ele>2290</ele>
        <time>2012-07-28T09:36:16Z</time>
      </trkpt>
      <trkpt lat="46.57567" lon="8.39121">
        <ele>2295.28</ele>
        <time>2012-07-28T09:36:20Z</time>
      </trkpt>
      <trkpt lat="46.57611" lon="8.39086">
        <ele>2296.73</ele>
        <time>2012-07-28T09:36:26Z</time>
      </trkpt>
      <trkpt lat="46.57604" lon="8.39128">
        <ele>2301.53</ele>
        <time>2012-07-28T09:36:31Z</time>
      </trkpt>
      <trkpt lat="46.57558" lon="8.39205">
        <ele>2306.34</ele>
        <time>2012-07-28T09:36:37Z</time>
      </trkpt>
      <trkpt lat="46.57542" lon="8.39266">
        <ele>2311.15</ele>
        <time>2012-07-28T09:36:41Z</time>
      </trkpt>
      <trkpt lat="46.57545" lon="8.39506">
        <ele>2327.49</ele>
        <time>2012-07-28T09:36:57Z</time>
      </trkpt>
      <trkpt lat="46.57517" lon="8.39709">
        <ele>2340.95</ele>
        <time>2012-07-28T09:37:10Z</time>
      </trkpt>
      <trkpt lat="46.57524" lon="8.39902">
        <ele>2352.96</ele>
        <time>2012-07-28T09:37:22Z</time>
      </trkpt>
      <trkpt lat="46.57476" lon="8.40092">
        <ele>2367.86</ele>
        <time>2012-07-28T09:37:35Z</time>
      </trkpt>
      <trkpt lat="46.57453" lon="8.40189">
        <ele>2372.67</ele>
        <time>2012-07-28T09:37:41Z</time>
      </trkpt>
      <trkpt lat="46.57452" lon="8.40259">
        <ele>2376.52</ele>
        <time>2012-07-28T09:37:45Z</time>
      </trkpt>
      <trkpt lat="46.57451" lon="8.40395">
        <ele>2380.36</ele>
        <time>2012-07-28T09:37:53Z</time>
      </trkpt>
      <trkpt lat="46.57436" lon="8.40433">
        <ele>2381.8</ele>
        <time>2012-07-28T09:37:56Z</time>
      </trkpt>
      <trkpt lat="46.57377" lon="8.40484">
        <ele>2387.09</ele>
        <time>2012-07-28T09:38:02Z</time>
      </trkpt>
      <trkpt lat="46.57318" lon="8.40574">
        <ele>2389.01</ele>
        <time>2012-07-28T09:38:09Z</time>
      </trkpt>
      <trkpt lat="46.57287" lon="8.40702">
        <ele>2391.9</ele>
        <time>2012-07-28T09:38:16Z</time>
      </trkpt>
      <trkpt lat="46.57255" lon="8.40861">
        <ele>2392.86</ele>
        <time>2012-07-28T09:38:25Z</time>
      </trkpt>
      <trkpt lat="46.57181" lon="8.40976">
        <ele>2398.63</ele>
        <time>2012-07-28T09:38:34Z</time>
      </trkpt>
      <trkpt lat="46.57169" lon="8.41021">
        <ele>2398.15</ele>
        <time>2012-07-28T09:38:37Z</time>
      </trkpt>
      <trkpt lat="46.57211" lon="8.4141">
        <ele>2407.28</ele>
        <time>2012-07-28T09:38:57Z</time>
      </trkpt>
      <trkpt lat="46.57245" lon="8.41494">
        <ele>2405.84</ele>
        <time>2012-07-28T09:39:02Z</time>
      </trkpt>
      <trkpt lat="46.57293" lon="8.41548">
        <ele>2412.09</ele>
        <time>2012-07-28T09:39:07Z</time>
      </trkpt>
      <trkpt lat="46.57333" lon="8.41582">
        <ele>2406.32</ele>
        <time>2012-07-28T09:39:11Z</time>
      </trkpt>
      <trkpt lat="46.57377" lon="8.41674">
        <ele>2405.84</ele>
        <time>2012-07-28T09:39:18Z</time>
      </trkpt>
      <trkpt lat="46.57409" lon="8.41805">
        <ele>2405.84</ele>
        <time>2012-07-28T09:39:26Z</time>
      </trkpt>
      <trkpt lat="46.57447" lon="8.41899">
        <ele>2405.36</ele>
        <time>2012-07-28T09:39:32Z</time>
      </trkpt>
      <trkpt lat="46.57481" lon="8.41935">
        <ele>2406.8</ele>
        <time>2012-07-28T09:39:36Z</time>
      </trkpt>
      <trkpt lat="46.57507" lon="8.4196">
        <ele>2404.88</ele>
        <time>2012-07-28T09:39:39Z</time>
      </trkpt>
      <trkpt lat="46.57545" lon="8.42053">
        <ele>2402.95</ele>
        <time>2012-07-28T09:39:47Z</time>
      </trkpt>
      <trkpt lat="46.57598" lon="8.42112">
        <ele>2408.24</ele>
        <time>2012-07-28T09:39:53Z</time>
      </trkpt>
      <trkpt lat="46.57757" lon="8.42372">
        <ele>2394.3</ele>
        <time>2012-07-28T09:40:15Z</time>
      </trkpt>
      <trkpt lat="46.57845" lon="8.42484">
        <ele>2387.09</ele>
        <time>2012-07-28T09:40:26Z</time>
      </trkpt>
      <trkpt lat="46.57889" lon="8.42491">
        <ele>2386.13</ele>
        <time>2012-07-28T09:40:31Z</time>
      </trkpt>
      <trkpt lat="46.5795" lon="8.42524">
        <ele>2375.55</ele>
        <time>2012-07-28T09:40:37Z</time>
      </trkpt>
      <trkpt lat="46.57984" lon="8.4259">
        <ele>2370.75</ele>
        <time>2012-07-28T09:40:43Z</time>
      </trkpt>
      <trkpt lat="46.58008" lon="8.42607">
        <ele>2369.31</ele>
        <time>2012-07-28T09:40:46Z</time>
      </trkpt>
      <trkpt lat="46.5802" lon="8.42615">
        <ele>2365.46</ele>
        <time>2012-07-28T09:40:48Z</time>
      </trkpt>
      <trkpt lat="46.58016" lon="8.42642">
        <ele>2366.9</ele>
        <time>2012-07-28T09:40:52Z</time>
      </trkpt>
      <trkpt lat="46.57977" lon="8.42611">
        <ele>2365.46</ele>
        <time>2012-07-28T09:40:57Z</time>
      </trkpt>
      <trkpt lat="46.57954" lon="8.42571">
        <ele>2359.69</ele>
        <time>2012-07-28T09:41:02Z</time>
      </trkpt>
      <trkpt lat="46.57945" lon="8.42588">
        <ele>2357.77</ele>
        <time>2012-07-28T09:41:06Z</time>
      </trkpt>
      <trkpt lat="46.57992" lon="8.42657">
        <ele>2354.89</ele>
        <time>2012-07-28T09:41:14Z</time>
      </trkpt>
      <trkpt lat="46.58029" lon="8.42703">
        <ele>2348.16</ele>
        <time>2012-07-28T09:41:19Z</time>
      </trkpt>
      <trkpt lat="46.58061" lon="8.4269">
        <ele>2347.68</ele>
        <time>2012-07-28T09:41:24Z</time>
      </trkpt>
      <trkpt lat="46.58093" lon="8.42672">
        <ele>2342.39</ele>
        <time>2012-07-28T09:41:28Z</time>
      </trkpt>
      <trkpt lat="46.58157" lon="8.42746">
        <ele>2334.22</ele>
        <time>2012-07-28T09:41:36Z</time>
      </trkpt>
      <trkpt lat="46.58208" lon="8.42742">
        <ele>2332.78</ele>
        <time>2012-07-28T09:41:41Z</time>
      </trkpt>
      <trkpt lat="46.58257" lon="8.42723">
        <ele>2327.49</ele>
        <time>2012-07-28T09:41:45Z</time>
      </trkpt>
      <trkpt lat="46.5829" lon="8.42731">
        <ele>2322.68</ele>
        <time>2012-07-28T09:41:48Z</time>
      </trkpt>
      <trkpt lat="46.58341" lon="8.42838">
        <ele>2314.03</ele>
        <time>2012-07-28T09:41:56Z</time>
      </trkpt>
      <trkpt lat="46.58377" lon="8.42861">
        <ele>2313.55</ele>
        <time>2012-07-28T09:41:59Z</time>
      </trkpt>
      <trkpt lat="46.58433" lon="8.42885">
        <ele>2307.78</ele>
        <time>2012-07-28T09:42:03Z</time>
      </trkpt>
      <trkpt lat="46.58469" lon="8.42923">
        <ele>2304.42</ele>
        <time>2012-07-28T09:42:06Z</time>
      </trkpt>
      <trkpt lat="46.58543" lon="8.43004">
        <ele>2291.44</ele>
        <time>2012-07-28T09:42:13Z</time>
      </trkpt>
      <trkpt lat="46.58605" lon="8.43038">
        <ele>2289.04</ele>
        <time>2012-07-28T09:42:18Z</time>
      </trkpt>
      <trkpt lat="46.58713" lon="8.43123">
        <ele>2274.14</ele>
        <time>2012-07-28T09:42:27Z</time>
      </trkpt>
      <trkpt lat="46.58778" lon="8.43238">
        <ele>2268.85</ele>
        <time>2012-07-28T09:42:34Z</time>
      </trkpt>
      <trkpt lat="46.58803" lon="8.43285">
        <ele>2261.64</ele>
        <time>2012-07-28T09:42:38Z</time>
      </trkpt>
      <trkpt lat="46.58782" lon="8.43405">
        <ele>2255.87</ele>
        <time>2012-07-28T09:42:45Z</time>
      </trkpt>
      <trkpt lat="46.58723" lon="8.43648">
        <ele>2236.16</ele>
        <time>2012-07-28T09:42:57Z</time>
      </trkpt>
      <trkpt lat="46.58731" lon="8.43801">
        <ele>2226.55</ele>
        <time>2012-07-28T09:43:04Z</time>
      </trkpt>
      <trkpt lat="46.58773" lon="8.43986">
        <ele>2214.05</ele>
        <time>2012-07-28T09:43:12Z</time>
      </trkpt>
      <trkpt lat="46.58804" lon="8.44242">
        <ele>2197.23</ele>
        <time>2012-07-28T09:43:24Z</time>
      </trkpt>
      <trkpt lat="46.58915" lon="8.44541">
        <ele>2179.93</ele>
        <time>2012-07-28T09:43:38Z</time>
      </trkpt>
      <trkpt lat="46.59072" lon="8.45119">
        <ele>2147.24</ele>
        <time>2012-07-28T09:44:08Z</time>
      </trkpt>
      <trkpt lat="46.59158" lon="8.45359">
        <ele>2136.19</ele>
        <time>2012-07-28T09:44:23Z</time>
      </trkpt>
      <trkpt lat="46.59389" lon="8.45515">
        <ele>2124.17</ele>
        <time>2012-07-28T09:44:43Z</time>
      </trkpt>
      <trkpt lat="46.59461" lon="8.45614">
        <ele>2119.36</ele>
        <time>2012-07-28T09:44:51Z</time>
      </trkpt>
      <trkpt lat="46.59481" lon="8.45713">
        <ele>2113.6</ele>
        <time>2012-07-28T09:44:57Z</time>
      </trkpt>
      <trkpt lat="46.59471" lon="8.45765">
        <ele>2111.19</ele>
        <time>2012-07-28T09:45:01Z</time>
      </trkpt>
      <trkpt lat="46.59424" lon="8.45849">
        <ele>2109.75</ele>
        <time>2012-07-28T09:45:07Z</time>
      </trkpt>
      <trkpt lat="46.59397" lon="8.45892">
        <ele>2107.83</ele>
        <time>2012-07-28T09:45:10Z</time>
      </trkpt>
      <trkpt lat="46.59297" lon="8.46125">
        <ele>2092.93</ele>
        <time>2012-07-28T09:45:29Z</time>
      </trkpt>
      <trkpt lat="46.59275" lon="8.46148">
        <ele>2089.08</ele>
        <time>2012-07-28T09:47:01Z</time>
      </trkpt>
      <trkpt lat="46.59275" lon="8.46142">
        <ele>2087.16</ele>
        <time>2012-07-28T09:47:32Z</time>
      </trkpt>
      <trkpt lat="46.59281" lon="8.46163">
        <ele>2091</ele>
        <time>2012-07-28T09:49:20Z</time>
      </trkpt>
      <trkpt lat="46.59281" lon="8.46225">
        <ele>2086.2</ele>
        <time>2012-07-28T09:50:19Z</time>
      </trkpt>
      <trkpt lat="46.59269" lon="8.46188">
        <ele>2096.77</ele>
        <time>2012-07-28T09:57:56Z</time>
      </trkpt>
      <trkpt lat="46.59258" lon="8.46178">
        <ele>2100.14</ele>
        <time>2012-07-28T11:06:04Z</time>
      </trkpt>
      <trkpt lat="46.59271" lon="8.46141">
        <ele>2101.1</ele>
        <time>2012-07-28T11:06:28Z</time>
      </trkpt>
      <trkpt lat="46.59277" lon="8.4614">
        <ele>2101.58</ele>
        <time>2012-07-28T11:09:25Z</time>
      </trkpt>
      <trkpt lat="46.59283" lon="8.46159">
        <ele>2101.1</ele>
        <time>2012-07-28T11:16:16Z</time>
      </trkpt>
      <trkpt lat="46.59279" lon="8.46139">
        <ele>2103.5</ele>
        <time>2012-07-28T11:22:18Z</time>
      </trkpt>
      <trkpt lat="46.59278" lon="8.46151">
        <ele>2103.98</ele>
        <time>2012-07-28T11:23:57Z</time>
      </trkpt>
      <trkpt lat="46.59246" lon="8.46211">
        <ele>2102.54</ele>
        <time>2012-07-28T11:24:04Z</time>
      </trkpt>
      <trkpt lat="46.59236" lon="8.46308">
        <ele>2101.58</ele>
        <time>2012-07-28T11:24:11Z</time>
      </trkpt>
      <trkpt lat="46.59236" lon="8.46365">
        <ele>2100.14</ele>
        <time>2012-07-28T11:24:15Z</time>
      </trkpt>
      <trkpt lat="46.5921" lon="8.46452">
        <ele>2094.85</ele>
        <time>2012-07-28T11:24:22Z</time>
      </trkpt>
      <trkpt lat="46.59196" lon="8.46597">
        <ele>2091.97</ele>
        <time>2012-07-28T11:24:31Z</time>
      </trkpt>
      <trkpt lat="46.59193" lon="8.46672">
        <ele>2089.08</ele>
        <time>2012-07-28T11:24:35Z</time>
      </trkpt>
      <trkpt lat="46.59137" lon="8.47114">
        <ele>2067.45</ele>
        <time>2012-07-28T11:25:01Z</time>
      </trkpt>
      <trkpt lat="46.59101" lon="8.47227">
        <ele>2059.28</ele>
        <time>2012-07-28T11:25:11Z</time>
      </trkpt>
      <trkpt lat="46.59047" lon="8.47246">
        <ele>2054.47</ele>
        <time>2012-07-28T11:25:18Z</time>
      </trkpt>
      <trkpt lat="46.59032" lon="8.47272">
        <ele>2053.51</ele>
        <time>2012-07-28T11:25:21Z</time>
      </trkpt>
      <trkpt lat="46.58979" lon="8.47378">
        <ele>2045.82</ele>
        <time>2012-07-28T11:25:31Z</time>
      </trkpt>
      <trkpt lat="46.58937" lon="8.47537">
        <ele>2037.65</ele>
        <time>2012-07-28T11:25:44Z</time>
      </trkpt>
      <trkpt lat="46.58909" lon="8.47677">
        <ele>2029</ele>
        <time>2012-07-28T11:25:54Z</time>
      </trkpt>
      <trkpt lat="46.5892" lon="8.47865">
        <ele>2016.02</ele>
        <time>2012-07-28T11:26:07Z</time>
      </trkpt>
      <trkpt lat="46.58942" lon="8.47924">
        <ele>2012.18</ele>
        <time>2012-07-28T11:26:12Z</time>
      </trkpt>
      <trkpt lat="46.58991" lon="8.48008">
        <ele>2004.49</ele>
        <time>2012-07-28T11:26:21Z</time>
      </trkpt>
      <trkpt lat="46.58987" lon="8.48032">
        <ele>2003.04</ele>
        <time>2012-07-28T11:26:24Z</time>
      </trkpt>
      <trkpt lat="46.58953" lon="8.48033">
        <ele>2001.12</ele>
        <time>2012-07-28T11:26:29Z</time>
      </trkpt>
      <trkpt lat="46.58875" lon="8.47959">
        <ele>1993.91</ele>
        <time>2012-07-28T11:26:39Z</time>
      </trkpt>
      <trkpt lat="46.5878" lon="8.47777">
        <ele>1977.09</ele>
        <time>2012-07-28T11:26:55Z</time>
      </trkpt>
      <trkpt lat="46.58757" lon="8.47786">
        <ele>1976.13</ele>
        <time>2012-07-28T11:27:00Z</time>
      </trkpt>
      <trkpt lat="46.5875" lon="8.47858">
        <ele>1977.09</ele>
        <time>2012-07-28T11:27:05Z</time>
      </trkpt>
      <trkpt lat="46.58738" lon="8.4793">
        <ele>1974.2</ele>
        <time>2012-07-28T11:27:08Z</time>
      </trkpt>
      <trkpt lat="46.58713" lon="8.48046">
        <ele>1962.19</ele>
        <time>2012-07-28T11:27:14Z</time>
      </trkpt>
      <trkpt lat="46.58728" lon="8.4817">
        <ele>1956.42</ele>
        <time>2012-07-28T11:27:20Z</time>
      </trkpt>
      <trkpt lat="46.58744" lon="8.48262">
        <ele>1946.33</ele>
        <time>2012-07-28T11:27:29Z</time>
      </trkpt>
      <trkpt lat="46.58832" lon="8.48459">
        <ele>1934.31</ele>
        <time>2012-07-28T11:27:44Z</time>
      </trkpt>
      <trkpt lat="46.58929" lon="8.48605">
        <ele>1918.45</ele>
        <time>2012-07-28T11:27:56Z</time>
      </trkpt>
      <trkpt lat="46.58966" lon="8.486">
        <ele>1916.53</ele>
        <time>2012-07-28T11:28:01Z</time>
      </trkpt>
      <trkpt lat="46.58998" lon="8.48575">
        <ele>1912.2</ele>
        <time>2012-07-28T11:28:06Z</time>
      </trkpt>
      <trkpt lat="46.59003" lon="8.48581">
        <ele>1911.24</ele>
        <time>2012-07-28T11:28:07Z</time>
      </trkpt>
      <trkpt lat="46.58992" lon="8.48696">
        <ele>1904.99</ele>
        <time>2012-07-28T11:28:20Z</time>
      </trkpt>
      <trkpt lat="46.5896" lon="8.48716">
        <ele>1902.11</ele>
        <time>2012-07-28T11:28:26Z</time>
      </trkpt>
      <trkpt lat="46.58868" lon="8.48658">
        <ele>1895.86</ele>
        <time>2012-07-28T11:28:36Z</time>
      </trkpt>
      <trkpt lat="46.58789" lon="8.48601">
        <ele>1888.17</ele>
        <time>2012-07-28T11:28:43Z</time>
      </trkpt>
      <trkpt lat="46.5873" lon="8.48532">
        <ele>1881.44</ele>
        <time>2012-07-28T11:28:49Z</time>
      </trkpt>
      <trkpt lat="46.58677" lon="8.48466">
        <ele>1872.79</ele>
        <time>2012-07-28T11:28:56Z</time>
      </trkpt>
      <trkpt lat="46.58663" lon="8.48479">
        <ele>1871.34</ele>
        <time>2012-07-28T11:29:01Z</time>
      </trkpt>
      <trkpt lat="46.58698" lon="8.48531">
        <ele>1870.38</ele>
        <time>2012-07-28T11:29:20Z</time>
      </trkpt>
      <trkpt lat="46.58781" lon="8.4871">
        <ele>1857.89</ele>
        <time>2012-07-28T11:29:33Z</time>
      </trkpt>
      <trkpt lat="46.5882" lon="8.48761">
        <ele>1854.52</ele>
        <time>2012-07-28T11:29:37Z</time>
      </trkpt>
      <trkpt lat="46.58937" lon="8.489">
        <ele>1837.7</ele>
        <time>2012-07-28T11:29:50Z</time>
      </trkpt>
      <trkpt lat="46.58982" lon="8.48867">
        <ele>1836.26</ele>
        <time>2012-07-28T11:29:55Z</time>
      </trkpt>
      <trkpt lat="46.5902" lon="8.48836">
        <ele>1830.97</ele>
        <time>2012-07-28T11:29:58Z</time>
      </trkpt>
      <trkpt lat="46.59052" lon="8.4883">
        <ele>1830.49</ele>
        <time>2012-07-28T11:30:00Z</time>
      </trkpt>
      <trkpt lat="46.59147" lon="8.48796">
        <ele>1817.51</ele>
        <time>2012-07-28T11:30:07Z</time>
      </trkpt>
      <trkpt lat="46.59193" lon="8.48803">
        <ele>1815.59</ele>
        <time>2012-07-28T11:30:10Z</time>
      </trkpt>
      <trkpt lat="46.59219" lon="8.48815">
        <ele>1810.3</ele>
        <time>2012-07-28T11:30:12Z</time>
      </trkpt>
      <trkpt lat="46.59248" lon="8.48813">
        <ele>1806.45</ele>
        <time>2012-07-28T11:30:15Z</time>
      </trkpt>
      <trkpt lat="46.59257" lon="8.48827">
        <ele>1804.53</ele>
        <time>2012-07-28T11:30:18Z</time>
      </trkpt>
      <trkpt lat="46.59168" lon="8.48838">
        <ele>1796.84</ele>
        <time>2012-07-28T11:33:30Z</time>
      </trkpt>
      <trkpt lat="46.59101" lon="8.48897">
        <ele>1792.03</ele>
        <time>2012-07-28T11:33:36Z</time>
      </trkpt>
      <trkpt lat="46.59038" lon="8.48942">
        <ele>1785.79</ele>
        <time>2012-07-28T11:33:41Z</time>
      </trkpt>
      <trkpt lat="46.58988" lon="8.49004">
        <ele>1776.65</ele>
        <time>2012-07-28T11:33:46Z</time>
      </trkpt>
      <trkpt lat="46.58965" lon="8.49015">
        <ele>1775.21</ele>
        <time>2012-07-28T11:33:48Z</time>
      </trkpt>
      <trkpt lat="46.58911" lon="8.49002">
        <ele>1771.85</ele>
        <time>2012-07-28T11:33:52Z</time>
      </trkpt>
      <trkpt lat="46.58828" lon="8.48997">
        <ele>1764.16</ele>
        <time>2012-07-28T11:33:59Z</time>
      </trkpt>
      <trkpt lat="46.5878" lon="8.4894">
        <ele>1757.91</ele>
        <time>2012-07-28T11:34:05Z</time>
      </trkpt>
      <trkpt lat="46.58769" lon="8.48943">
        <ele>1757.43</ele>
        <time>2012-07-28T11:34:07Z</time>
      </trkpt>
      <trkpt lat="46.58768" lon="8.48963">
        <ele>1757.43</ele>
        <time>2012-07-28T11:34:09Z</time>
      </trkpt>
      <trkpt lat="46.58789" lon="8.49001">
        <ele>1757.91</ele>
        <time>2012-07-28T11:34:12Z</time>
      </trkpt>
      <trkpt lat="46.58826" lon="8.49056">
        <ele>1751.18</ele>
        <time>2012-07-28T11:34:16Z</time>
      </trkpt>
      <trkpt lat="46.58858" lon="8.49089">
        <ele>1745.41</ele>
        <time>2012-07-28T11:34:20Z</time>
      </trkpt>
      <trkpt lat="46.58916" lon="8.49077">
        <ele>1743.49</ele>
        <time>2012-07-28T11:34:25Z</time>
      </trkpt>
      <trkpt lat="46.59023" lon="8.49098">
        <ele>1735.32</ele>
        <time>2012-07-28T11:34:31Z</time>
      </trkpt>
      <trkpt lat="46.59091" lon="8.49094">
        <ele>1725.22</ele>
        <time>2012-07-28T11:34:35Z</time>
      </trkpt>
      <trkpt lat="46.59131" lon="8.49115">
        <ele>1720.9</ele>
        <time>2012-07-28T11:34:38Z</time>
      </trkpt>
      <trkpt lat="46.59166" lon="8.49127">
        <ele>1713.21</ele>
        <time>2012-07-28T11:34:42Z</time>
      </trkpt>
      <trkpt lat="46.59163" lon="8.49144">
        <ele>1711.76</ele>
        <time>2012-07-28T11:34:45Z</time>
      </trkpt>
      <trkpt lat="46.59088" lon="8.49156">
        <ele>1711.28</ele>
        <time>2012-07-28T11:34:51Z</time>
      </trkpt>
      <trkpt lat="46.5899" lon="8.49192">
        <ele>1696.38</ele>
        <time>2012-07-28T11:34:58Z</time>
      </trkpt>
      <trkpt lat="46.58952" lon="8.49241">
        <ele>1689.65</ele>
        <time>2012-07-28T11:35:03Z</time>
      </trkpt>
      <trkpt lat="46.58957" lon="8.49267">
        <ele>1687.73</ele>
        <time>2012-07-28T11:35:06Z</time>
      </trkpt>
      <trkpt lat="46.58975" lon="8.49271">
        <ele>1688.21</ele>
        <time>2012-07-28T11:35:08Z</time>
      </trkpt>
      <trkpt lat="46.59023" lon="8.49279">
        <ele>1683.41</ele>
        <time>2012-07-28T11:35:12Z</time>
      </trkpt>
      <trkpt lat="46.59064" lon="8.49322">
        <ele>1679.08</ele>
        <time>2012-07-28T11:35:16Z</time>
      </trkpt>
      <trkpt lat="46.59082" lon="8.49391">
        <ele>1672.83</ele>
        <time>2012-07-28T11:35:20Z</time>
      </trkpt>
      <trkpt lat="46.59067" lon="8.49461">
        <ele>1666.1</ele>
        <time>2012-07-28T11:35:26Z</time>
      </trkpt>
      <trkpt lat="46.59082" lon="8.49465">
        <ele>1665.14</ele>
        <time>2012-07-28T11:35:29Z</time>
      </trkpt>
      <trkpt lat="46.59092" lon="8.49427">
        <ele>1665.14</ele>
        <time>2012-07-28T11:35:33Z</time>
      </trkpt>
      <trkpt lat="46.59116" lon="8.49376">
        <ele>1661.3</ele>
        <time>2012-07-28T11:35:37Z</time>
      </trkpt>
      <trkpt lat="46.59198" lon="8.49372">
        <ele>1656.01</ele>
        <time>2012-07-28T11:35:43Z</time>
      </trkpt>
      <trkpt lat="46.59257" lon="8.49394">
        <ele>1648.32</ele>
        <time>2012-07-28T11:35:47Z</time>
      </trkpt>
      <trkpt lat="46.59348" lon="8.4955">
        <ele>1636.78</ele>
        <time>2012-07-28T11:35:56Z</time>
      </trkpt>
      <trkpt lat="46.59431" lon="8.49672">
        <ele>1624.28</ele>
        <time>2012-07-28T11:36:03Z</time>
      </trkpt>
      <trkpt lat="46.59505" lon="8.49735">
        <ele>1615.15</ele>
        <time>2012-07-28T11:36:09Z</time>
      </trkpt>
      <trkpt lat="46.59547" lon="8.49761">
        <ele>1607.94</ele>
        <time>2012-07-28T11:36:13Z</time>
      </trkpt>
      <trkpt lat="46.59559" lon="8.49866">
        <ele>1602.66</ele>
        <time>2012-07-28T11:36:20Z</time>
      </trkpt>
      <trkpt lat="46.5959" lon="8.49958">
        <ele>1594.96</ele>
        <time>2012-07-28T11:36:25Z</time>
      </trkpt>
      <trkpt lat="46.59668" lon="8.50048">
        <ele>1586.79</ele>
        <time>2012-07-28T11:36:32Z</time>
      </trkpt>
      <trkpt lat="46.5971" lon="8.50129">
        <ele>1575.26</ele>
        <time>2012-07-28T11:36:38Z</time>
      </trkpt>
      <trkpt lat="46.59891" lon="8.50225">
        <ele>1563.72</ele>
        <time>2012-07-28T11:36:59Z</time>
      </trkpt>
      <trkpt lat="46.60021" lon="8.50416">
        <ele>1566.12</ele>
        <time>2012-07-28T11:37:15Z</time>
      </trkpt>
      <trkpt lat="46.60093" lon="8.50585">
        <ele>1565.16</ele>
        <time>2012-07-28T11:37:23Z</time>
      </trkpt>
      <trkpt lat="46.60105" lon="8.50772">
        <ele>1564.2</ele>
        <time>2012-07-28T11:37:30Z</time>
      </trkpt>
      <trkpt lat="46.60128" lon="8.50934">
        <ele>1560.84</ele>
        <time>2012-07-28T11:37:36Z</time>
      </trkpt>
      <trkpt lat="46.60187" lon="8.51186">
        <ele>1556.03</ele>
        <time>2012-07-28T11:37:45Z</time>
      </trkpt>
      <trkpt lat="46.60274" lon="8.51529">
        <ele>1544.98</ele>
        <time>2012-07-28T11:37:58Z</time>
      </trkpt>
      <trkpt lat="46.60971" lon="8.53377">
        <ele>1527.67</ele>
        <time>2012-07-28T11:39:13Z</time>
      </trkpt>
      <trkpt lat="46.61018" lon="8.53502">
        <ele>1523.35</ele>
        <time>2012-07-28T11:39:19Z</time>
      </trkpt>
      <trkpt lat="46.61089" lon="8.53702">
        <ele>1522.87</ele>
        <time>2012-07-28T11:39:32Z</time>
      </trkpt>
      <trkpt lat="46.61088" lon="8.53833">
        <ele>1524.79</ele>
        <time>2012-07-28T11:39:39Z</time>
      </trkpt>
      <trkpt lat="46.61067" lon="8.53958">
        <ele>1525.27</ele>
        <time>2012-07-28T11:39:45Z</time>
      </trkpt>
      <trkpt lat="46.61075" lon="8.54052">
        <ele>1526.71</ele>
        <time>2012-07-28T11:39:49Z</time>
      </trkpt>
      <trkpt lat="46.61428" lon="8.55178">
        <ele>1530.56</ele>
        <time>2012-07-28T11:40:33Z</time>
      </trkpt>
      <trkpt lat="46.61494" lon="8.55424">
        <ele>1528.63</ele>
        <time>2012-07-28T11:40:43Z</time>
      </trkpt>
      <trkpt lat="46.61527" lon="8.55624">
        <ele>1529.59</ele>
        <time>2012-07-28T11:40:51Z</time>
      </trkpt>
      <trkpt lat="46.61588" lon="8.55788">
        <ele>1528.63</ele>
        <time>2012-07-28T11:40:58Z</time>
      </trkpt>
      <trkpt lat="46.61597" lon="8.55906">
        <ele>1529.11</ele>
        <time>2012-07-28T11:41:03Z</time>
      </trkpt>
      <trkpt lat="46.61612" lon="8.56052">
        <ele>1528.63</ele>
        <time>2012-07-28T11:41:09Z</time>
      </trkpt>
      <trkpt lat="46.61783" lon="8.56388">
        <ele>1527.67</ele>
        <time>2012-07-28T11:41:26Z</time>
      </trkpt>
      <trkpt lat="46.618" lon="8.56459">
        <ele>1525.27</ele>
        <time>2012-07-28T11:41:30Z</time>
      </trkpt>
      <trkpt lat="46.61796" lon="8.56543">
        <ele>1523.83</ele>
        <time>2012-07-28T11:41:35Z</time>
      </trkpt>
      <trkpt lat="46.61751" lon="8.56665">
        <ele>1516.62</ele>
        <time>2012-07-28T11:41:52Z</time>
      </trkpt>
      <trkpt lat="46.6186" lon="8.56898">
        <ele>1504.6</ele>
        <time>2012-07-28T11:42:13Z</time>
      </trkpt>
      <trkpt lat="46.6194" lon="8.57026">
        <ele>1496.91</ele>
        <time>2012-07-28T11:42:23Z</time>
      </trkpt>
      <trkpt lat="46.62055" lon="8.57171">
        <ele>1490.66</ele>
        <time>2012-07-28T11:42:36Z</time>
      </trkpt>
      <trkpt lat="46.622" lon="8.57304">
        <ele>1481.05</ele>
        <time>2012-07-28T11:42:50Z</time>
      </trkpt>
      <trkpt lat="46.62283" lon="8.57418">
        <ele>1476.24</ele>
        <time>2012-07-28T11:42:58Z</time>
      </trkpt>
      <trkpt lat="46.62343" lon="8.57542">
        <ele>1472.88</ele>
        <time>2012-07-28T11:43:07Z</time>
      </trkpt>
      <trkpt lat="46.6239" lon="8.57721">
        <ele>1471.92</ele>
        <time>2012-07-28T11:43:19Z</time>
      </trkpt>
      <trkpt lat="46.62419" lon="8.57875">
        <ele>1466.15</ele>
        <time>2012-07-28T11:43:31Z</time>
      </trkpt>
      <trkpt lat="46.62469" lon="8.57976">
        <ele>1466.15</ele>
        <time>2012-07-28T11:43:44Z</time>
      </trkpt>
      <trkpt lat="46.62648" lon="8.58092">
        <ele>1460.86</ele>
        <time>2012-07-28T11:44:19Z</time>
      </trkpt>
      <trkpt lat="46.62818" lon="8.58336">
        <ele>1467.11</ele>
        <time>2012-07-28T11:44:46Z</time>
      </trkpt>
      <trkpt lat="46.63047" lon="8.58678">
        <ele>1457.02</ele>
        <time>2012-07-28T11:45:18Z</time>
      </trkpt>
      <trkpt lat="46.63059" lon="8.58756">
        <ele>1460.38</ele>
        <time>2012-07-28T11:45:24Z</time>
      </trkpt>
      <trkpt lat="46.63337" lon="8.5959">
        <ele>1462.78</ele>
        <time>2012-07-28T11:47:10Z</time>
      </trkpt>
      <trkpt lat="46.63377" lon="8.59763">
        <ele>1466.63</ele>
        <time>2012-07-28T11:47:43Z</time>
      </trkpt>
      <trkpt lat="46.63403" lon="8.59757">
        <ele>1465.19</ele>
        <time>2012-07-28T11:47:57Z</time>
      </trkpt>
      <trkpt lat="46.63457" lon="8.59659">
        <ele>1464.23</ele>
        <time>2012-07-28T11:48:22Z</time>
      </trkpt>
      <trkpt lat="46.63472" lon="8.59646">
        <ele>1462.78</ele>
        <time>2012-07-28T11:48:26Z</time>
      </trkpt>
      <trkpt lat="46.63549" lon="8.59683">
        <ele>1468.07</ele>
        <time>2012-07-28T11:48:38Z</time>
      </trkpt>
      <trkpt lat="46.63548" lon="8.59709">
        <ele>1469.03</ele>
        <time>2012-07-28T11:48:41Z</time>
      </trkpt>
      <trkpt lat="46.6352" lon="8.59736">
        <ele>1474.8</ele>
        <time>2012-07-28T11:48:46Z</time>
      </trkpt>
      <trkpt lat="46.63464" lon="8.5976">
        <ele>1479.13</ele>
        <time>2012-07-28T11:48:53Z</time>
      </trkpt>
      <trkpt lat="46.63453" lon="8.59824">
        <ele>1484.41</ele>
        <time>2012-07-28T11:48:58Z</time>
      </trkpt>
      <trkpt lat="46.63483" lon="8.59908">
        <ele>1492.1</ele>
        <time>2012-07-28T11:49:04Z</time>
      </trkpt>
      <trkpt lat="46.63552" lon="8.59978">
        <ele>1498.35</ele>
        <time>2012-07-28T11:49:11Z</time>
      </trkpt>
      <trkpt lat="46.63561" lon="8.6003">
        <ele>1502.68</ele>
        <time>2012-07-28T11:49:14Z</time>
      </trkpt>
      <trkpt lat="46.63548" lon="8.60087">
        <ele>1506.04</ele>
        <time>2012-07-28T11:49:17Z</time>
      </trkpt>
      <trkpt lat="46.63536" lon="8.60159">
        <ele>1508.93</ele>
        <time>2012-07-28T11:49:21Z</time>
      </trkpt>
      <trkpt lat="46.63548" lon="8.60205">
        <ele>1512.77</ele>
        <time>2012-07-28T11:49:24Z</time>
      </trkpt>
      <trkpt lat="46.6358" lon="8.60232">
        <ele>1516.14</ele>
        <time>2012-07-28T11:49:27Z</time>
      </trkpt>
      <trkpt lat="46.63617" lon="8.60222">
        <ele>1519.98</ele>
        <time>2012-07-28T11:49:30Z</time>
      </trkpt>
      <trkpt lat="46.63647" lon="8.6018">
        <ele>1523.83</ele>
        <time>2012-07-28T11:49:33Z</time>
      </trkpt>
      <trkpt lat="46.63663" lon="8.60118">
        <ele>1530.56</ele>
        <time>2012-07-28T11:49:36Z</time>
      </trkpt>
      <trkpt lat="46.63686" lon="8.59984">
        <ele>1532</ele>
        <time>2012-07-28T11:49:43Z</time>
      </trkpt>
      <trkpt lat="46.63717" lon="8.59961">
        <ele>1534.4</ele>
        <time>2012-07-28T11:49:46Z</time>
      </trkpt>
      <trkpt lat="46.63747" lon="8.59984">
        <ele>1537.77</ele>
        <time>2012-07-28T11:49:49Z</time>
      </trkpt>
      <trkpt lat="46.63755" lon="8.60038">
        <ele>1539.21</ele>
        <time>2012-07-28T11:49:52Z</time>
      </trkpt>
      <trkpt lat="46.63741" lon="8.60095">
        <ele>1542.57</ele>
        <time>2012-07-28T11:49:55Z</time>
      </trkpt>
      <trkpt lat="46.63638" lon="8.60367">
        <ele>1562.28</ele>
        <time>2012-07-28T11:50:09Z</time>
      </trkpt>
      <trkpt lat="46.6361" lon="8.60522">
        <ele>1569.49</ele>
        <time>2012-07-28T11:50:16Z</time>
      </trkpt>
      <trkpt lat="46.63587" lon="8.60577">
        <ele>1573.82</ele>
        <time>2012-07-28T11:50:19Z</time>
      </trkpt>
      <trkpt lat="46.63547" lon="8.60637">
        <ele>1574.78</ele>
        <time>2012-07-28T11:50:24Z</time>
      </trkpt>
      <trkpt lat="46.6355" lon="8.60679">
        <ele>1576.22</ele>
        <time>2012-07-28T11:50:27Z</time>
      </trkpt>
      <trkpt lat="46.63578" lon="8.60693">
        <ele>1579.58</ele>
        <time>2012-07-28T11:50:30Z</time>
      </trkpt>
      <trkpt lat="46.63604" lon="8.60657">
        <ele>1582.95</ele>
        <time>2012-07-28T11:50:33Z</time>
      </trkpt>
      <trkpt lat="46.63695" lon="8.60412">
        <ele>1598.33</ele>
        <time>2012-07-28T11:50:47Z</time>
      </trkpt>
      <trkpt lat="46.63851" lon="8.60175">
        <ele>1617.07</ele>
        <time>2012-07-28T11:51:01Z</time>
      </trkpt>
      <trkpt lat="46.63929" lon="8.60108">
        <ele>1619.96</ele>
        <time>2012-07-28T11:51:08Z</time>
      </trkpt>
      <trkpt lat="46.63948" lon="8.60108">
        <ele>1620.92</ele>
        <time>2012-07-28T11:51:10Z</time>
      </trkpt>
      <trkpt lat="46.63968" lon="8.60131">
        <ele>1621.4</ele>
        <time>2012-07-28T11:51:13Z</time>
      </trkpt>
      <trkpt lat="46.63958" lon="8.6016">
        <ele>1632.94</ele>
        <time>2012-07-28T11:51:25Z</time>
      </trkpt>
      <trkpt lat="46.63821" lon="8.60307">
        <ele>1636.3</ele>
        <time>2012-07-28T11:51:28Z</time>
      </trkpt>
      <trkpt lat="46.63746" lon="8.60474">
        <ele>1647.84</ele>
        <time>2012-07-28T11:51:37Z</time>
      </trkpt>
      <trkpt lat="46.63738" lon="8.60559">
        <ele>1651.2</ele>
        <time>2012-07-28T11:51:41Z</time>
      </trkpt>
      <trkpt lat="46.63791" lon="8.60731">
        <ele>1662.74</ele>
        <time>2012-07-28T11:51:50Z</time>
      </trkpt>
      <trkpt lat="46.63781" lon="8.60836">
        <ele>1669.47</ele>
        <time>2012-07-28T11:51:55Z</time>
      </trkpt>
      <trkpt lat="46.63767" lon="8.60875">
        <ele>1671.39</ele>
        <time>2012-07-28T11:51:57Z</time>
      </trkpt>
      <trkpt lat="46.63743" lon="8.6096">
        <ele>1673.31</ele>
        <time>2012-07-28T11:52:03Z</time>
      </trkpt>
      <trkpt lat="46.63761" lon="8.6098">
        <ele>1674.27</ele>
        <time>2012-07-28T11:52:06Z</time>
      </trkpt>
      <trkpt lat="46.63786" lon="8.60964">
        <ele>1677.16</ele>
        <time>2012-07-28T11:52:09Z</time>
      </trkpt>
      <trkpt lat="46.63805" lon="8.60879">
        <ele>1680.04</ele>
        <time>2012-07-28T11:52:14Z</time>
      </trkpt>
      <trkpt lat="46.63857" lon="8.60776">
        <ele>1688.21</ele>
        <time>2012-07-28T11:52:21Z</time>
      </trkpt>
      <trkpt lat="46.63893" lon="8.60601">
        <ele>1700.71</ele>
        <time>2012-07-28T11:52:30Z</time>
      </trkpt>
      <trkpt lat="46.63937" lon="8.60391">
        <ele>1714.17</ele>
        <time>2012-07-28T11:52:40Z</time>
      </trkpt>
      <trkpt lat="46.63968" lon="8.60308">
        <ele>1716.09</ele>
        <time>2012-07-28T11:52:45Z</time>
      </trkpt>
      <trkpt lat="46.63983" lon="8.60297">
        <ele>1716.57</ele>
        <time>2012-07-28T11:52:47Z</time>
      </trkpt>
      <trkpt lat="46.63998" lon="8.60321">
        <ele>1718.49</ele>
        <time>2012-07-28T11:52:50Z</time>
      </trkpt>
      <trkpt lat="46.63991" lon="8.60367">
        <ele>1721.38</ele>
        <time>2012-07-28T11:52:53Z</time>
      </trkpt>
      <trkpt lat="46.63967" lon="8.60505">
        <ele>1730.03</ele>
        <time>2012-07-28T11:53:01Z</time>
      </trkpt>
      <trkpt lat="46.63969" lon="8.606">
        <ele>1737.24</ele>
        <time>2012-07-28T11:53:05Z</time>
      </trkpt>
      <trkpt lat="46.63974" lon="8.60728">
        <ele>1745.41</ele>
        <time>2012-07-28T11:53:10Z</time>
      </trkpt>
      <trkpt lat="46.63965" lon="8.60957">
        <ele>1758.87</ele>
        <time>2012-07-28T11:53:19Z</time>
      </trkpt>
      <trkpt lat="46.63982" lon="8.61073">
        <ele>1765.12</ele>
        <time>2012-07-28T11:53:24Z</time>
      </trkpt>
      <trkpt lat="46.64001" lon="8.61144">
        <ele>1767.52</ele>
        <time>2012-07-28T11:53:28Z</time>
      </trkpt>
      <trkpt lat="46.64027" lon="8.61165">
        <ele>1768.96</ele>
        <time>2012-07-28T11:53:31Z</time>
      </trkpt>
      <trkpt lat="46.64037" lon="8.61162">
        <ele>1768.96</ele>
        <time>2012-07-28T11:53:32Z</time>
      </trkpt>
      <trkpt lat="46.64053" lon="8.6114">
        <ele>1770.41</ele>
        <time>2012-07-28T11:53:34Z</time>
      </trkpt>
      <trkpt lat="46.64055" lon="8.61082">
        <ele>1774.73</ele>
        <time>2012-07-28T11:53:37Z</time>
      </trkpt>
      <trkpt lat="46.64065" lon="8.60996">
        <ele>1780.5</ele>
        <time>2012-07-28T11:53:41Z</time>
      </trkpt>
      <trkpt lat="46.64087" lon="8.60929">
        <ele>1786.75</ele>
        <time>2012-07-28T11:53:44Z</time>
      </trkpt>
      <trkpt lat="46.64074" lon="8.60783">
        <ele>1790.59</ele>
        <time>2012-07-28T11:53:51Z</time>
      </trkpt>
      <trkpt lat="46.6409" lon="8.60761">
        <ele>1792.03</ele>
        <time>2012-07-28T11:53:54Z</time>
      </trkpt>
      <trkpt lat="46.64111" lon="8.60808">
        <ele>1795.88</ele>
        <time>2012-07-28T11:53:58Z</time>
      </trkpt>
      <trkpt lat="46.64119" lon="8.60845">
        <ele>1798.28</ele>
        <time>2012-07-28T11:54:00Z</time>
      </trkpt>
      <trkpt lat="46.64162" lon="8.6097">
        <ele>1805.97</ele>
        <time>2012-07-28T11:54:07Z</time>
      </trkpt>
      <trkpt lat="46.6417" lon="8.61145">
        <ele>1816.55</ele>
        <time>2012-07-28T11:54:16Z</time>
      </trkpt>
      <trkpt lat="46.64223" lon="8.61709">
        <ele>1848.75</ele>
        <time>2012-07-28T11:54:50Z</time>
      </trkpt>
      <trkpt lat="46.64286" lon="8.62007">
        <ele>1860.77</ele>
        <time>2012-07-28T11:55:04Z</time>
      </trkpt>
      <trkpt lat="46.64515" lon="8.6252">
        <ele>1886.72</ele>
        <time>2012-07-28T11:55:28Z</time>
      </trkpt>
      <trkpt lat="46.64642" lon="8.62667">
        <ele>1898.74</ele>
        <time>2012-07-28T11:55:37Z</time>
      </trkpt>
      <trkpt lat="46.64984" lon="8.63147">
        <ele>1929.5</ele>
        <time>2012-07-28T11:56:07Z</time>
      </trkpt>
      <trkpt lat="46.65057" lon="8.63234">
        <ele>1938.16</ele>
        <time>2012-07-28T11:56:13Z</time>
      </trkpt>
      <trkpt lat="46.6519" lon="8.63377">
        <ele>1951.13</ele>
        <time>2012-07-28T11:56:23Z</time>
      </trkpt>
      <trkpt lat="46.65268" lon="8.63483">
        <ele>1957.38</ele>
        <time>2012-07-28T11:56:29Z</time>
      </trkpt>
      <trkpt lat="46.6539" lon="8.63717">
        <ele>1969.88</ele>
        <time>2012-07-28T11:56:40Z</time>
      </trkpt>
      <trkpt lat="46.65486" lon="8.63796">
        <ele>1973.72</ele>
        <time>2012-07-28T11:56:46Z</time>
      </trkpt>
      <trkpt lat="46.65523" lon="8.63854">
        <ele>1977.09</ele>
        <time>2012-07-28T11:56:49Z</time>
      </trkpt>
      <trkpt lat="46.65626" lon="8.64239">
        <ele>1995.83</ele>
        <time>2012-07-28T11:57:04Z</time>
      </trkpt>
      <trkpt lat="46.65688" lon="8.64411">
        <ele>1999.68</ele>
        <time>2012-07-28T11:57:11Z</time>
      </trkpt>
      <trkpt lat="46.65714" lon="8.646">
        <ele>2008.81</ele>
        <time>2012-07-28T11:57:18Z</time>
      </trkpt>
      <trkpt lat="46.65779" lon="8.64824">
        <ele>2015.06</ele>
        <time>2012-07-28T11:57:27Z</time>
      </trkpt>
      <trkpt lat="46.65785" lon="8.65032">
        <ele>2023.71</ele>
        <time>2012-07-28T11:57:35Z</time>
      </trkpt>
      <trkpt lat="46.65879" lon="8.65302">
        <ele>2028.52</ele>
        <time>2012-07-28T11:57:46Z</time>
      </trkpt>
      <trkpt lat="46.6599" lon="8.65661">
        <ele>2026.12</ele>
        <time>2012-07-28T11:58:00Z</time>
      </trkpt>
      <trkpt lat="46.66045" lon="8.65897">
        <ele>2029</ele>
        <time>2012-07-28T11:58:15Z</time>
      </trkpt>
      <trkpt lat="46.66179" lon="8.6664">
        <ele>2026.12</ele>
        <time>2012-07-28T11:58:38Z</time>
      </trkpt>
      <trkpt lat="46.66157" lon="8.66876">
        <ele>2025.64</ele>
        <time>2012-07-28T11:58:49Z</time>
      </trkpt>
      <trkpt lat="46.66128" lon="8.66962">
        <ele>2027.56</ele>
        <time>2012-07-28T11:58:53Z</time>
      </trkpt>
      <trkpt lat="46.66118" lon="8.66982">
        <ele>2027.56</ele>
        <time>2012-07-28T11:58:54Z</time>
      </trkpt>
      <trkpt lat="46.66019" lon="8.67112">
        <ele>2031.88</ele>
        <time>2012-07-28T11:59:02Z</time>
      </trkpt>
      <trkpt lat="46.65979" lon="8.6713">
        <ele>2032.84</ele>
        <time>2012-07-28T11:59:05Z</time>
      </trkpt>
      <trkpt lat="46.65925" lon="8.67116">
        <ele>2035.25</ele>
        <time>2012-07-28T11:59:09Z</time>
      </trkpt>
      <trkpt lat="46.65871" lon="8.67121">
        <ele>2034.77</ele>
        <time>2012-07-28T11:59:14Z</time>
      </trkpt>
      <trkpt lat="46.65854" lon="8.67148">
        <ele>2033.81</ele>
        <time>2012-07-28T11:59:17Z</time>
      </trkpt>
      <trkpt lat="46.65831" lon="8.67329">
        <ele>2022.75</ele>
        <time>2012-07-28T11:59:27Z</time>
      </trkpt>
      <trkpt lat="46.65719" lon="8.67414">
        <ele>2012.18</ele>
        <time>2012-07-28T11:59:37Z</time>
      </trkpt>
      <trkpt lat="46.65638" lon="8.67638">
        <ele>1997.76</ele>
        <time>2012-07-28T11:59:50Z</time>
      </trkpt>
      <trkpt lat="46.65594" lon="8.67703">
        <ele>1992.47</ele>
        <time>2012-07-28T11:59:55Z</time>
      </trkpt>
      <trkpt lat="46.65563" lon="8.67714">
        <ele>1988.62</ele>
        <time>2012-07-28T11:59:58Z</time>
      </trkpt>
      <trkpt lat="46.65532" lon="8.67689">
        <ele>1986.7</ele>
        <time>2012-07-28T12:00:01Z</time>
      </trkpt>
      <trkpt lat="46.65501" lon="8.67662">
        <ele>1982.86</ele>
        <time>2012-07-28T12:00:04Z</time>
      </trkpt>
      <trkpt lat="46.65475" lon="8.67663">
        <ele>1980.45</ele>
        <time>2012-07-28T12:00:07Z</time>
      </trkpt>
      <trkpt lat="46.65436" lon="8.678">
        <ele>1972.28</ele>
        <time>2012-07-28T12:03:25Z</time>
      </trkpt>
      <trkpt lat="46.65366" lon="8.67908">
        <ele>1961.71</ele>
        <time>2012-07-28T12:03:34Z</time>
      </trkpt>
      <trkpt lat="46.65339" lon="8.67938">
        <ele>1956.9</ele>
        <time>2012-07-28T12:03:40Z</time>
      </trkpt>
      <trkpt lat="46.65346" lon="8.67904">
        <ele>1956.42</ele>
        <time>2012-07-28T12:03:45Z</time>
      </trkpt>
      <trkpt lat="46.65387" lon="8.67815">
        <ele>1948.73</ele>
        <time>2012-07-28T12:03:53Z</time>
      </trkpt>
      <trkpt lat="46.6538" lon="8.67797">
        <ele>1947.77</ele>
        <time>2012-07-28T12:03:56Z</time>
      </trkpt>
      <trkpt lat="46.65368" lon="8.6781">
        <ele>1948.25</ele>
        <time>2012-07-28T12:03:58Z</time>
      </trkpt>
      <trkpt lat="46.65296" lon="8.67946">
        <ele>1940.56</ele>
        <time>2012-07-28T12:04:08Z</time>
      </trkpt>
      <trkpt lat="46.65283" lon="8.67978">
        <ele>1936.71</ele>
        <time>2012-07-28T12:04:10Z</time>
      </trkpt>
      <trkpt lat="46.65233" lon="8.68165">
        <ele>1922.29</ele>
        <time>2012-07-28T12:04:24Z</time>
      </trkpt>
      <trkpt lat="46.65223" lon="8.68161">
        <ele>1921.33</ele>
        <time>2012-07-28T12:04:27Z</time>
      </trkpt>
      <trkpt lat="46.65235" lon="8.68074">
        <ele>1918.93</ele>
        <time>2012-07-28T12:04:34Z</time>
      </trkpt>
      <trkpt lat="46.65223" lon="8.67954">
        <ele>1911.24</ele>
        <time>2012-07-28T12:04:43Z</time>
      </trkpt>
      <trkpt lat="46.65208" lon="8.67945">
        <ele>1910.28</ele>
        <time>2012-07-28T12:04:47Z</time>
      </trkpt>
      <trkpt lat="46.65192" lon="8.68109">
        <ele>1905.47</ele>
        <time>2012-07-28T12:04:56Z</time>
      </trkpt>
      <trkpt lat="46.65119" lon="8.68407">
        <ele>1884.32</ele>
        <time>2012-07-28T12:05:14Z</time>
      </trkpt>
      <trkpt lat="46.6511" lon="8.68408">
        <ele>1883.36</ele>
        <time>2012-07-28T12:05:16Z</time>
      </trkpt>
      <trkpt lat="46.65101" lon="8.68372">
        <ele>1884.8</ele>
        <time>2012-07-28T12:05:19Z</time>
      </trkpt>
      <trkpt lat="46.65099" lon="8.68353">
        <ele>1884.8</ele>
        <time>2012-07-28T12:05:20Z</time>
      </trkpt>
      <trkpt lat="46.65094" lon="8.68256">
        <ele>1880.96</ele>
        <time>2012-07-28T12:05:24Z</time>
      </trkpt>
      <trkpt lat="46.65109" lon="8.68119">
        <ele>1867.98</ele>
        <time>2012-07-28T12:05:31Z</time>
      </trkpt>
      <trkpt lat="46.65105" lon="8.68102">
        <ele>1867.5</ele>
        <time>2012-07-28T12:05:33Z</time>
      </trkpt>
      <trkpt lat="46.65094" lon="8.68107">
        <ele>1867.5</ele>
        <time>2012-07-28T12:05:35Z</time>
      </trkpt>
      <trkpt lat="46.65074" lon="8.68199">
        <ele>1866.54</ele>
        <time>2012-07-28T12:05:40Z</time>
      </trkpt>
      <trkpt lat="46.65035" lon="8.68316">
        <ele>1858.37</ele>
        <time>2012-07-28T12:05:46Z</time>
      </trkpt>
      <trkpt lat="46.65018" lon="8.68403">
        <ele>1852.12</ele>
        <time>2012-07-28T12:05:51Z</time>
      </trkpt>
      <trkpt lat="46.65029" lon="8.68562">
        <ele>1841.54</ele>
        <time>2012-07-28T12:06:03Z</time>
      </trkpt>
      <trkpt lat="46.65018" lon="8.68556">
        <ele>1840.1</ele>
        <time>2012-07-28T12:06:06Z</time>
      </trkpt>
      <trkpt lat="46.65012" lon="8.68471">
        <ele>1837.7</ele>
        <time>2012-07-28T12:06:12Z</time>
      </trkpt>
      <trkpt lat="46.64989" lon="8.68352">
        <ele>1829.53</ele>
        <time>2012-07-28T12:06:21Z</time>
      </trkpt>
      <trkpt lat="46.6497" lon="8.6835">
        <ele>1829.53</ele>
        <time>2012-07-28T12:06:25Z</time>
      </trkpt>
      <trkpt lat="46.6498" lon="8.68491">
        <ele>1825.68</ele>
        <time>2012-07-28T12:06:33Z</time>
      </trkpt>
      <trkpt lat="46.64981" lon="8.68628">
        <ele>1816.55</ele>
        <time>2012-07-28T12:06:39Z</time>
      </trkpt>
      <trkpt lat="46.64996" lon="8.68754">
        <ele>1805.01</ele>
        <time>2012-07-28T12:06:50Z</time>
      </trkpt>
      <trkpt lat="46.64978" lon="8.6869">
        <ele>1804.05</ele>
        <time>2012-07-28T12:06:56Z</time>
      </trkpt>
      <trkpt lat="46.64957" lon="8.68633">
        <ele>1798.76</ele>
        <time>2012-07-28T12:07:00Z</time>
      </trkpt>
      <trkpt lat="46.64932" lon="8.68615">
        <ele>1797.32</ele>
        <time>2012-07-28T12:07:03Z</time>
      </trkpt>
      <trkpt lat="46.64877" lon="8.68637">
        <ele>1792.03</ele>
        <time>2012-07-28T12:07:08Z</time>
      </trkpt>
      <trkpt lat="46.6486" lon="8.68669">
        <ele>1789.63</ele>
        <time>2012-07-28T12:07:11Z</time>
      </trkpt>
      <trkpt lat="46.6488" lon="8.68724">
        <ele>1786.75</ele>
        <time>2012-07-28T12:07:15Z</time>
      </trkpt>
      <trkpt lat="46.64916" lon="8.68769">
        <ele>1780.5</ele>
        <time>2012-07-28T12:07:19Z</time>
      </trkpt>
      <trkpt lat="46.64923" lon="8.68798">
        <ele>1778.1</ele>
        <time>2012-07-28T12:07:21Z</time>
      </trkpt>
      <trkpt lat="46.64907" lon="8.69146">
        <ele>1759.83</ele>
        <time>2012-07-28T12:07:37Z</time>
      </trkpt>
      <trkpt lat="46.64934" lon="8.6931">
        <ele>1745.89</ele>
        <time>2012-07-28T12:07:46Z</time>
      </trkpt>
      <trkpt lat="46.64965" lon="8.69326">
        <ele>1743.49</ele>
        <time>2012-07-28T12:07:50Z</time>
      </trkpt>
      <trkpt lat="46.65004" lon="8.69315">
        <ele>1739.16</ele>
        <time>2012-07-28T12:07:54Z</time>
      </trkpt>
      <trkpt lat="46.65019" lon="8.69334">
        <ele>1737.72</ele>
        <time>2012-07-28T12:07:56Z</time>
      </trkpt>
      <trkpt lat="46.65093" lon="8.69583">
        <ele>1724.74</ele>
        <time>2012-07-28T12:08:11Z</time>
      </trkpt>
      <trkpt lat="46.6519" lon="8.69602">
        <ele>1715.61</ele>
        <time>2012-07-28T12:08:22Z</time>
      </trkpt>
      <trkpt lat="46.65235" lon="8.69661">
        <ele>1713.69</ele>
        <time>2012-07-28T12:08:27Z</time>
      </trkpt>
      <trkpt lat="46.65334" lon="8.69818">
        <ele>1703.59</ele>
        <time>2012-07-28T12:08:37Z</time>
      </trkpt>
      <trkpt lat="46.65343" lon="8.69835">
        <ele>1702.15</ele>
        <time>2012-07-28T12:08:38Z</time>
      </trkpt>
      <trkpt lat="46.65386" lon="8.69991">
        <ele>1693.5</ele>
        <time>2012-07-28T12:08:46Z</time>
      </trkpt>
      <trkpt lat="46.65389" lon="8.70099">
        <ele>1686.29</ele>
        <time>2012-07-28T12:08:52Z</time>
      </trkpt>
      <trkpt lat="46.65418" lon="8.70149">
        <ele>1683.41</ele>
        <time>2012-07-28T12:08:56Z</time>
      </trkpt>
      <trkpt lat="46.65457" lon="8.70191">
        <ele>1678.6</ele>
        <time>2012-07-28T12:09:00Z</time>
      </trkpt>
      <trkpt lat="46.65468" lon="8.70226">
        <ele>1678.12</ele>
        <time>2012-07-28T12:09:02Z</time>
      </trkpt>
      <trkpt lat="46.65487" lon="8.70485">
        <ele>1669.47</ele>
        <time>2012-07-28T12:09:13Z</time>
      </trkpt>
      <trkpt lat="46.65493" lon="8.70647">
        <ele>1660.81</ele>
        <time>2012-07-28T12:09:20Z</time>
      </trkpt>
      <trkpt lat="46.65525" lon="8.70878">
        <ele>1650.24</ele>
        <time>2012-07-28T12:09:34Z</time>
      </trkpt>
      <trkpt lat="46.65588" lon="8.71008">
        <ele>1644.95</ele>
        <time>2012-07-28T12:09:45Z</time>
      </trkpt>
      <trkpt lat="46.65682" lon="8.71142">
        <ele>1636.3</ele>
        <time>2012-07-28T12:09:55Z</time>
      </trkpt>
      <trkpt lat="46.65739" lon="8.7129">
        <ele>1629.09</ele>
        <time>2012-07-28T12:10:04Z</time>
      </trkpt>
      <trkpt lat="46.65834" lon="8.71427">
        <ele>1625.73</ele>
        <time>2012-07-28T12:10:11Z</time>
      </trkpt>
      <trkpt lat="46.65928" lon="8.71618">
        <ele>1613.71</ele>
        <time>2012-07-28T12:10:19Z</time>
      </trkpt>
      <trkpt lat="46.65974" lon="8.71702">
        <ele>1605.54</ele>
        <time>2012-07-28T12:10:23Z</time>
      </trkpt>
      <trkpt lat="46.66063" lon="8.71917">
        <ele>1599.29</ele>
        <time>2012-07-28T12:10:32Z</time>
      </trkpt>
      <trkpt lat="46.66194" lon="8.72281">
        <ele>1572.37</ele>
        <time>2012-07-28T12:10:47Z</time>
      </trkpt>
      <trkpt lat="46.66263" lon="8.72783">
        <ele>1546.9</ele>
        <time>2012-07-28T12:11:12Z</time>
      </trkpt>
      <trkpt lat="46.66378" lon="8.73289">
        <ele>1521.42</ele>
        <time>2012-07-28T12:11:37Z</time>
      </trkpt>
      <trkpt lat="46.6641" lon="8.73551">
        <ele>1510.37</ele>
        <time>2012-07-28T12:11:48Z</time>
      </trkpt>
      <trkpt lat="46.66451" lon="8.73934">
        <ele>1488.74</ele>
        <time>2012-07-28T12:12:05Z</time>
      </trkpt>
      <trkpt lat="46.6652" lon="8.74125">
        <ele>1482.49</ele>
        <time>2012-07-28T12:12:14Z</time>
      </trkpt>
      <trkpt lat="46.66565" lon="8.74236">
        <ele>1474.32</ele>
        <time>2012-07-28T12:12:28Z</time>
      </trkpt>
      <trkpt lat="46.66663" lon="8.74416">
        <ele>1471.92</ele>
        <time>2012-07-28T12:12:55Z</time>
      </trkpt>
      <trkpt lat="46.66722" lon="8.74536">
        <ele>1466.63</ele>
        <time>2012-07-28T12:13:03Z</time>
      </trkpt>
      <trkpt lat="46.66805" lon="8.74598">
        <ele>1461.82</ele>
        <time>2012-07-28T12:13:16Z</time>
      </trkpt>
      <trkpt lat="46.66842" lon="8.7457">
        <ele>1459.42</ele>
        <time>2012-07-28T12:13:23Z</time>
      </trkpt>
      <trkpt lat="46.66859" lon="8.74467">
        <ele>1457.02</ele>
        <time>2012-07-28T12:13:32Z</time>
      </trkpt>
      <trkpt lat="46.66888" lon="8.74422">
        <ele>1455.57</ele>
        <time>2012-07-28T12:13:36Z</time>
      </trkpt>
      <trkpt lat="46.67021" lon="8.74401">
        <ele>1452.69</ele>
        <time>2012-07-28T12:13:47Z</time>
      </trkpt>
      <trkpt lat="46.67213" lon="8.74494">
        <ele>1443.08</ele>
        <time>2012-07-28T12:14:03Z</time>
      </trkpt>
      <trkpt lat="46.67229" lon="8.74549">
        <ele>1444.04</ele>
        <time>2012-07-28T12:14:06Z</time>
      </trkpt>
      <trkpt lat="46.6726" lon="8.74682">
        <ele>1440.19</ele>
        <time>2012-07-28T12:14:13Z</time>
      </trkpt>
      <trkpt lat="46.67341" lon="8.74824">
        <ele>1437.79</ele>
        <time>2012-07-28T12:14:21Z</time>
      </trkpt>
      <trkpt lat="46.67557" lon="8.7508">
        <ele>1423.37</ele>
        <time>2012-07-28T12:14:41Z</time>
      </trkpt>
      <trkpt lat="46.67579" lon="8.75126">
        <ele>1421.93</ele>
        <time>2012-07-28T12:14:44Z</time>
      </trkpt>
      <trkpt lat="46.6761" lon="8.75265">
        <ele>1418.56</ele>
        <time>2012-07-28T12:14:52Z</time>
      </trkpt>
      <trkpt lat="46.67592" lon="8.75376">
        <ele>1420.97</ele>
        <time>2012-07-28T12:14:58Z</time>
      </trkpt>
      <trkpt lat="46.67589" lon="8.75549">
        <ele>1422.41</ele>
        <time>2012-07-28T12:15:07Z</time>
      </trkpt>
      <trkpt lat="46.67616" lon="8.75737">
        <ele>1425.77</ele>
        <time>2012-07-28T12:15:16Z</time>
      </trkpt>
      <trkpt lat="46.67639" lon="8.75806">
        <ele>1428.18</ele>
        <time>2012-07-28T12:15:19Z</time>
      </trkpt>
      <trkpt lat="46.6768" lon="8.75898">
        <ele>1429.62</ele>
        <time>2012-07-28T12:15:23Z</time>
      </trkpt>
      <trkpt lat="46.67757" lon="8.7604">
        <ele>1428.66</ele>
        <time>2012-07-28T12:15:30Z</time>
      </trkpt>
      <trkpt lat="46.67875" lon="8.76148">
        <ele>1428.66</ele>
        <time>2012-07-28T12:15:40Z</time>
      </trkpt>
      <trkpt lat="46.67951" lon="8.76191">
        <ele>1430.1</ele>
        <time>2012-07-28T12:15:46Z</time>
      </trkpt>
      <trkpt lat="46.6804" lon="8.76198">
        <ele>1430.1</ele>
        <time>2012-07-28T12:15:53Z</time>
      </trkpt>
      <trkpt lat="46.68053" lon="8.76226">
        <ele>1429.62</ele>
        <time>2012-07-28T12:15:55Z</time>
      </trkpt>
      <trkpt lat="46.68036" lon="8.76293">
        <ele>1431.06</ele>
        <time>2012-07-28T12:15:59Z</time>
      </trkpt>
      <trkpt lat="46.67988" lon="8.76378">
        <ele>1432.02</ele>
        <time>2012-07-28T12:16:05Z</time>
      </trkpt>
      <trkpt lat="46.6796" lon="8.76529">
        <ele>1432.98</ele>
        <time>2012-07-28T12:16:14Z</time>
      </trkpt>
      <trkpt lat="46.67921" lon="8.76719">
        <ele>1430.58</ele>
        <time>2012-07-28T12:16:25Z</time>
      </trkpt>
      <trkpt lat="46.67905" lon="8.77086">
        <ele>1423.85</ele>
        <time>2012-07-28T12:16:47Z</time>
      </trkpt>
      <trkpt lat="46.67925" lon="8.77285">
        <ele>1420.97</ele>
        <time>2012-07-28T12:17:00Z</time>
      </trkpt>
      <trkpt lat="46.68135" lon="8.77738">
        <ele>1417.6</ele>
        <time>2012-07-28T12:17:42Z</time>
      </trkpt>
      <trkpt lat="46.68153" lon="8.77857">
        <ele>1418.08</ele>
        <time>2012-07-28T12:17:51Z</time>
      </trkpt>
      <trkpt lat="46.68157" lon="8.78023">
        <ele>1417.12</ele>
        <time>2012-07-28T12:18:02Z</time>
      </trkpt>
      <trkpt lat="46.68077" lon="8.78255">
        <ele>1420.49</ele>
        <time>2012-07-28T12:18:19Z</time>
      </trkpt>
      <trkpt lat="46.68075" lon="8.78293">
        <ele>1419.52</ele>
        <time>2012-07-28T12:18:22Z</time>
      </trkpt>
      <trkpt lat="46.68096" lon="8.78335">
        <ele>1418.08</ele>
        <time>2012-07-28T12:18:26Z</time>
      </trkpt>
      <trkpt lat="46.68135" lon="8.78356">
        <ele>1420</ele>
        <time>2012-07-28T12:18:30Z</time>
      </trkpt>
      <trkpt lat="46.68195" lon="8.7837">
        <ele>1416.64</ele>
        <time>2012-07-28T12:18:36Z</time>
      </trkpt>
      <trkpt lat="46.6821" lon="8.78416">
        <ele>1417.12</ele>
        <time>2012-07-28T12:18:40Z</time>
      </trkpt>
      <trkpt lat="46.68194" lon="8.78454">
        <ele>1418.08</ele>
        <time>2012-07-28T12:18:43Z</time>
      </trkpt>
      <trkpt lat="46.68081" lon="8.78576">
        <ele>1421.93</ele>
        <time>2012-07-28T12:18:56Z</time>
      </trkpt>
      <trkpt lat="46.6807" lon="8.78638">
        <ele>1422.41</ele>
        <time>2012-07-28T12:19:00Z</time>
      </trkpt>
      <trkpt lat="46.6813" lon="8.7885">
        <ele>1416.64</ele>
        <time>2012-07-28T12:19:12Z</time>
      </trkpt>
      <trkpt lat="46.68107" lon="8.79069">
        <ele>1413.28</ele>
        <time>2012-07-28T12:19:22Z</time>
      </trkpt>
      <trkpt lat="46.68113" lon="8.79149">
        <ele>1415.68</ele>
        <time>2012-07-28T12:19:25Z</time>
      </trkpt>
      <trkpt lat="46.6812" lon="8.79247">
        <ele>1407.99</ele>
        <time>2012-07-28T12:19:29Z</time>
      </trkpt>
      <trkpt lat="46.68101" lon="8.79353">
        <ele>1410.87</ele>
        <time>2012-07-28T12:19:33Z</time>
      </trkpt>
      <trkpt lat="46.68068" lon="8.79509">
        <ele>1402.22</ele>
        <time>2012-07-28T12:19:40Z</time>
      </trkpt>
      <trkpt lat="46.68071" lon="8.79559">
        <ele>1402.7</ele>
        <time>2012-07-28T12:19:42Z</time>
      </trkpt>
      <trkpt lat="46.68089" lon="8.79651">
        <ele>1395.49</ele>
        <time>2012-07-28T12:19:46Z</time>
      </trkpt>
      <trkpt lat="46.68095" lon="8.7977">
        <ele>1392.61</ele>
        <time>2012-07-28T12:19:51Z</time>
      </trkpt>
      <trkpt lat="46.68066" lon="8.80293">
        <ele>1390.68</ele>
        <time>2012-07-28T12:20:11Z</time>
      </trkpt>
      <trkpt lat="46.68065" lon="8.80362">
        <ele>1388.76</ele>
        <time>2012-07-28T12:20:13Z</time>
      </trkpt>
      <trkpt lat="46.6814" lon="8.81034">
        <ele>1365.69</ele>
        <time>2012-07-28T12:20:35Z</time>
      </trkpt>
      <trkpt lat="46.6815" lon="8.81211">
        <ele>1357.04</ele>
        <time>2012-07-28T12:20:41Z</time>
      </trkpt>
      <trkpt lat="46.6811" lon="8.81622">
        <ele>1351.27</ele>
        <time>2012-07-28T12:20:55Z</time>
      </trkpt>
      <trkpt lat="46.68101" lon="8.81888">
        <ele>1345.98</ele>
        <time>2012-07-28T12:21:04Z</time>
      </trkpt>
      <trkpt lat="46.68112" lon="8.82008">
        <ele>1343.1</ele>
        <time>2012-07-28T12:21:08Z</time>
      </trkpt>
      <trkpt lat="46.68105" lon="8.82229">
        <ele>1339.73</ele>
        <time>2012-07-28T12:21:15Z</time>
      </trkpt>
      <trkpt lat="46.6814" lon="8.82585">
        <ele>1333.97</ele>
        <time>2012-07-28T12:21:26Z</time>
      </trkpt>
      <trkpt lat="46.68214" lon="8.8297">
        <ele>1320.03</ele>
        <time>2012-07-28T12:21:40Z</time>
      </trkpt>
      <trkpt lat="46.68246" lon="8.83065">
        <ele>1317.62</ele>
        <time>2012-07-28T12:21:44Z</time>
      </trkpt>
      <trkpt lat="46.68283" lon="8.83129">
        <ele>1317.62</ele>
        <time>2012-07-28T12:21:47Z</time>
      </trkpt>
      <trkpt lat="46.68416" lon="8.83298">
        <ele>1311.38</ele>
        <time>2012-07-28T12:21:55Z</time>
      </trkpt>
      <trkpt lat="46.68552" lon="8.8352">
        <ele>1295.51</ele>
        <time>2012-07-28T12:22:05Z</time>
      </trkpt>
      <trkpt lat="46.68596" lon="8.8355">
        <ele>1293.11</ele>
        <time>2012-07-28T12:22:08Z</time>
      </trkpt>
      <trkpt lat="46.68629" lon="8.83548">
        <ele>1291.67</ele>
        <time>2012-07-28T12:22:10Z</time>
      </trkpt>
      <trkpt lat="46.68659" lon="8.83527">
        <ele>1288.78</ele>
        <time>2012-07-28T12:22:12Z</time>
      </trkpt>
      <trkpt lat="46.68684" lon="8.83488">
        <ele>1288.3</ele>
        <time>2012-07-28T12:22:14Z</time>
      </trkpt>
      <trkpt lat="46.68717" lon="8.83345">
        <ele>1285.9</ele>
        <time>2012-07-28T12:22:19Z</time>
      </trkpt>
      <trkpt lat="46.68721" lon="8.83233">
        <ele>1277.25</ele>
        <time>2012-07-28T12:22:23Z</time>
      </trkpt>
      <trkpt lat="46.68737" lon="8.83172">
        <ele>1272.44</ele>
        <time>2012-07-28T12:22:26Z</time>
      </trkpt>
      <trkpt lat="46.68774" lon="8.83144">
        <ele>1270.04</ele>
        <time>2012-07-28T12:22:29Z</time>
      </trkpt>
      <trkpt lat="46.68802" lon="8.83153">
        <ele>1269.56</ele>
        <time>2012-07-28T12:22:31Z</time>
      </trkpt>
      <trkpt lat="46.68843" lon="8.83239">
        <ele>1273.4</ele>
        <time>2012-07-28T12:22:35Z</time>
      </trkpt>
      <trkpt lat="46.68851" lon="8.83266">
        <ele>1273.4</ele>
        <time>2012-07-28T12:22:36Z</time>
      </trkpt>
      <trkpt lat="46.68932" lon="8.83487">
        <ele>1272.92</ele>
        <time>2012-07-28T12:22:44Z</time>
      </trkpt>
      <trkpt lat="46.68969" lon="8.83556">
        <ele>1269.08</ele>
        <time>2012-07-28T12:22:47Z</time>
      </trkpt>
      <trkpt lat="46.69081" lon="8.8371">
        <ele>1265.71</ele>
        <time>2012-07-28T12:22:56Z</time>
      </trkpt>
      <trkpt lat="46.69233" lon="8.83859">
        <ele>1262.83</ele>
        <time>2012-07-28T12:23:07Z</time>
      </trkpt>
      <trkpt lat="46.69295" lon="8.83871">
        <ele>1260.43</ele>
        <time>2012-07-28T12:23:11Z</time>
      </trkpt>
      <trkpt lat="46.69359" lon="8.83853">
        <ele>1259.94</ele>
        <time>2012-07-28T12:23:15Z</time>
      </trkpt>
      <trkpt lat="46.6939" lon="8.83832">
        <ele>1258.5</ele>
        <time>2012-07-28T12:23:17Z</time>
      </trkpt>
      <trkpt lat="46.6944" lon="8.83796">
        <ele>1249.85</ele>
        <time>2012-07-28T12:23:21Z</time>
      </trkpt>
      <trkpt lat="46.69472" lon="8.838">
        <ele>1246.97</ele>
        <time>2012-07-28T12:23:24Z</time>
      </trkpt>
      <trkpt lat="46.69489" lon="8.83876">
        <ele>1250.33</ele>
        <time>2012-07-28T12:23:28Z</time>
      </trkpt>
      <trkpt lat="46.69521" lon="8.84159">
        <ele>1245.53</ele>
        <time>2012-07-28T12:23:39Z</time>
      </trkpt>
      <trkpt lat="46.69521" lon="8.84238">
        <ele>1242.64</ele>
        <time>2012-07-28T12:23:44Z</time>
      </trkpt>
      <trkpt lat="46.69632" lon="8.84278">
        <ele>1241.68</ele>
        <time>2012-07-28T12:23:53Z</time>
      </trkpt>
      <trkpt lat="46.69746" lon="8.84382">
        <ele>1234.95</ele>
        <time>2012-07-28T12:24:01Z</time>
      </trkpt>
      <trkpt lat="46.69875" lon="8.84482">
        <ele>1225.34</ele>
        <time>2012-07-28T12:24:11Z</time>
      </trkpt>
      <trkpt lat="46.70043" lon="8.84442">
        <ele>1215.24</ele>
        <time>2012-07-28T12:24:24Z</time>
      </trkpt>
      <trkpt lat="46.70083" lon="8.84447">
        <ele>1210.44</ele>
        <time>2012-07-28T12:24:28Z</time>
      </trkpt>
      <trkpt lat="46.70099" lon="8.84478">
        <ele>1209.96</ele>
        <time>2012-07-28T12:24:31Z</time>
      </trkpt>
      <trkpt lat="46.70116" lon="8.84648">
        <ele>1205.15</ele>
        <time>2012-07-28T12:24:41Z</time>
      </trkpt>
      <trkpt lat="46.70195" lon="8.84818">
        <ele>1196.98</ele>
        <time>2012-07-28T12:24:51Z</time>
      </trkpt>
      <trkpt lat="46.70234" lon="8.84872">
        <ele>1195.06</ele>
        <time>2012-07-28T12:24:55Z</time>
      </trkpt>
      <trkpt lat="46.70439" lon="8.85004">
        <ele>1176.31</ele>
        <time>2012-07-28T12:25:25Z</time>
      </trkpt>
      <trkpt lat="46.70393" lon="8.84972">
        <ele>1181.12</ele>
        <time>2012-07-28T12:25:33Z</time>
      </trkpt>
      <trkpt lat="46.70347" lon="8.84939">
        <ele>1182.08</ele>
        <time>2012-07-28T12:25:40Z</time>
      </trkpt>
      <trkpt lat="46.70342" lon="8.84929">
        <ele>1183.04</ele>
        <time>2012-07-28T12:25:43Z</time>
      </trkpt>
      <trkpt lat="46.70339" lon="8.84934">
        <ele>1183.04</ele>
        <time>2012-07-28T12:31:41Z</time>
      </trkpt>
      <trkpt lat="46.70425" lon="8.85005">
        <ele>1174.39</ele>
        <time>2012-07-28T12:44:36Z</time>
      </trkpt>
      <trkpt lat="46.70452" lon="8.85049">
        <ele>1172.47</ele>
        <time>2012-07-28T12:44:40Z</time>
      </trkpt>
      <trkpt lat="46.70559" lon="8.85408">
        <ele>1156.12</ele>
        <time>2012-07-28T12:45:07Z</time>
      </trkpt>
      <trkpt lat="46.70555" lon="8.85437">
        <ele>1154.68</ele>
        <time>2012-07-28T12:45:11Z</time>
      </trkpt>
      <trkpt lat="46.7054" lon="8.85446">
        <ele>1153.72</ele>
        <time>2012-07-28T12:45:18Z</time>
      </trkpt>
      <trkpt lat="46.70545" lon="8.85474">
        <ele>1153.72</ele>
        <time>2012-07-28T12:45:34Z</time>
      </trkpt>
      <trkpt lat="46.7057" lon="8.85547">
        <ele>1154.2</ele>
        <time>2012-07-28T12:45:42Z</time>
      </trkpt>
      <trkpt lat="46.70638" lon="8.85667">
        <ele>1155.16</ele>
        <time>2012-07-28T12:45:55Z</time>
      </trkpt>
      <trkpt lat="46.70704" lon="8.85819">
        <ele>1153.24</ele>
        <time>2012-07-28T12:46:07Z</time>
      </trkpt>
      <trkpt lat="46.70741" lon="8.85906">
        <ele>1150.84</ele>
        <time>2012-07-28T12:46:13Z</time>
      </trkpt>
      <trkpt lat="46.70774" lon="8.86038">
        <ele>1152.28</ele>
        <time>2012-07-28T12:46:21Z</time>
      </trkpt>
      <trkpt lat="46.70794" lon="8.86347">
        <ele>1148.43</ele>
        <time>2012-07-28T12:46:38Z</time>
      </trkpt>
      <trkpt lat="46.70828" lon="8.86479">
        <ele>1146.99</ele>
        <time>2012-07-28T12:46:45Z</time>
      </trkpt>
      <trkpt lat="46.70896" lon="8.86647">
        <ele>1143.63</ele>
        <time>2012-07-28T12:46:52Z</time>
      </trkpt>
      <trkpt lat="46.70921" lon="8.8671">
        <ele>1140.26</ele>
        <time>2012-07-28T12:46:55Z</time>
      </trkpt>
      <trkpt lat="46.70944" lon="8.86761">
        <ele>1136.9</ele>
        <time>2012-07-28T12:46:58Z</time>
      </trkpt>
      <trkpt lat="46.70992" lon="8.86806">
        <ele>1135.45</ele>
        <time>2012-07-28T12:47:02Z</time>
      </trkpt>
      <trkpt lat="46.71036" lon="8.8684">
        <ele>1131.13</ele>
        <time>2012-07-28T12:47:06Z</time>
      </trkpt>
      <trkpt lat="46.71069" lon="8.86991">
        <ele>1127.76</ele>
        <time>2012-07-28T12:47:15Z</time>
      </trkpt>
      <trkpt lat="46.71198" lon="8.87148">
        <ele>1122.48</ele>
        <time>2012-07-28T12:47:26Z</time>
      </trkpt>
      <trkpt lat="46.71232" lon="8.87204">
        <ele>1121.03</ele>
        <time>2012-07-28T12:47:29Z</time>
      </trkpt>
      <trkpt lat="46.71287" lon="8.87337">
        <ele>1117.19</ele>
        <time>2012-07-28T12:47:35Z</time>
      </trkpt>
      <trkpt lat="46.71302" lon="8.87379">
        <ele>1113.34</ele>
        <time>2012-07-28T12:47:37Z</time>
      </trkpt>
      <trkpt lat="46.71319" lon="8.87526">
        <ele>1109.5</ele>
        <time>2012-07-28T12:47:44Z</time>
      </trkpt>
      <trkpt lat="46.71351" lon="8.87605">
        <ele>1109.02</ele>
        <time>2012-07-28T12:47:48Z</time>
      </trkpt>
      <trkpt lat="46.71461" lon="8.87915">
        <ele>1101.81</ele>
        <time>2012-07-28T12:48:01Z</time>
      </trkpt>
      <trkpt lat="46.71504" lon="8.88084">
        <ele>1094.6</ele>
        <time>2012-07-28T12:48:08Z</time>
      </trkpt>
      <trkpt lat="46.71558" lon="8.88389">
        <ele>1084.5</ele>
        <time>2012-07-28T12:48:23Z</time>
      </trkpt>
      <trkpt lat="46.71615" lon="8.88601">
        <ele>1079.7</ele>
        <time>2012-07-28T12:48:34Z</time>
      </trkpt>
      <trkpt lat="46.71629" lon="8.88754">
        <ele>1075.85</ele>
        <time>2012-07-28T12:48:41Z</time>
      </trkpt>
      <trkpt lat="46.71648" lon="8.88862">
        <ele>1072.01</ele>
        <time>2012-07-28T12:48:46Z</time>
      </trkpt>
      <trkpt lat="46.71772" lon="8.89118">
        <ele>1065.76</ele>
        <time>2012-07-28T12:49:00Z</time>
      </trkpt>
      <trkpt lat="46.71975" lon="8.89517">
        <ele>1049.42</ele>
        <time>2012-07-28T12:49:21Z</time>
      </trkpt>
      <trkpt lat="46.72005" lon="8.89558">
        <ele>1047.49</ele>
        <time>2012-07-28T12:49:25Z</time>
      </trkpt>
      <trkpt lat="46.72081" lon="8.89604">
        <ele>1042.21</ele>
        <time>2012-07-28T12:49:44Z</time>
      </trkpt>
      <trkpt lat="46.72158" lon="8.89746">
        <ele>1043.17</ele>
        <time>2012-07-28T12:51:59Z</time>
      </trkpt>
      <trkpt lat="46.72193" lon="8.90346">
        <ele>1047.97</ele>
        <time>2012-07-28T12:52:30Z</time>
      </trkpt>
      <trkpt lat="46.72224" lon="8.90503">
        <ele>1050.38</ele>
        <time>2012-07-28T12:52:37Z</time>
      </trkpt>
      <trkpt lat="46.72277" lon="8.90859">
        <ele>1049.9</ele>
        <time>2012-07-28T12:52:52Z</time>
      </trkpt>
      <trkpt lat="46.72331" lon="8.91038">
        <ele>1050.86</ele>
        <time>2012-07-28T12:53:01Z</time>
      </trkpt>
      <trkpt lat="46.72357" lon="8.91208">
        <ele>1050.86</ele>
        <time>2012-07-28T12:53:09Z</time>
      </trkpt>
      <trkpt lat="46.72449" lon="8.91463">
        <ele>1053.26</ele>
        <time>2012-07-28T12:53:21Z</time>
      </trkpt>
      <trkpt lat="46.72536" lon="8.91927">
        <ele>1058.07</ele>
        <time>2012-07-28T12:53:38Z</time>
      </trkpt>
      <trkpt lat="46.72606" lon="8.92395">
        <ele>1060.95</ele>
        <time>2012-07-28T12:53:53Z</time>
      </trkpt>
      <trkpt lat="46.72628" lon="8.93071">
        <ele>1062.87</ele>
        <time>2012-07-28T12:54:14Z</time>
      </trkpt>
      <trkpt lat="46.72648" lon="8.93267">
        <ele>1059.03</ele>
        <time>2012-07-28T12:54:21Z</time>
      </trkpt>
      <trkpt lat="46.72716" lon="8.93625">
        <ele>1056.15</ele>
        <time>2012-07-28T12:54:40Z</time>
      </trkpt>
      <trkpt lat="46.72786" lon="8.93862">
        <ele>1057.11</ele>
        <time>2012-07-28T12:54:56Z</time>
      </trkpt>
      <trkpt lat="46.72793" lon="8.93918">
        <ele>1055.18</ele>
        <time>2012-07-28T12:55:00Z</time>
      </trkpt>
      <trkpt lat="46.7287" lon="8.94074">
        <ele>1052.3</ele>
        <time>2012-07-28T12:55:10Z</time>
      </trkpt>
      <trkpt lat="46.72937" lon="8.94271">
        <ele>1046.05</ele>
        <time>2012-07-28T12:55:19Z</time>
      </trkpt>
      <trkpt lat="46.72979" lon="8.94448">
        <ele>1041.73</ele>
        <time>2012-07-28T12:55:26Z</time>
      </trkpt>
      <trkpt lat="46.73035" lon="8.94741">
        <ele>1029.23</ele>
        <time>2012-07-28T12:55:38Z</time>
      </trkpt>
      <trkpt lat="46.73061" lon="8.94802">
        <ele>1026.34</ele>
        <time>2012-07-28T12:55:41Z</time>
      </trkpt>
      <trkpt lat="46.73092" lon="8.94905">
        <ele>1020.1</ele>
        <time>2012-07-28T12:55:47Z</time>
      </trkpt>
      <trkpt lat="46.73123" lon="8.94929">
        <ele>1017.69</ele>
        <time>2012-07-28T12:55:51Z</time>
      </trkpt>
      <trkpt lat="46.7315" lon="8.94908">
        <ele>1017.21</ele>
        <time>2012-07-28T12:55:54Z</time>
      </trkpt>
      <trkpt lat="46.73157" lon="8.94895">
        <ele>1016.73</ele>
        <time>2012-07-28T12:55:55Z</time>
      </trkpt>
      <trkpt lat="46.73183" lon="8.94869">
        <ele>1012.89</ele>
        <time>2012-07-28T12:55:59Z</time>
      </trkpt>
      <trkpt lat="46.73209" lon="8.94897">
        <ele>1011.44</ele>
        <time>2012-07-28T12:56:03Z</time>
      </trkpt>
      <trkpt lat="46.73205" lon="8.94995">
        <ele>1011.44</ele>
        <time>2012-07-28T12:56:08Z</time>
      </trkpt>
      <trkpt lat="46.73159" lon="8.95133">
        <ele>1003.75</ele>
        <time>2012-07-28T12:56:17Z</time>
      </trkpt>
      <trkpt lat="46.73161" lon="8.95157">
        <ele>1002.31</ele>
        <time>2012-07-28T12:56:19Z</time>
      </trkpt>
      <trkpt lat="46.73217" lon="8.95215">
        <ele>1000.39</ele>
        <time>2012-07-28T12:56:25Z</time>
      </trkpt>
      <trkpt lat="46.73299" lon="8.95223">
        <ele>994.14</ele>
        <time>2012-07-28T12:56:33Z</time>
      </trkpt>
      <trkpt lat="46.73298" lon="8.95338">
        <ele>990.78</ele>
        <time>2012-07-28T12:56:42Z</time>
      </trkpt>
      <trkpt lat="46.73346" lon="8.95381">
        <ele>986.93</ele>
        <time>2012-07-28T12:56:48Z</time>
      </trkpt>
      <trkpt lat="46.7338" lon="8.95466">
        <ele>986.45</ele>
        <time>2012-07-28T12:56:54Z</time>
      </trkpt>
      <trkpt lat="46.73444" lon="8.95595">
        <ele>980.68</ele>
        <time>2012-07-28T12:57:03Z</time>
      </trkpt>
      <trkpt lat="46.73461" lon="8.95769">
        <ele>972.99</ele>
        <time>2012-07-28T12:57:13Z</time>
      </trkpt>
      <trkpt lat="46.73382" lon="8.9608">
        <ele>965.78</ele>
        <time>2012-07-28T12:57:31Z</time>
      </trkpt>
      <trkpt lat="46.73395" lon="8.96234">
        <ele>959.05</ele>
        <time>2012-07-28T12:57:40Z</time>
      </trkpt>
      <trkpt lat="46.73386" lon="8.96303">
        <ele>959.05</ele>
        <time>2012-07-28T12:57:44Z</time>
      </trkpt>
      <trkpt lat="46.73367" lon="8.96395">
        <ele>954.73</ele>
        <time>2012-07-28T12:57:49Z</time>
      </trkpt>
      <trkpt lat="46.73448" lon="8.96746">
        <ele>948</ele>
        <time>2012-07-28T12:58:04Z</time>
      </trkpt>
      <trkpt lat="46.73471" lon="8.96822">
        <ele>945.11</ele>
        <time>2012-07-28T12:58:07Z</time>
      </trkpt>
      <trkpt lat="46.73512" lon="8.96919">
        <ele>942.71</ele>
        <time>2012-07-28T12:58:11Z</time>
      </trkpt>
      <trkpt lat="46.73597" lon="8.97048">
        <ele>937.9</ele>
        <time>2012-07-28T12:58:17Z</time>
      </trkpt>
      <trkpt lat="46.737" lon="8.97172">
        <ele>928.29</ele>
        <time>2012-07-28T12:58:24Z</time>
      </trkpt>
      <trkpt lat="46.73775" lon="8.97229">
        <ele>924.93</ele>
        <time>2012-07-28T12:58:29Z</time>
      </trkpt>
      <trkpt lat="46.73856" lon="8.97262">
        <ele>918.68</ele>
        <time>2012-07-28T12:58:34Z</time>
      </trkpt>
      <trkpt lat="46.73893" lon="8.97303">
        <ele>916.75</ele>
        <time>2012-07-28T12:58:37Z</time>
      </trkpt>
      <trkpt lat="46.73981" lon="8.97483">
        <ele>913.39</ele>
        <time>2012-07-28T12:58:45Z</time>
      </trkpt>
      <trkpt lat="46.74071" lon="8.97667">
        <ele>905.7</ele>
        <time>2012-07-28T12:58:53Z</time>
      </trkpt>
      <trkpt lat="46.74195" lon="8.97859">
        <ele>897.05</ele>
        <time>2012-07-28T12:59:03Z</time>
      </trkpt>
      <trkpt lat="46.74219" lon="8.9793">
        <ele>895.12</ele>
        <time>2012-07-28T12:59:06Z</time>
      </trkpt>
      <trkpt lat="46.74229" lon="8.97985">
        <ele>894.64</ele>
        <time>2012-07-28T12:59:08Z</time>
      </trkpt>
      <trkpt lat="46.7426" lon="8.98205">
        <ele>882.63</ele>
        <time>2012-07-28T12:59:17Z</time>
      </trkpt>
      <trkpt lat="46.74238" lon="8.98456">
        <ele>876.86</ele>
        <time>2012-07-28T12:59:31Z</time>
      </trkpt>
      <trkpt lat="46.74248" lon="8.98549">
        <ele>878.3</ele>
        <time>2012-07-28T12:59:40Z</time>
      </trkpt>
      <trkpt lat="46.74242" lon="8.9864">
        <ele>876.86</ele>
        <time>2012-07-28T12:59:46Z</time>
      </trkpt>
      <trkpt lat="46.74257" lon="8.98769">
        <ele>875.42</ele>
        <time>2012-07-28T12:59:55Z</time>
      </trkpt>
      <trkpt lat="46.74298" lon="8.98929">
        <ele>873.5</ele>
        <time>2012-07-28T13:00:06Z</time>
      </trkpt>
      <trkpt lat="46.74331" lon="8.99615">
        <ele>869.17</ele>
        <time>2012-07-28T13:00:42Z</time>
      </trkpt>
      <trkpt lat="46.74357" lon="8.99842">
        <ele>870.13</ele>
        <time>2012-07-28T13:00:51Z</time>
      </trkpt>
      <trkpt lat="46.74496" lon="9.00184">
        <ele>865.8</ele>
        <time>2012-07-28T13:01:05Z</time>
      </trkpt>
      <trkpt lat="46.74497" lon="9.00325">
        <ele>867.25</ele>
        <time>2012-07-28T13:01:11Z</time>
      </trkpt>
      <trkpt lat="46.74485" lon="9.00548">
        <ele>862.92</ele>
        <time>2012-07-28T13:01:20Z</time>
      </trkpt>
      <trkpt lat="46.74469" lon="9.00618">
        <ele>862.44</ele>
        <time>2012-07-28T13:01:23Z</time>
      </trkpt>
      <trkpt lat="46.74375" lon="9.00797">
        <ele>858.59</ele>
        <time>2012-07-28T13:01:32Z</time>
      </trkpt>
      <trkpt lat="46.74334" lon="9.00933">
        <ele>855.71</ele>
        <time>2012-07-28T13:01:38Z</time>
      </trkpt>
      <trkpt lat="46.74252" lon="9.01679">
        <ele>845.14</ele>
        <time>2012-07-28T13:02:06Z</time>
      </trkpt>
      <trkpt lat="46.74304" lon="9.01971">
        <ele>845.62</ele>
        <time>2012-07-28T13:02:17Z</time>
      </trkpt>
      <trkpt lat="46.74335" lon="9.02074">
        <ele>844.66</ele>
        <time>2012-07-28T13:02:22Z</time>
      </trkpt>
      <trkpt lat="46.74401" lon="9.02134">
        <ele>845.62</ele>
        <time>2012-07-28T13:02:27Z</time>
      </trkpt>
      <trkpt lat="46.74477" lon="9.02201">
        <ele>844.18</ele>
        <time>2012-07-28T13:02:34Z</time>
      </trkpt>
      <trkpt lat="46.74481" lon="9.02216">
        <ele>843.69</ele>
        <time>2012-07-28T13:02:35Z</time>
      </trkpt>
      <trkpt lat="46.74483" lon="9.02267">
        <ele>844.66</ele>
        <time>2012-07-28T13:02:38Z</time>
      </trkpt>
      <trkpt lat="46.74465" lon="9.02321">
        <ele>846.58</ele>
        <time>2012-07-28T13:02:41Z</time>
      </trkpt>
      <trkpt lat="46.74456" lon="9.02339">
        <ele>847.06</ele>
        <time>2012-07-28T13:02:42Z</time>
      </trkpt>
      <trkpt lat="46.74422" lon="9.02457">
        <ele>846.58</ele>
        <time>2012-07-28T13:02:48Z</time>
      </trkpt>
      <trkpt lat="46.74462" lon="9.02707">
        <ele>850.9</ele>
        <time>2012-07-28T13:02:58Z</time>
      </trkpt>
      <trkpt lat="46.74555" lon="9.03036">
        <ele>851.87</ele>
        <time>2012-07-28T13:03:11Z</time>
      </trkpt>
      <trkpt lat="46.74678" lon="9.03332">
        <ele>853.31</ele>
        <time>2012-07-28T13:03:23Z</time>
      </trkpt>
      <trkpt lat="46.74823" lon="9.03568">
        <ele>849.94</ele>
        <time>2012-07-28T13:03:34Z</time>
      </trkpt>
      <trkpt lat="46.74852" lon="9.03641">
        <ele>849.94</ele>
        <time>2012-07-28T13:03:37Z</time>
      </trkpt>
      <trkpt lat="46.74913" lon="9.04013">
        <ele>848.02</ele>
        <time>2012-07-28T13:03:51Z</time>
      </trkpt>
      <trkpt lat="46.74995" lon="9.04365">
        <ele>845.62</ele>
        <time>2012-07-28T13:04:03Z</time>
      </trkpt>
      <trkpt lat="46.75081" lon="9.04782">
        <ele>839.85</ele>
        <time>2012-07-28T13:04:17Z</time>
      </trkpt>
      <trkpt lat="46.75216" lon="9.05355">
        <ele>831.2</ele>
        <time>2012-07-28T13:04:37Z</time>
      </trkpt>
      <trkpt lat="46.75273" lon="9.05594">
        <ele>825.91</ele>
        <time>2012-07-28T13:04:46Z</time>
      </trkpt>
      <trkpt lat="46.75355" lon="9.05735">
        <ele>825.43</ele>
        <time>2012-07-28T13:04:53Z</time>
      </trkpt>
      <trkpt lat="46.75471" lon="9.0583">
        <ele>823.51</ele>
        <time>2012-07-28T13:05:00Z</time>
      </trkpt>
      <trkpt lat="46.75573" lon="9.05961">
        <ele>820.62</ele>
        <time>2012-07-28T13:05:07Z</time>
      </trkpt>
      <trkpt lat="46.75626" lon="9.06057">
        <ele>819.18</ele>
        <time>2012-07-28T13:05:11Z</time>
      </trkpt>
      <trkpt lat="46.75708" lon="9.06257">
        <ele>809.57</ele>
        <time>2012-07-28T13:05:19Z</time>
      </trkpt>
      <trkpt lat="46.75722" lon="9.06456">
        <ele>804.76</ele>
        <time>2012-07-28T13:05:26Z</time>
      </trkpt>
      <trkpt lat="46.75667" lon="9.06713">
        <ele>799.95</ele>
        <time>2012-07-28T13:05:36Z</time>
      </trkpt>
      <trkpt lat="46.75665" lon="9.06761">
        <ele>798.51</ele>
        <time>2012-07-28T13:05:38Z</time>
      </trkpt>
      <trkpt lat="46.75679" lon="9.0686">
        <ele>798.03</ele>
        <time>2012-07-28T13:05:42Z</time>
      </trkpt>
      <trkpt lat="46.75759" lon="9.07127">
        <ele>795.63</ele>
        <time>2012-07-28T13:05:53Z</time>
      </trkpt>
      <trkpt lat="46.75799" lon="9.07339">
        <ele>796.11</ele>
        <time>2012-07-28T13:06:01Z</time>
      </trkpt>
      <trkpt lat="46.75801" lon="9.07604">
        <ele>796.59</ele>
        <time>2012-07-28T13:06:10Z</time>
      </trkpt>
      <trkpt lat="46.75814" lon="9.0796">
        <ele>793.71</ele>
        <time>2012-07-28T13:06:22Z</time>
      </trkpt>
      <trkpt lat="46.75775" lon="9.0826">
        <ele>791.78</ele>
        <time>2012-07-28T13:06:33Z</time>
      </trkpt>
      <trkpt lat="46.75788" lon="9.08397">
        <ele>792.26</ele>
        <time>2012-07-28T13:06:38Z</time>
      </trkpt>
      <trkpt lat="46.75875" lon="9.08836">
        <ele>786.98</ele>
        <time>2012-07-28T13:06:54Z</time>
      </trkpt>
      <trkpt lat="46.75984" lon="9.09039">
        <ele>786.5</ele>
        <time>2012-07-28T13:07:03Z</time>
      </trkpt>
      <trkpt lat="46.76083" lon="9.09269">
        <ele>782.65</ele>
        <time>2012-07-28T13:07:12Z</time>
      </trkpt>
      <trkpt lat="46.76163" lon="9.09499">
        <ele>779.77</ele>
        <time>2012-07-28T13:07:21Z</time>
      </trkpt>
      <trkpt lat="46.76359" lon="9.0986">
        <ele>777.36</ele>
        <time>2012-07-28T13:07:37Z</time>
      </trkpt>
      <trkpt lat="46.76448" lon="9.10106">
        <ele>774.48</ele>
        <time>2012-07-28T13:07:47Z</time>
      </trkpt>
      <trkpt lat="46.76534" lon="9.10254">
        <ele>774.48</ele>
        <time>2012-07-28T13:07:54Z</time>
      </trkpt>
      <trkpt lat="46.76578" lon="9.10501">
        <ele>774.96</ele>
        <time>2012-07-28T13:08:04Z</time>
      </trkpt>
      <trkpt lat="46.76739" lon="9.10829">
        <ele>777.36</ele>
        <time>2012-07-28T13:08:19Z</time>
      </trkpt>
      <trkpt lat="46.76778" lon="9.11012">
        <ele>778.32</ele>
        <time>2012-07-28T13:08:26Z</time>
      </trkpt>
      <trkpt lat="46.76845" lon="9.11182">
        <ele>778.32</ele>
        <time>2012-07-28T13:08:33Z</time>
      </trkpt>
      <trkpt lat="46.77045" lon="9.11558">
        <ele>773.52</ele>
        <time>2012-07-28T13:08:50Z</time>
      </trkpt>
      <trkpt lat="46.77118" lon="9.11734">
        <ele>772.08</ele>
        <time>2012-07-28T13:08:58Z</time>
      </trkpt>
      <trkpt lat="46.77197" lon="9.1204">
        <ele>770.15</ele>
        <time>2012-07-28T13:09:10Z</time>
      </trkpt>
      <trkpt lat="46.77294" lon="9.12347">
        <ele>766.79</ele>
        <time>2012-07-28T13:09:22Z</time>
      </trkpt>
      <trkpt lat="46.77463" lon="9.12786">
        <ele>762.46</ele>
        <time>2012-07-28T13:09:41Z</time>
      </trkpt>
      <trkpt lat="46.7751" lon="9.13329">
        <ele>757.66</ele>
        <time>2012-07-28T13:10:03Z</time>
      </trkpt>
      <trkpt lat="46.77676" lon="9.13935">
        <ele>760.06</ele>
        <time>2012-07-28T13:10:30Z</time>
      </trkpt>
      <trkpt lat="46.7767" lon="9.1403">
        <ele>760.54</ele>
        <time>2012-07-28T13:10:34Z</time>
      </trkpt>
      <trkpt lat="46.776" lon="9.14288">
        <ele>758.62</ele>
        <time>2012-07-28T13:10:48Z</time>
      </trkpt>
      <trkpt lat="46.77576" lon="9.14512">
        <ele>759.1</ele>
        <time>2012-07-28T13:10:59Z</time>
      </trkpt>
      <trkpt lat="46.7756" lon="9.14767">
        <ele>762.46</ele>
        <time>2012-07-28T13:11:11Z</time>
      </trkpt>
      <trkpt lat="46.77575" lon="9.15012">
        <ele>762.94</ele>
        <time>2012-07-28T13:11:22Z</time>
      </trkpt>
      <trkpt lat="46.77696" lon="9.15317">
        <ele>758.62</ele>
        <time>2012-07-28T13:11:36Z</time>
      </trkpt>
      <trkpt lat="46.77714" lon="9.15518">
        <ele>759.58</ele>
        <time>2012-07-28T13:11:43Z</time>
      </trkpt>
      <trkpt lat="46.77698" lon="9.15708">
        <ele>755.25</ele>
        <time>2012-07-28T13:11:50Z</time>
      </trkpt>
      <trkpt lat="46.77632" lon="9.15861">
        <ele>750.45</ele>
        <time>2012-07-28T13:11:57Z</time>
      </trkpt>
      <trkpt lat="46.77604" lon="9.16009">
        <ele>750.93</ele>
        <time>2012-07-28T13:12:04Z</time>
      </trkpt>
      <trkpt lat="46.77655" lon="9.16422">
        <ele>747.56</ele>
        <time>2012-07-28T13:12:23Z</time>
      </trkpt>
      <trkpt lat="46.77653" lon="9.16694">
        <ele>748.04</ele>
        <time>2012-07-28T13:12:42Z</time>
      </trkpt>
      <trkpt lat="46.77688" lon="9.17084">
        <ele>747.56</ele>
        <time>2012-07-28T13:13:03Z</time>
      </trkpt>
      <trkpt lat="46.7768" lon="9.17122">
        <ele>747.56</ele>
        <time>2012-07-28T13:13:05Z</time>
      </trkpt>
      <trkpt lat="46.77514" lon="9.17464">
        <ele>741.79</ele>
        <time>2012-07-28T13:13:26Z</time>
      </trkpt>
      <trkpt lat="46.77467" lon="9.17794">
        <ele>735.55</ele>
        <time>2012-07-28T13:13:42Z</time>
      </trkpt>
      <trkpt lat="46.77368" lon="9.18059">
        <ele>733.62</ele>
        <time>2012-07-28T13:13:54Z</time>
      </trkpt>
      <trkpt lat="46.77324" lon="9.18255">
        <ele>731.7</ele>
        <time>2012-07-28T13:14:02Z</time>
      </trkpt>
      <trkpt lat="46.77435" lon="9.19625">
        <ele>717.28</ele>
        <time>2012-07-28T13:14:57Z</time>
      </trkpt>
      <trkpt lat="46.77564" lon="9.20369">
        <ele>717.28</ele>
        <time>2012-07-28T13:15:27Z</time>
      </trkpt>
      <trkpt lat="46.77634" lon="9.2064">
        <ele>715.36</ele>
        <time>2012-07-28T13:15:38Z</time>
      </trkpt>
      <trkpt lat="46.777" lon="9.20954">
        <ele>713.92</ele>
        <time>2012-07-28T13:15:51Z</time>
      </trkpt>
      <trkpt lat="46.77727" lon="9.21177">
        <ele>713.44</ele>
        <time>2012-07-28T13:16:01Z</time>
      </trkpt>
      <trkpt lat="46.77763" lon="9.21315">
        <ele>715.36</ele>
        <time>2012-07-28T13:16:08Z</time>
      </trkpt>
      <trkpt lat="46.77835" lon="9.21462">
        <ele>715.36</ele>
        <time>2012-07-28T13:16:16Z</time>
      </trkpt>
      <trkpt lat="46.77974" lon="9.21862">
        <ele>720.16</ele>
        <time>2012-07-28T13:16:38Z</time>
      </trkpt>
      <trkpt lat="46.7807" lon="9.21969">
        <ele>723.05</ele>
        <time>2012-07-28T13:16:46Z</time>
      </trkpt>
      <trkpt lat="46.78324" lon="9.22164">
        <ele>733.14</ele>
        <time>2012-07-28T13:17:08Z</time>
      </trkpt>
      <trkpt lat="46.78427" lon="9.22341">
        <ele>739.87</ele>
        <time>2012-07-28T13:17:19Z</time>
      </trkpt>
      <trkpt lat="46.78543" lon="9.22487">
        <ele>749.97</ele>
        <time>2012-07-28T13:17:30Z</time>
      </trkpt>
      <trkpt lat="46.78571" lon="9.22502">
        <ele>750.93</ele>
        <time>2012-07-28T13:17:33Z</time>
      </trkpt>
      <trkpt lat="46.78623" lon="9.22483">
        <ele>755.73</ele>
        <time>2012-07-28T13:17:38Z</time>
      </trkpt>
      <trkpt lat="46.78646" lon="9.22484">
        <ele>756.69</ele>
        <time>2012-07-28T13:17:40Z</time>
      </trkpt>
      <trkpt lat="46.78713" lon="9.22526">
        <ele>763.9</ele>
        <time>2012-07-28T13:17:46Z</time>
      </trkpt>
      <trkpt lat="46.78821" lon="9.22607">
        <ele>770.63</ele>
        <time>2012-07-28T13:17:58Z</time>
      </trkpt>
      <trkpt lat="46.78885" lon="9.22706">
        <ele>773.04</ele>
        <time>2012-07-28T13:18:06Z</time>
      </trkpt>
      <trkpt lat="46.78897" lon="9.22814">
        <ele>779.29</ele>
        <time>2012-07-28T13:18:13Z</time>
      </trkpt>
      <trkpt lat="46.78923" lon="9.22883">
        <ele>783.13</ele>
        <time>2012-07-28T13:18:17Z</time>
      </trkpt>
      <trkpt lat="46.7896" lon="9.22985">
        <ele>784.09</ele>
        <time>2012-07-28T13:18:22Z</time>
      </trkpt>
      <trkpt lat="46.78959" lon="9.23202">
        <ele>794.19</ele>
        <time>2012-07-28T13:18:32Z</time>
      </trkpt>
      <trkpt lat="46.78986" lon="9.23404">
        <ele>808.13</ele>
        <time>2012-07-28T13:18:41Z</time>
      </trkpt>
      <trkpt lat="46.79002" lon="9.23521">
        <ele>814.85</ele>
        <time>2012-07-28T13:18:46Z</time>
      </trkpt>
      <trkpt lat="46.79007" lon="9.23588">
        <ele>818.22</ele>
        <time>2012-07-28T13:18:49Z</time>
      </trkpt>
      <trkpt lat="46.79004" lon="9.23829">
        <ele>833.6</ele>
        <time>2012-07-28T13:19:00Z</time>
      </trkpt>
      <trkpt lat="46.79015" lon="9.23987">
        <ele>842.73</ele>
        <time>2012-07-28T13:19:08Z</time>
      </trkpt>
      <trkpt lat="46.7906" lon="9.24081">
        <ele>851.38</ele>
        <time>2012-07-28T13:19:14Z</time>
      </trkpt>
      <trkpt lat="46.79092" lon="9.24222">
        <ele>864.84</ele>
        <time>2012-07-28T13:19:21Z</time>
      </trkpt>
      <trkpt lat="46.79202" lon="9.2441">
        <ele>881.19</ele>
        <time>2012-07-28T13:19:31Z</time>
      </trkpt>
      <trkpt lat="46.79287" lon="9.2468">
        <ele>898.49</ele>
        <time>2012-07-28T13:19:45Z</time>
      </trkpt>
      <trkpt lat="46.79323" lon="9.24728">
        <ele>902.33</ele>
        <time>2012-07-28T13:19:49Z</time>
      </trkpt>
      <trkpt lat="46.7933" lon="9.24741">
        <ele>902.82</ele>
        <time>2012-07-28T13:19:50Z</time>
      </trkpt>
      <trkpt lat="46.79354" lon="9.24889">
        <ele>913.87</ele>
        <time>2012-07-28T13:19:59Z</time>
      </trkpt>
      <trkpt lat="46.79401" lon="9.24974">
        <ele>919.16</ele>
        <time>2012-07-28T13:20:05Z</time>
      </trkpt>
      <trkpt lat="46.79401" lon="9.25108">
        <ele>928.29</ele>
        <time>2012-07-28T13:20:13Z</time>
      </trkpt>
      <trkpt lat="46.79445" lon="9.25157">
        <ele>934.06</ele>
        <time>2012-07-28T13:20:18Z</time>
      </trkpt>
      <trkpt lat="46.795" lon="9.25184">
        <ele>938.86</ele>
        <time>2012-07-28T13:20:22Z</time>
      </trkpt>
      <trkpt lat="46.79589" lon="9.25252">
        <ele>943.67</ele>
        <time>2012-07-28T13:20:29Z</time>
      </trkpt>
      <trkpt lat="46.79614" lon="9.25413">
        <ele>950.88</ele>
        <time>2012-07-28T13:20:38Z</time>
      </trkpt>
      <trkpt lat="46.79687" lon="9.25587">
        <ele>962.42</ele>
        <time>2012-07-28T13:20:47Z</time>
      </trkpt>
      <trkpt lat="46.79713" lon="9.25639">
        <ele>964.34</ele>
        <time>2012-07-28T13:20:50Z</time>
      </trkpt>
      <trkpt lat="46.79773" lon="9.25691">
        <ele>970.11</ele>
        <time>2012-07-28T13:20:55Z</time>
      </trkpt>
      <trkpt lat="46.79846" lon="9.25678">
        <ele>975.39</ele>
        <time>2012-07-28T13:21:00Z</time>
      </trkpt>
      <trkpt lat="46.79916" lon="9.25636">
        <ele>978.76</ele>
        <time>2012-07-28T13:21:06Z</time>
      </trkpt>
      <trkpt lat="46.79964" lon="9.25633">
        <ele>982.6</ele>
        <time>2012-07-28T13:21:10Z</time>
      </trkpt>
      <trkpt lat="46.80236" lon="9.25626">
        <ele>996.54</ele>
        <time>2012-07-28T13:21:32Z</time>
      </trkpt>
      <trkpt lat="46.8041" lon="9.25762">
        <ele>1010.96</ele>
        <time>2012-07-28T13:21:47Z</time>
      </trkpt>
      <trkpt lat="46.80747" lon="9.25925">
        <ele>1033.07</ele>
        <time>2012-07-28T13:22:14Z</time>
      </trkpt>
      <trkpt lat="46.80783" lon="9.25961">
        <ele>1036.44</ele>
        <time>2012-07-28T13:22:18Z</time>
      </trkpt>
      <trkpt lat="46.80826" lon="9.26033">
        <ele>1041.73</ele>
        <time>2012-07-28T13:22:24Z</time>
      </trkpt>
      <trkpt lat="46.80961" lon="9.26131">
        <ele>1039.32</ele>
        <time>2012-07-28T13:22:36Z</time>
      </trkpt>
      <trkpt lat="46.81173" lon="9.26243">
        <ele>1034.04</ele>
        <time>2012-07-28T13:22:53Z</time>
      </trkpt>
      <trkpt lat="46.81357" lon="9.26448">
        <ele>1047.97</ele>
        <time>2012-07-28T13:23:08Z</time>
      </trkpt>
      <trkpt lat="46.8146" lon="9.2656">
        <ele>1053.26</ele>
        <time>2012-07-28T13:23:16Z</time>
      </trkpt>
      <trkpt lat="46.81534" lon="9.26622">
        <ele>1054.7</ele>
        <time>2012-07-28T13:23:22Z</time>
      </trkpt>
      <trkpt lat="46.81673" lon="9.26687">
        <ele>1062.87</ele>
        <time>2012-07-28T13:23:45Z</time>
      </trkpt>
      <trkpt lat="46.81779" lon="9.26697">
        <ele>1072.97</ele>
        <time>2012-07-28T13:23:56Z</time>
      </trkpt>
      <trkpt lat="46.81866" lon="9.26737">
        <ele>1081.62</ele>
        <time>2012-07-28T13:24:02Z</time>
      </trkpt>
      <trkpt lat="46.82019" lon="9.26836">
        <ele>1095.56</ele>
        <time>2012-07-28T13:24:14Z</time>
      </trkpt>
      <trkpt lat="46.82086" lon="9.26907">
        <ele>1102.77</ele>
        <time>2012-07-28T13:24:20Z</time>
      </trkpt>
      <trkpt lat="46.82157" lon="9.27003">
        <ele>1109.5</ele>
        <time>2012-07-28T13:24:27Z</time>
      </trkpt>
      <trkpt lat="46.82223" lon="9.27089">
        <ele>1112.38</ele>
        <time>2012-07-28T13:24:33Z</time>
      </trkpt>
      <trkpt lat="46.8244" lon="9.27295">
        <ele>1114.31</ele>
        <time>2012-07-28T13:24:51Z</time>
      </trkpt>
      <trkpt lat="46.82467" lon="9.27346">
        <ele>1115.27</ele>
        <time>2012-07-28T13:24:54Z</time>
      </trkpt>
      <trkpt lat="46.82537" lon="9.27578">
        <ele>1122</ele>
        <time>2012-07-28T13:25:05Z</time>
      </trkpt>
      <trkpt lat="46.82633" lon="9.27724">
        <ele>1122.48</ele>
        <time>2012-07-28T13:25:13Z</time>
      </trkpt>
      <trkpt lat="46.82724" lon="9.27796">
        <ele>1122</ele>
        <time>2012-07-28T13:25:19Z</time>
      </trkpt>
      <trkpt lat="46.82739" lon="9.27835">
        <ele>1123.92</ele>
        <time>2012-07-28T13:25:21Z</time>
      </trkpt>
      <trkpt lat="46.82752" lon="9.27798">
        <ele>1123.44</ele>
        <time>2012-07-28T13:25:23Z</time>
      </trkpt>
      <trkpt lat="46.82754" lon="9.27799">
        <ele>1111.9</ele>
        <time>2012-07-28T13:25:44Z</time>
      </trkpt>
      <trkpt lat="46.82755" lon="9.278">
        <ele>1105.17</ele>
        <time>2012-07-28T13:25:50Z</time>
      </trkpt>
      <trkpt lat="46.83559" lon="9.3105">
        <ele>970.11</ele>
        <time>2012-07-28T13:27:56Z</time>
      </trkpt>
      <trkpt lat="46.83581" lon="9.31164">
        <ele>964.82</ele>
        <time>2012-07-28T13:28:00Z</time>
      </trkpt>
      <trkpt lat="46.83608" lon="9.3134">
        <ele>955.69</ele>
        <time>2012-07-28T13:28:06Z</time>
      </trkpt>
      <trkpt lat="46.83629" lon="9.31472">
        <ele>946.07</ele>
        <time>2012-07-28T13:28:11Z</time>
      </trkpt>
      <trkpt lat="46.83633" lon="9.31522">
        <ele>943.19</ele>
        <time>2012-07-28T13:28:13Z</time>
      </trkpt>
      <trkpt lat="46.83629" lon="9.31688">
        <ele>934.54</ele>
        <time>2012-07-28T13:28:19Z</time>
      </trkpt>
      <trkpt lat="46.83628" lon="9.31738">
        <ele>929.73</ele>
        <time>2012-07-28T13:28:21Z</time>
      </trkpt>
      <trkpt lat="46.836" lon="9.31855">
        <ele>924.45</ele>
        <time>2012-07-28T13:28:26Z</time>
      </trkpt>
      <trkpt lat="46.83515" lon="9.32062">
        <ele>908.58</ele>
        <time>2012-07-28T13:28:35Z</time>
      </trkpt>
      <trkpt lat="46.83502" lon="9.32161">
        <ele>905.7</ele>
        <time>2012-07-28T13:28:39Z</time>
      </trkpt>
      <trkpt lat="46.83486" lon="9.32396">
        <ele>889.84</ele>
        <time>2012-07-28T13:28:49Z</time>
      </trkpt>
      <trkpt lat="46.83417" lon="9.3258">
        <ele>879.26</ele>
        <time>2012-07-28T13:28:59Z</time>
      </trkpt>
      <trkpt lat="46.83416" lon="9.32626">
        <ele>878.3</ele>
        <time>2012-07-28T13:29:01Z</time>
      </trkpt>
      <trkpt lat="46.83438" lon="9.32993">
        <ele>858.11</ele>
        <time>2012-07-28T13:29:19Z</time>
      </trkpt>
      <trkpt lat="46.83409" lon="9.33323">
        <ele>851.38</ele>
        <time>2012-07-28T13:29:36Z</time>
      </trkpt>
      <trkpt lat="46.83397" lon="9.33836">
        <ele>844.18</ele>
        <time>2012-07-28T13:30:05Z</time>
      </trkpt>
      <trkpt lat="46.83418" lon="9.34142">
        <ele>844.66</ele>
        <time>2012-07-28T13:30:25Z</time>
      </trkpt>
      <trkpt lat="46.8339" lon="9.34307">
        <ele>844.66</ele>
        <time>2012-07-28T13:30:34Z</time>
      </trkpt>
      <trkpt lat="46.83217" lon="9.34695">
        <ele>878.78</ele>
        <time>2012-07-28T13:32:22Z</time>
      </trkpt>
      <trkpt lat="46.83211" lon="9.34716">
        <ele>875.42</ele>
        <time>2012-07-28T13:32:32Z</time>
      </trkpt>
      <trkpt lat="46.82722" lon="9.37028">
        <ele>875.42</ele>
        <time>2012-07-28T13:32:33Z</time>
      </trkpt>
      <trkpt lat="46.82743" lon="9.37171">
        <ele>874.46</ele>
        <time>2012-07-28T13:32:39Z</time>
      </trkpt>
      <trkpt lat="46.82758" lon="9.37215">
        <ele>873.5</ele>
        <time>2012-07-28T13:32:41Z</time>
      </trkpt>
      <trkpt lat="46.82828" lon="9.37395">
        <ele>865.8</ele>
        <time>2012-07-28T13:32:50Z</time>
      </trkpt>
      <trkpt lat="46.82825" lon="9.37591">
        <ele>859.08</ele>
        <time>2012-07-28T13:32:59Z</time>
      </trkpt>
      <trkpt lat="46.82836" lon="9.37663">
        <ele>854.75</ele>
        <time>2012-07-28T13:33:02Z</time>
      </trkpt>
      <trkpt lat="46.8285" lon="9.3775">
        <ele>845.62</ele>
        <time>2012-07-28T13:33:06Z</time>
      </trkpt>
      <trkpt lat="46.82852" lon="9.37789">
        <ele>842.73</ele>
        <time>2012-07-28T13:33:08Z</time>
      </trkpt>
      <trkpt lat="46.82813" lon="9.3795">
        <ele>832.16</ele>
        <time>2012-07-28T13:33:17Z</time>
      </trkpt>
      <trkpt lat="46.82813" lon="9.38039">
        <ele>824.47</ele>
        <time>2012-07-28T13:33:22Z</time>
      </trkpt>
      <trkpt lat="46.8275" lon="9.38153">
        <ele>814.37</ele>
        <time>2012-07-28T13:33:29Z</time>
      </trkpt>
      <trkpt lat="46.82702" lon="9.38288">
        <ele>804.28</ele>
        <time>2012-07-28T13:33:36Z</time>
      </trkpt>
      <trkpt lat="46.8267" lon="9.38581">
        <ele>783.61</ele>
        <time>2012-07-28T13:33:52Z</time>
      </trkpt>
      <trkpt lat="46.82739" lon="9.38883">
        <ele>762.46</ele>
        <time>2012-07-28T13:34:07Z</time>
      </trkpt>
      <trkpt lat="46.8275" lon="9.39091">
        <ele>749.49</ele>
        <time>2012-07-28T13:34:16Z</time>
      </trkpt>
      <trkpt lat="46.82759" lon="9.39228">
        <ele>737.47</ele>
        <time>2012-07-28T13:34:22Z</time>
      </trkpt>
      <trkpt lat="46.82762" lon="9.39524">
        <ele>716.32</ele>
        <time>2012-07-28T13:34:36Z</time>
      </trkpt>
      <trkpt lat="46.82845" lon="9.39988">
        <ele>692.29</ele>
        <time>2012-07-28T13:34:59Z</time>
      </trkpt>
      <trkpt lat="46.82824" lon="9.40155">
        <ele>687</ele>
        <time>2012-07-28T13:35:06Z</time>
      </trkpt>
      <trkpt lat="46.82805" lon="9.40301">
        <ele>678.83</ele>
        <time>2012-07-28T13:35:12Z</time>
      </trkpt>
      <trkpt lat="46.82816" lon="9.40542">
        <ele>663.45</ele>
        <time>2012-07-28T13:35:23Z</time>
      </trkpt>
      <trkpt lat="46.82785" lon="9.40978">
        <ele>646.62</ele>
        <time>2012-07-28T13:35:43Z</time>
      </trkpt>
      <trkpt lat="46.82844" lon="9.41266">
        <ele>636.53</ele>
        <time>2012-07-28T13:35:56Z</time>
      </trkpt>
      <trkpt lat="46.82861" lon="9.41415">
        <ele>633.65</ele>
        <time>2012-07-28T13:36:03Z</time>
      </trkpt>
      <trkpt lat="46.82834" lon="9.41652">
        <ele>628.84</ele>
        <time>2012-07-28T13:36:20Z</time>
      </trkpt>
      <trkpt lat="46.82866" lon="9.41668">
        <ele>629.32</ele>
        <time>2012-07-28T13:36:25Z</time>
      </trkpt>
      <trkpt lat="46.82906" lon="9.417">
        <ele>626.92</ele>
        <time>2012-07-28T13:36:30Z</time>
      </trkpt>
      <trkpt lat="46.82905" lon="9.41751">
        <ele>623.55</ele>
        <time>2012-07-28T13:36:35Z</time>
      </trkpt>
      <trkpt lat="46.82875" lon="9.41749">
        <ele>622.59</ele>
        <time>2012-07-28T13:36:39Z</time>
      </trkpt>
      <trkpt lat="46.82846" lon="9.4171">
        <ele>624.51</ele>
        <time>2012-07-28T13:36:42Z</time>
      </trkpt>
      <trkpt lat="46.82772" lon="9.41611">
        <ele>621.15</ele>
        <time>2012-07-28T13:36:48Z</time>
      </trkpt>
      <trkpt lat="46.82727" lon="9.41569">
        <ele>618.75</ele>
        <time>2012-07-28T13:36:52Z</time>
      </trkpt>
      <trkpt lat="46.8253" lon="9.41423">
        <ele>612.5</ele>
        <time>2012-07-28T13:37:05Z</time>
      </trkpt>
      <trkpt lat="46.82437" lon="9.41289">
        <ele>611.06</ele>
        <time>2012-07-28T13:37:13Z</time>
      </trkpt>
      <trkpt lat="46.82346" lon="9.41007">
        <ele>612.98</ele>
        <time>2012-07-28T13:37:26Z</time>
      </trkpt>
      <trkpt lat="46.82261" lon="9.40825">
        <ele>614.9</ele>
        <time>2012-07-28T13:37:35Z</time>
      </trkpt>
      <trkpt lat="46.82135" lon="9.40676">
        <ele>615.86</ele>
        <time>2012-07-28T13:37:44Z</time>
      </trkpt>
      <trkpt lat="46.81987" lon="9.40588">
        <ele>615.86</ele>
        <time>2012-07-28T13:37:52Z</time>
      </trkpt>
      <trkpt lat="46.81825" lon="9.40567">
        <ele>615.38</ele>
        <time>2012-07-28T13:38:00Z</time>
      </trkpt>
      <trkpt lat="46.81653" lon="9.40619">
        <ele>615.38</ele>
        <time>2012-07-28T13:38:09Z</time>
      </trkpt>
      <trkpt lat="46.81449" lon="9.40738">
        <ele>615.86</ele>
        <time>2012-07-28T13:38:20Z</time>
      </trkpt>
      <trkpt lat="46.80435" lon="9.41538">
        <ele>654.31</ele>
        <time>2012-07-28T13:41:03Z</time>
      </trkpt>
      <trkpt lat="46.78364" lon="9.41551">
        <ele>647.1</ele>
        <time>2012-07-28T13:41:26Z</time>
      </trkpt>
      <trkpt lat="46.78273" lon="9.41543">
        <ele>643.74</ele>
        <time>2012-07-28T13:41:31Z</time>
      </trkpt>
      <trkpt lat="46.78169" lon="9.4155">
        <ele>640.86</ele>
        <time>2012-07-28T13:41:37Z</time>
      </trkpt>
      <trkpt lat="46.7801" lon="9.41602">
        <ele>637.97</ele>
        <time>2012-07-28T13:41:46Z</time>
      </trkpt>
      <trkpt lat="46.77614" lon="9.4186">
        <ele>633.65</ele>
        <time>2012-07-28T13:42:09Z</time>
      </trkpt>
      <trkpt lat="46.77352" lon="9.42007">
        <ele>635.09</ele>
        <time>2012-07-28T13:42:23Z</time>
      </trkpt>
      <trkpt lat="46.77081" lon="9.42104">
        <ele>637.49</ele>
        <time>2012-07-28T13:42:36Z</time>
      </trkpt>
      <trkpt lat="46.76471" lon="9.42224">
        <ele>640.86</ele>
        <time>2012-07-28T13:43:04Z</time>
      </trkpt>
      <trkpt lat="46.76229" lon="9.42304">
        <ele>644.7</ele>
        <time>2012-07-28T13:43:15Z</time>
      </trkpt>
      <trkpt lat="46.75878" lon="9.42464">
        <ele>646.62</ele>
        <time>2012-07-28T13:43:31Z</time>
      </trkpt>
      <trkpt lat="46.7398" lon="9.43449">
        <ele>654.31</ele>
        <time>2012-07-28T13:45:02Z</time>
      </trkpt>
      <trkpt lat="46.73726" lon="9.43625">
        <ele>656.24</ele>
        <time>2012-07-28T13:45:15Z</time>
      </trkpt>
      <trkpt lat="46.73493" lon="9.43836">
        <ele>658.16</ele>
        <time>2012-07-28T13:45:28Z</time>
      </trkpt>
      <trkpt lat="46.73282" lon="9.43968">
        <ele>660.56</ele>
        <time>2012-07-28T13:45:39Z</time>
      </trkpt>
      <trkpt lat="46.73057" lon="9.44037">
        <ele>663.45</ele>
        <time>2012-07-28T13:45:50Z</time>
      </trkpt>
      <trkpt lat="46.72823" lon="9.44039">
        <ele>665.85</ele>
        <time>2012-07-28T13:46:01Z</time>
      </trkpt>
      <trkpt lat="46.72541" lon="9.44001">
        <ele>665.37</ele>
        <time>2012-07-28T13:46:15Z</time>
      </trkpt>
      <trkpt lat="46.72263" lon="9.43998">
        <ele>667.77</ele>
        <time>2012-07-28T13:46:29Z</time>
      </trkpt>
      <trkpt lat="46.72027" lon="9.44064">
        <ele>668.73</ele>
        <time>2012-07-28T13:46:41Z</time>
      </trkpt>
      <trkpt lat="46.71801" lon="9.44197">
        <ele>670.66</ele>
        <time>2012-07-28T13:46:53Z</time>
      </trkpt>
      <trkpt lat="46.7148" lon="9.44439">
        <ele>674.5</ele>
        <time>2012-07-28T13:47:12Z</time>
      </trkpt>
      <trkpt lat="46.71437" lon="9.44465">
        <ele>673.54</ele>
        <time>2012-07-28T13:47:16Z</time>
      </trkpt>
      <trkpt lat="46.71402" lon="9.4445">
        <ele>674.02</ele>
        <time>2012-07-28T13:47:25Z</time>
      </trkpt>
      <trkpt lat="46.71381" lon="9.44465">
        <ele>674.5</ele>
        <time>2012-07-28T13:47:28Z</time>
      </trkpt>
      <trkpt lat="46.71222" lon="9.44487">
        <ele>667.77</ele>
        <time>2012-07-28T13:47:47Z</time>
      </trkpt>
      <trkpt lat="46.71222" lon="9.44489">
        <ele>667.77</ele>
        <time>2012-07-28T13:47:48Z</time>
      </trkpt>
      <trkpt lat="46.71218" lon="9.44467">
        <ele>665.85</ele>
        <time>2012-07-28T13:58:49Z</time>
      </trkpt>
      <trkpt lat="46.71249" lon="9.44556">
        <ele>663.93</ele>
        <time>2012-07-28T14:03:59Z</time>
      </trkpt>
      <trkpt lat="46.71272" lon="9.44548">
        <ele>665.37</ele>
        <time>2012-07-28T14:04:02Z</time>
      </trkpt>
      <trkpt lat="46.71305" lon="9.44528">
        <ele>662.97</ele>
        <time>2012-07-28T14:04:07Z</time>
      </trkpt>
      <trkpt lat="46.71294" lon="9.44467">
        <ele>663.93</ele>
        <time>2012-07-28T14:04:15Z</time>
      </trkpt>
      <trkpt lat="46.71324" lon="9.44464">
        <ele>668.25</ele>
        <time>2012-07-28T14:04:18Z</time>
      </trkpt>
      <trkpt lat="46.71381" lon="9.4448">
        <ele>668.25</ele>
        <time>2012-07-28T14:04:28Z</time>
      </trkpt>
      <trkpt lat="46.71383" lon="9.44508">
        <ele>668.25</ele>
        <time>2012-07-28T14:04:31Z</time>
      </trkpt>
      <trkpt lat="46.71278" lon="9.44649">
        <ele>668.25</ele>
        <time>2012-07-28T14:04:41Z</time>
      </trkpt>
      <trkpt lat="46.71087" lon="9.44791">
        <ele>674.5</ele>
        <time>2012-07-28T14:04:52Z</time>
      </trkpt>
      <trkpt lat="46.70948" lon="9.44851">
        <ele>676.42</ele>
        <time>2012-07-28T14:04:59Z</time>
      </trkpt>
      <trkpt lat="46.70796" lon="9.44882">
        <ele>678.83</ele>
        <time>2012-07-28T14:05:06Z</time>
      </trkpt>
      <trkpt lat="46.70571" lon="9.44871">
        <ele>680.27</ele>
        <time>2012-07-28T14:05:16Z</time>
      </trkpt>
      <trkpt lat="46.70041" lon="9.44705">
        <ele>682.19</ele>
        <time>2012-07-28T14:05:40Z</time>
      </trkpt>
      <trkpt lat="46.69762" lon="9.44587">
        <ele>690.84</ele>
        <time>2012-07-28T14:05:57Z</time>
      </trkpt>
      <trkpt lat="46.69714" lon="9.44574">
        <ele>691.33</ele>
        <time>2012-07-28T14:06:05Z</time>
      </trkpt>
      <trkpt lat="46.69709" lon="9.44576">
        <ele>691.33</ele>
        <time>2012-07-28T14:06:06Z</time>
      </trkpt>
      <trkpt lat="46.69594" lon="9.44936">
        <ele>704.3</ele>
        <time>2012-07-28T14:06:24Z</time>
      </trkpt>
      <trkpt lat="46.69569" lon="9.45055">
        <ele>799.47</ele>
        <time>2012-07-28T14:07:37Z</time>
      </trkpt>
      <trkpt lat="46.69921" lon="9.46835">
        <ele>799.47</ele>
        <time>2012-07-28T14:07:38Z</time>
      </trkpt>
      <trkpt lat="46.69856" lon="9.46983">
        <ele>809.09</ele>
        <time>2012-07-28T14:07:44Z</time>
      </trkpt>
      <trkpt lat="46.69803" lon="9.47096">
        <ele>812.93</ele>
        <time>2012-07-28T14:07:49Z</time>
      </trkpt>
      <trkpt lat="46.69726" lon="9.47153">
        <ele>819.18</ele>
        <time>2012-07-28T14:07:54Z</time>
      </trkpt>
      <trkpt lat="46.69657" lon="9.47206">
        <ele>820.62</ele>
        <time>2012-07-28T14:07:59Z</time>
      </trkpt>
      <trkpt lat="46.6964" lon="9.47327">
        <ele>826.39</ele>
        <time>2012-07-28T14:08:04Z</time>
      </trkpt>
      <trkpt lat="46.69628" lon="9.47426">
        <ele>826.39</ele>
        <time>2012-07-28T14:08:08Z</time>
      </trkpt>
      <trkpt lat="46.69658" lon="9.47576">
        <ele>829.76</ele>
        <time>2012-07-28T14:08:14Z</time>
      </trkpt>
      <trkpt lat="46.69652" lon="9.47658">
        <ele>832.64</ele>
        <time>2012-07-28T14:08:17Z</time>
      </trkpt>
      <trkpt lat="46.69621" lon="9.47801">
        <ele>833.6</ele>
        <time>2012-07-28T14:08:23Z</time>
      </trkpt>
      <trkpt lat="46.69541" lon="9.4795">
        <ele>834.56</ele>
        <time>2012-07-28T14:08:31Z</time>
      </trkpt>
      <trkpt lat="46.69422" lon="9.4798">
        <ele>836.96</ele>
        <time>2012-07-28T14:08:39Z</time>
      </trkpt>
      <trkpt lat="46.69401" lon="9.4803">
        <ele>839.85</ele>
        <time>2012-07-28T14:08:42Z</time>
      </trkpt>
      <trkpt lat="46.69392" lon="9.48089">
        <ele>838.41</ele>
        <time>2012-07-28T14:08:45Z</time>
      </trkpt>
      <trkpt lat="46.69363" lon="9.48131">
        <ele>840.81</ele>
        <time>2012-07-28T14:08:48Z</time>
      </trkpt>
      <trkpt lat="46.69351" lon="9.48163">
        <ele>840.81</ele>
        <time>2012-07-28T14:08:50Z</time>
      </trkpt>
      <trkpt lat="46.69343" lon="9.48325">
        <ele>844.18</ele>
        <time>2012-07-28T14:08:58Z</time>
      </trkpt>
      <trkpt lat="46.69274" lon="9.48508">
        <ele>845.62</ele>
        <time>2012-07-28T14:09:08Z</time>
      </trkpt>
      <trkpt lat="46.693" lon="9.48698">
        <ele>848.98</ele>
        <time>2012-07-28T14:09:18Z</time>
      </trkpt>
      <trkpt lat="46.6928" lon="9.48887">
        <ele>854.75</ele>
        <time>2012-07-28T14:09:26Z</time>
      </trkpt>
      <trkpt lat="46.69269" lon="9.49086">
        <ele>858.59</ele>
        <time>2012-07-28T14:09:34Z</time>
      </trkpt>
      <trkpt lat="46.69288" lon="9.4923">
        <ele>857.63</ele>
        <time>2012-07-28T14:09:40Z</time>
      </trkpt>
      <trkpt lat="46.6928" lon="9.49291">
        <ele>857.63</ele>
        <time>2012-07-28T14:09:43Z</time>
      </trkpt>
      <trkpt lat="46.69202" lon="9.49382">
        <ele>861.96</ele>
        <time>2012-07-28T14:09:49Z</time>
      </trkpt>
      <trkpt lat="46.69054" lon="9.4955">
        <ele>860.52</ele>
        <time>2012-07-28T14:10:00Z</time>
      </trkpt>
      <trkpt lat="46.69052" lon="9.49597">
        <ele>860.04</ele>
        <time>2012-07-28T14:10:02Z</time>
      </trkpt>
      <trkpt lat="46.69091" lon="9.49706">
        <ele>861</ele>
        <time>2012-07-28T14:10:05Z</time>
      </trkpt>
      <trkpt lat="46.69078" lon="9.4975">
        <ele>861.48</ele>
        <time>2012-07-28T14:10:07Z</time>
      </trkpt>
      <trkpt lat="46.69067" lon="9.49767">
        <ele>861.48</ele>
        <time>2012-07-28T14:10:08Z</time>
      </trkpt>
      <trkpt lat="46.6889" lon="9.49912">
        <ele>864.84</ele>
        <time>2012-07-28T14:10:37Z</time>
      </trkpt>
      <trkpt lat="46.68678" lon="9.50566">
        <ele>861.48</ele>
        <time>2012-07-28T14:10:48Z</time>
      </trkpt>
      <trkpt lat="46.68579" lon="9.50689">
        <ele>860.04</ele>
        <time>2012-07-28T14:10:56Z</time>
      </trkpt>
      <trkpt lat="46.68575" lon="9.50776">
        <ele>862.44</ele>
        <time>2012-07-28T14:11:00Z</time>
      </trkpt>
      <trkpt lat="46.68592" lon="9.50841">
        <ele>862.92</ele>
        <time>2012-07-28T14:11:03Z</time>
      </trkpt>
      <trkpt lat="46.68616" lon="9.50967">
        <ele>861.48</ele>
        <time>2012-07-28T14:11:09Z</time>
      </trkpt>
      <trkpt lat="46.6858" lon="9.51063">
        <ele>864.36</ele>
        <time>2012-07-28T14:11:14Z</time>
      </trkpt>
      <trkpt lat="46.68519" lon="9.51152">
        <ele>865.8</ele>
        <time>2012-07-28T14:11:19Z</time>
      </trkpt>
      <trkpt lat="46.68489" lon="9.51219">
        <ele>863.4</ele>
        <time>2012-07-28T14:11:31Z</time>
      </trkpt>
      <trkpt lat="46.6847" lon="9.51249">
        <ele>855.71</ele>
        <time>2012-07-28T14:11:53Z</time>
      </trkpt>
      <trkpt lat="46.6847" lon="9.51249">
        <ele>852.35</ele>
        <time>2012-07-28T14:11:59Z</time>
      </trkpt>
      <trkpt lat="46.68468" lon="9.51255">
        <ele>853.31</ele>
        <time>2012-07-28T14:12:04Z</time>
      </trkpt>
      <trkpt lat="46.68462" lon="9.51269">
        <ele>847.54</ele>
        <time>2012-07-28T14:12:12Z</time>
      </trkpt>
      <trkpt lat="46.68099" lon="9.52648">
        <ele>848.98</ele>
        <time>2012-07-28T14:12:18Z</time>
      </trkpt>
      <trkpt lat="46.68048" lon="9.52722">
        <ele>849.94</ele>
        <time>2012-07-28T14:12:22Z</time>
      </trkpt>
      <trkpt lat="46.67944" lon="9.52837">
        <ele>847.06</ele>
        <time>2012-07-28T14:12:29Z</time>
      </trkpt>
      <trkpt lat="46.6792" lon="9.52898">
        <ele>847.54</ele>
        <time>2012-07-28T14:12:32Z</time>
      </trkpt>
      <trkpt lat="46.6792" lon="9.52969">
        <ele>849.46</ele>
        <time>2012-07-28T14:12:35Z</time>
      </trkpt>
      <trkpt lat="46.67956" lon="9.5309">
        <ele>851.38</ele>
        <time>2012-07-28T14:12:40Z</time>
      </trkpt>
      <trkpt lat="46.6798" lon="9.53239">
        <ele>852.83</ele>
        <time>2012-07-28T14:12:46Z</time>
      </trkpt>
      <trkpt lat="46.67917" lon="9.5374">
        <ele>883.59</ele>
        <time>2012-07-28T14:13:05Z</time>
      </trkpt>
      <trkpt lat="46.67908" lon="9.53826">
        <ele>886.95</ele>
        <time>2012-07-28T14:13:08Z</time>
      </trkpt>
      <trkpt lat="46.67871" lon="9.54128">
        <ele>895.12</ele>
        <time>2012-07-28T14:13:21Z</time>
      </trkpt>
      <trkpt lat="46.67816" lon="9.54235">
        <ele>896.57</ele>
        <time>2012-07-28T14:13:27Z</time>
      </trkpt>
      <trkpt lat="46.67669" lon="9.54371">
        <ele>931.17</ele>
        <time>2012-07-28T14:14:29Z</time>
      </trkpt>
      <trkpt lat="46.67329" lon="9.55439">
        <ele>932.62</ele>
        <time>2012-07-28T14:14:31Z</time>
      </trkpt>
      <trkpt lat="46.67388" lon="9.55757">
        <ele>939.35</ele>
        <time>2012-07-28T14:14:46Z</time>
      </trkpt>
      <trkpt lat="46.6737" lon="9.55944">
        <ele>945.59</ele>
        <time>2012-07-28T14:14:56Z</time>
      </trkpt>
      <trkpt lat="46.67326" lon="9.5608">
        <ele>950.88</ele>
        <time>2012-07-28T14:15:08Z</time>
      </trkpt>
      <trkpt lat="46.67228" lon="9.56256">
        <ele>953.28</ele>
        <time>2012-07-28T14:15:19Z</time>
      </trkpt>
      <trkpt lat="46.67098" lon="9.56435">
        <ele>946.07</ele>
        <time>2012-07-28T14:15:31Z</time>
      </trkpt>
      <trkpt lat="46.66941" lon="9.5656">
        <ele>940.79</ele>
        <time>2012-07-28T14:15:43Z</time>
      </trkpt>
      <trkpt lat="46.66906" lon="9.56622">
        <ele>939.35</ele>
        <time>2012-07-28T14:15:46Z</time>
      </trkpt>
      <trkpt lat="46.66759" lon="9.56926">
        <ele>914.83</ele>
        <time>2012-07-28T14:16:00Z</time>
      </trkpt>
      <trkpt lat="46.66684" lon="9.57042">
        <ele>902.33</ele>
        <time>2012-07-28T14:16:08Z</time>
      </trkpt>
      <trkpt lat="46.66526" lon="9.5712">
        <ele>893.2</ele>
        <time>2012-07-28T14:16:22Z</time>
      </trkpt>
      <trkpt lat="46.66445" lon="9.57116">
        <ele>893.2</ele>
        <time>2012-07-28T14:16:31Z</time>
      </trkpt>
      <trkpt lat="46.66436" lon="9.57117">
        <ele>892.72</ele>
        <time>2012-07-28T14:16:32Z</time>
      </trkpt>
      <trkpt lat="46.66406" lon="9.57156">
        <ele>887.91</ele>
        <time>2012-07-28T14:16:39Z</time>
      </trkpt>
      <trkpt lat="46.66374" lon="9.57135">
        <ele>886.95</ele>
        <time>2012-07-28T14:16:51Z</time>
      </trkpt>
      <trkpt lat="46.66387" lon="9.57135">
        <ele>886.95</ele>
        <time>2012-07-28T14:17:03Z</time>
      </trkpt>
      <trkpt lat="46.66391" lon="9.57098">
        <ele>887.43</ele>
        <time>2012-07-28T14:22:02Z</time>
      </trkpt>
      <trkpt lat="46.66389" lon="9.57093">
        <ele>886.47</ele>
        <time>2012-07-28T14:23:13Z</time>
      </trkpt>
      <trkpt lat="46.664" lon="9.57167">
        <ele>887.91</ele>
        <time>2012-07-28T14:25:13Z</time>
      </trkpt>
      <trkpt lat="46.66325" lon="9.57348">
        <ele>877.82</ele>
        <time>2012-07-28T14:25:26Z</time>
      </trkpt>
      <trkpt lat="46.66256" lon="9.57605">
        <ele>860.04</ele>
        <time>2012-07-28T14:25:43Z</time>
      </trkpt>
      <trkpt lat="46.66249" lon="9.57661">
        <ele>855.23</ele>
        <time>2012-07-28T14:25:50Z</time>
      </trkpt>
      <trkpt lat="46.66229" lon="9.57667">
        <ele>856.19</ele>
        <time>2012-07-28T14:25:54Z</time>
      </trkpt>
      <trkpt lat="46.66207" lon="9.57621">
        <ele>861</ele>
        <time>2012-07-28T14:26:00Z</time>
      </trkpt>
      <trkpt lat="46.66193" lon="9.57568">
        <ele>863.4</ele>
        <time>2012-07-28T14:26:07Z</time>
      </trkpt>
      <trkpt lat="46.66157" lon="9.57604">
        <ele>869.65</ele>
        <time>2012-07-28T14:26:15Z</time>
      </trkpt>
      <trkpt lat="46.66139" lon="9.57609">
        <ele>871.57</ele>
        <time>2012-07-28T14:26:19Z</time>
      </trkpt>
      <trkpt lat="46.66096" lon="9.57576">
        <ele>867.25</ele>
        <time>2012-07-28T14:26:27Z</time>
      </trkpt>
      <trkpt lat="46.66056" lon="9.5759">
        <ele>863.4</ele>
        <time>2012-07-28T14:26:34Z</time>
      </trkpt>
      <trkpt lat="46.6604" lon="9.57527">
        <ele>861</ele>
        <time>2012-07-28T14:27:00Z</time>
      </trkpt>
      <trkpt lat="46.66058" lon="9.57592">
        <ele>862.92</ele>
        <time>2012-07-28T14:28:12Z</time>
      </trkpt>
      <trkpt lat="46.66127" lon="9.57598">
        <ele>870.13</ele>
        <time>2012-07-28T14:28:21Z</time>
      </trkpt>
      <trkpt lat="46.66155" lon="9.57621">
        <ele>871.57</ele>
        <time>2012-07-28T14:28:29Z</time>
      </trkpt>
      <trkpt lat="46.66187" lon="9.57571">
        <ele>865.8</ele>
        <time>2012-07-28T14:28:36Z</time>
      </trkpt>
      <trkpt lat="46.66212" lon="9.5766">
        <ele>858.59</ele>
        <time>2012-07-28T14:28:44Z</time>
      </trkpt>
      <trkpt lat="46.66238" lon="9.57682">
        <ele>856.67</ele>
        <time>2012-07-28T14:28:48Z</time>
      </trkpt>
      <trkpt lat="46.66265" lon="9.57675">
        <ele>855.23</ele>
        <time>2012-07-28T14:28:59Z</time>
      </trkpt>
      <trkpt lat="46.6627" lon="9.57695">
        <ele>854.75</ele>
        <time>2012-07-28T14:29:01Z</time>
      </trkpt>
      <trkpt lat="46.66194" lon="9.57876">
        <ele>855.71</ele>
        <time>2012-07-28T14:29:17Z</time>
      </trkpt>
      <trkpt lat="46.66178" lon="9.57902">
        <ele>856.67</ele>
        <time>2012-07-28T14:29:21Z</time>
      </trkpt>
      <trkpt lat="46.66158" lon="9.57913">
        <ele>856.67</ele>
        <time>2012-07-28T14:29:25Z</time>
      </trkpt>
      <trkpt lat="46.66122" lon="9.57974">
        <ele>859.56</ele>
        <time>2012-07-28T14:29:32Z</time>
      </trkpt>
      <trkpt lat="46.66117" lon="9.57987">
        <ele>859.08</ele>
        <time>2012-07-28T14:29:33Z</time>
      </trkpt>
      <trkpt lat="46.66091" lon="9.58149">
        <ele>871.09</ele>
        <time>2012-07-28T14:29:42Z</time>
      </trkpt>
      <trkpt lat="46.6606" lon="9.58215">
        <ele>874.94</ele>
        <time>2012-07-28T14:29:46Z</time>
      </trkpt>
      <trkpt lat="46.65953" lon="9.58307">
        <ele>886.47</ele>
        <time>2012-07-28T14:29:56Z</time>
      </trkpt>
      <trkpt lat="46.65919" lon="9.58308">
        <ele>888.88</ele>
        <time>2012-07-28T14:29:59Z</time>
      </trkpt>
      <trkpt lat="46.65888" lon="9.5828">
        <ele>891.76</ele>
        <time>2012-07-28T14:30:02Z</time>
      </trkpt>
      <trkpt lat="46.65728" lon="9.57736">
        <ele>931.17</ele>
        <time>2012-07-28T14:30:32Z</time>
      </trkpt>
      <trkpt lat="46.65572" lon="9.57493">
        <ele>951.36</ele>
        <time>2012-07-28T14:30:49Z</time>
      </trkpt>
      <trkpt lat="46.6549" lon="9.5746">
        <ele>961.46</ele>
        <time>2012-07-28T14:30:56Z</time>
      </trkpt>
      <trkpt lat="46.6544" lon="9.57484">
        <ele>966.26</ele>
        <time>2012-07-28T14:31:01Z</time>
      </trkpt>
      <trkpt lat="46.65411" lon="9.57567">
        <ele>973.47</ele>
        <time>2012-07-28T14:31:07Z</time>
      </trkpt>
      <trkpt lat="46.65383" lon="9.57633">
        <ele>977.8</ele>
        <time>2012-07-28T14:31:13Z</time>
      </trkpt>
      <trkpt lat="46.65262" lon="9.57652">
        <ele>990.78</ele>
        <time>2012-07-28T14:31:24Z</time>
      </trkpt>
      <trkpt lat="46.65136" lon="9.57714">
        <ele>1001.35</ele>
        <time>2012-07-28T14:31:35Z</time>
      </trkpt>
      <trkpt lat="46.65018" lon="9.57693">
        <ele>1014.33</ele>
        <time>2012-07-28T14:31:46Z</time>
      </trkpt>
      <trkpt lat="46.64997" lon="9.57727">
        <ele>1017.69</ele>
        <time>2012-07-28T14:31:49Z</time>
      </trkpt>
      <trkpt lat="46.64976" lon="9.57823">
        <ele>1026.34</ele>
        <time>2012-07-28T14:31:55Z</time>
      </trkpt>
      <trkpt lat="46.64921" lon="9.57916">
        <ele>1036.44</ele>
        <time>2012-07-28T14:32:00Z</time>
      </trkpt>
      <trkpt lat="46.64892" lon="9.57972">
        <ele>1036.44</ele>
        <time>2012-07-28T14:32:04Z</time>
      </trkpt>
      <trkpt lat="46.64838" lon="9.57985">
        <ele>1042.21</ele>
        <time>2012-07-28T14:32:11Z</time>
      </trkpt>
      <trkpt lat="46.64815" lon="9.5807">
        <ele>1048.45</ele>
        <time>2012-07-28T14:32:20Z</time>
      </trkpt>
      <trkpt lat="46.64743" lon="9.5811">
        <ele>1058.07</ele>
        <time>2012-07-28T14:32:27Z</time>
      </trkpt>
      <trkpt lat="46.64689" lon="9.58192">
        <ele>1070.57</ele>
        <time>2012-07-28T14:32:32Z</time>
      </trkpt>
      <trkpt lat="46.64578" lon="9.58337">
        <ele>1081.14</ele>
        <time>2012-07-28T14:32:40Z</time>
      </trkpt>
      <trkpt lat="46.6447" lon="9.58404">
        <ele>1090.75</ele>
        <time>2012-07-28T14:32:46Z</time>
      </trkpt>
      <trkpt lat="46.64383" lon="9.58498">
        <ele>1095.08</ele>
        <time>2012-07-28T14:32:52Z</time>
      </trkpt>
      <trkpt lat="46.64322" lon="9.58478">
        <ele>1101.81</ele>
        <time>2012-07-28T14:32:56Z</time>
      </trkpt>
      <trkpt lat="46.64294" lon="9.58453">
        <ele>1105.17</ele>
        <time>2012-07-28T14:32:58Z</time>
      </trkpt>
      <trkpt lat="46.64261" lon="9.58435">
        <ele>1105.17</ele>
        <time>2012-07-28T14:33:01Z</time>
      </trkpt>
      <trkpt lat="46.64243" lon="9.58448">
        <ele>1106.61</ele>
        <time>2012-07-28T14:33:03Z</time>
      </trkpt>
      <trkpt lat="46.64237" lon="9.58485">
        <ele>1109.98</ele>
        <time>2012-07-28T14:33:05Z</time>
      </trkpt>
      <trkpt lat="46.64235" lon="9.58546">
        <ele>1111.9</ele>
        <time>2012-07-28T14:33:09Z</time>
      </trkpt>
      <trkpt lat="46.64182" lon="9.58562">
        <ele>1120.55</ele>
        <time>2012-07-28T14:33:13Z</time>
      </trkpt>
      <trkpt lat="46.64106" lon="9.58596">
        <ele>1124.88</ele>
        <time>2012-07-28T14:33:18Z</time>
      </trkpt>
      <trkpt lat="46.63867" lon="9.58514">
        <ele>1149.39</ele>
        <time>2012-07-28T14:33:57Z</time>
      </trkpt>
      <trkpt lat="46.63114" lon="9.58723">
        <ele>1161.89</ele>
        <time>2012-07-28T14:34:04Z</time>
      </trkpt>
      <trkpt lat="46.63059" lon="9.58766">
        <ele>1162.85</ele>
        <time>2012-07-28T14:34:08Z</time>
      </trkpt>
      <trkpt lat="46.63039" lon="9.58748">
        <ele>1165.26</ele>
        <time>2012-07-28T14:34:10Z</time>
      </trkpt>
      <trkpt lat="46.63032" lon="9.58707">
        <ele>1170.54</ele>
        <time>2012-07-28T14:34:12Z</time>
      </trkpt>
      <trkpt lat="46.63068" lon="9.58613">
        <ele>1177.27</ele>
        <time>2012-07-28T14:34:17Z</time>
      </trkpt>
      <trkpt lat="46.63076" lon="9.58556">
        <ele>1179.67</ele>
        <time>2012-07-28T14:34:20Z</time>
      </trkpt>
      <trkpt lat="46.63059" lon="9.58521">
        <ele>1181.6</ele>
        <time>2012-07-28T14:34:22Z</time>
      </trkpt>
      <trkpt lat="46.63031" lon="9.58502">
        <ele>1183.52</ele>
        <time>2012-07-28T14:34:24Z</time>
      </trkpt>
      <trkpt lat="46.62892" lon="9.58419">
        <ele>1185.92</ele>
        <time>2012-07-28T14:34:33Z</time>
      </trkpt>
      <trkpt lat="46.62822" lon="9.58414">
        <ele>1183.52</ele>
        <time>2012-07-28T14:34:37Z</time>
      </trkpt>
      <trkpt lat="46.62605" lon="9.58573">
        <ele>1183.52</ele>
        <time>2012-07-28T14:34:49Z</time>
      </trkpt>
      <trkpt lat="46.62545" lon="9.58625">
        <ele>1179.19</ele>
        <time>2012-07-28T14:34:53Z</time>
      </trkpt>
      <trkpt lat="46.62521" lon="9.58663">
        <ele>1181.12</ele>
        <time>2012-07-28T14:34:55Z</time>
      </trkpt>
      <trkpt lat="46.62485" lon="9.58741">
        <ele>1175.83</ele>
        <time>2012-07-28T14:34:59Z</time>
      </trkpt>
      <trkpt lat="46.62404" lon="9.58796">
        <ele>1176.79</ele>
        <time>2012-07-28T14:35:04Z</time>
      </trkpt>
      <trkpt lat="46.6236" lon="9.58848">
        <ele>1178.71</ele>
        <time>2012-07-28T14:35:07Z</time>
      </trkpt>
      <trkpt lat="46.62283" lon="9.58943">
        <ele>1177.75</ele>
        <time>2012-07-28T14:35:13Z</time>
      </trkpt>
      <trkpt lat="46.62232" lon="9.58967">
        <ele>1179.19</ele>
        <time>2012-07-28T14:35:16Z</time>
      </trkpt>
      <trkpt lat="46.62106" lon="9.58986">
        <ele>1179.67</ele>
        <time>2012-07-28T14:35:23Z</time>
      </trkpt>
      <trkpt lat="46.61735" lon="9.59213">
        <ele>1180.16</ele>
        <time>2012-07-28T14:35:41Z</time>
      </trkpt>
      <trkpt lat="46.61655" lon="9.59254">
        <ele>1179.19</ele>
        <time>2012-07-28T14:35:45Z</time>
      </trkpt>
      <trkpt lat="46.61548" lon="9.59349">
        <ele>1180.64</ele>
        <time>2012-07-28T14:35:51Z</time>
      </trkpt>
      <trkpt lat="46.61528" lon="9.59357">
        <ele>1179.67</ele>
        <time>2012-07-28T14:35:52Z</time>
      </trkpt>
      <trkpt lat="46.61462" lon="9.59357">
        <ele>1183.04</ele>
        <time>2012-07-28T14:35:55Z</time>
      </trkpt>
      <trkpt lat="46.61418" lon="9.59333">
        <ele>1184.48</ele>
        <time>2012-07-28T14:35:57Z</time>
      </trkpt>
      <trkpt lat="46.61283" lon="9.59223">
        <ele>1177.75</ele>
        <time>2012-07-28T14:36:04Z</time>
      </trkpt>
      <trkpt lat="46.61225" lon="9.59194">
        <ele>1178.71</ele>
        <time>2012-07-28T14:36:07Z</time>
      </trkpt>
      <trkpt lat="46.60883" lon="9.59147">
        <ele>1175.35</ele>
        <time>2012-07-28T14:36:32Z</time>
      </trkpt>
      <trkpt lat="46.60701" lon="9.59171">
        <ele>1185.92</ele>
        <time>2012-07-28T14:36:49Z</time>
      </trkpt>
      <trkpt lat="46.603" lon="9.59271">
        <ele>1202.75</ele>
        <time>2012-07-28T14:37:16Z</time>
      </trkpt>
      <trkpt lat="46.60206" lon="9.59296">
        <ele>1205.15</ele>
        <time>2012-07-28T14:37:22Z</time>
      </trkpt>
      <trkpt lat="46.60082" lon="9.59341">
        <ele>1204.67</ele>
        <time>2012-07-28T14:37:31Z</time>
      </trkpt>
      <trkpt lat="46.5998" lon="9.59434">
        <ele>1203.71</ele>
        <time>2012-07-28T14:37:40Z</time>
      </trkpt>
      <trkpt lat="46.59748" lon="9.5968">
        <ele>1200.34</ele>
        <time>2012-07-28T14:38:04Z</time>
      </trkpt>
      <trkpt lat="46.59672" lon="9.59779">
        <ele>1197.46</ele>
        <time>2012-07-28T14:38:13Z</time>
      </trkpt>
      <trkpt lat="46.59618" lon="9.59907">
        <ele>1198.42</ele>
        <time>2012-07-28T14:38:33Z</time>
      </trkpt>
      <trkpt lat="46.59619" lon="9.59906">
        <ele>1198.42</ele>
        <time>2012-07-28T14:38:34Z</time>
      </trkpt>
      <trkpt lat="46.59668" lon="9.59782">
        <ele>1196.98</ele>
        <time>2012-07-28T14:39:01Z</time>
      </trkpt>
      <trkpt lat="46.59663" lon="9.59815">
        <ele>1210.92</ele>
        <time>2012-07-28T15:13:41Z</time>
      </trkpt>
      <trkpt lat="46.59551" lon="9.60043">
        <ele>1215.24</ele>
        <time>2012-07-28T15:16:49Z</time>
      </trkpt>
      <trkpt lat="46.59276" lon="9.60639">
        <ele>1225.34</ele>
        <time>2012-07-28T15:17:25Z</time>
      </trkpt>
      <trkpt lat="46.59177" lon="9.60775">
        <ele>1231.59</ele>
        <time>2012-07-28T15:17:33Z</time>
      </trkpt>
      <trkpt lat="46.59062" lon="9.60917">
        <ele>1229.66</ele>
        <time>2012-07-28T15:17:42Z</time>
      </trkpt>
      <trkpt lat="46.58912" lon="9.61006">
        <ele>1227.26</ele>
        <time>2012-07-28T15:17:51Z</time>
      </trkpt>
      <trkpt lat="46.58565" lon="9.61318">
        <ele>1230.62</ele>
        <time>2012-07-28T15:18:15Z</time>
      </trkpt>
      <trkpt lat="46.58341" lon="9.61625">
        <ele>1232.07</ele>
        <time>2012-07-28T15:18:44Z</time>
      </trkpt>
      <trkpt lat="46.58225" lon="9.61829">
        <ele>1245.04</ele>
        <time>2012-07-28T15:19:03Z</time>
      </trkpt>
      <trkpt lat="46.58023" lon="9.62023">
        <ele>1254.66</ele>
        <time>2012-07-28T15:19:25Z</time>
      </trkpt>
      <trkpt lat="46.57992" lon="9.62065">
        <ele>1256.1</ele>
        <time>2012-07-28T15:19:28Z</time>
      </trkpt>
      <trkpt lat="46.57848" lon="9.6229">
        <ele>1259.46</ele>
        <time>2012-07-28T15:19:41Z</time>
      </trkpt>
      <trkpt lat="46.57708" lon="9.6245">
        <ele>1257.54</ele>
        <time>2012-07-28T15:19:53Z</time>
      </trkpt>
      <trkpt lat="46.57671" lon="9.62543">
        <ele>1256.58</ele>
        <time>2012-07-28T15:20:01Z</time>
      </trkpt>
      <trkpt lat="46.57642" lon="9.62534">
        <ele>1257.06</ele>
        <time>2012-07-28T15:20:05Z</time>
      </trkpt>
      <trkpt lat="46.57617" lon="9.62465">
        <ele>1263.79</ele>
        <time>2012-07-28T15:20:11Z</time>
      </trkpt>
      <trkpt lat="46.57554" lon="9.62378">
        <ele>1273.88</ele>
        <time>2012-07-28T15:20:17Z</time>
      </trkpt>
      <trkpt lat="46.5752" lon="9.62332">
        <ele>1278.69</ele>
        <time>2012-07-28T15:20:20Z</time>
      </trkpt>
      <trkpt lat="46.57476" lon="9.62264">
        <ele>1278.69</ele>
        <time>2012-07-28T15:20:25Z</time>
      </trkpt>
      <trkpt lat="46.57458" lon="9.6226">
        <ele>1281.09</ele>
        <time>2012-07-28T15:20:28Z</time>
      </trkpt>
      <trkpt lat="46.57387" lon="9.62324">
        <ele>1292.63</ele>
        <time>2012-07-28T15:20:38Z</time>
      </trkpt>
      <trkpt lat="46.57309" lon="9.62315">
        <ele>1296.96</ele>
        <time>2012-07-28T15:20:44Z</time>
      </trkpt>
      <trkpt lat="46.57267" lon="9.62364">
        <ele>1302.24</ele>
        <time>2012-07-28T15:20:49Z</time>
      </trkpt>
      <trkpt lat="46.57207" lon="9.62398">
        <ele>1308.97</ele>
        <time>2012-07-28T15:20:53Z</time>
      </trkpt>
      <trkpt lat="46.57103" lon="9.62424">
        <ele>1318.1</ele>
        <time>2012-07-28T15:21:00Z</time>
      </trkpt>
      <trkpt lat="46.57011" lon="9.62362">
        <ele>1326.28</ele>
        <time>2012-07-28T15:21:08Z</time>
      </trkpt>
      <trkpt lat="46.56942" lon="9.62346">
        <ele>1333.49</ele>
        <time>2012-07-28T15:21:13Z</time>
      </trkpt>
      <trkpt lat="46.5689" lon="9.62319">
        <ele>1336.85</ele>
        <time>2012-07-28T15:21:18Z</time>
      </trkpt>
      <trkpt lat="46.56829" lon="9.62323">
        <ele>1343.1</ele>
        <time>2012-07-28T15:21:23Z</time>
      </trkpt>
      <trkpt lat="46.56817" lon="9.62318">
        <ele>1344.06</ele>
        <time>2012-07-28T15:21:24Z</time>
      </trkpt>
      <trkpt lat="46.56768" lon="9.62274">
        <ele>1348.39</ele>
        <time>2012-07-28T15:21:29Z</time>
      </trkpt>
      <trkpt lat="46.5673" lon="9.62196">
        <ele>1355.12</ele>
        <time>2012-07-28T15:21:37Z</time>
      </trkpt>
      <trkpt lat="46.56594" lon="9.62249">
        <ele>1369.54</ele>
        <time>2012-07-28T15:21:48Z</time>
      </trkpt>
      <trkpt lat="46.56533" lon="9.62254">
        <ele>1372.42</ele>
        <time>2012-07-28T15:21:53Z</time>
      </trkpt>
      <trkpt lat="46.56464" lon="9.62219">
        <ele>1380.11</ele>
        <time>2012-07-28T15:21:59Z</time>
      </trkpt>
      <trkpt lat="46.5639" lon="9.62173">
        <ele>1385.88</ele>
        <time>2012-07-28T15:22:06Z</time>
      </trkpt>
      <trkpt lat="46.56358" lon="9.62168">
        <ele>1387.32</ele>
        <time>2012-07-28T15:22:09Z</time>
      </trkpt>
      <trkpt lat="46.56331" lon="9.62182">
        <ele>1390.2</ele>
        <time>2012-07-28T15:22:12Z</time>
      </trkpt>
      <trkpt lat="46.563" lon="9.62231">
        <ele>1394.53</ele>
        <time>2012-07-28T15:22:16Z</time>
      </trkpt>
      <trkpt lat="46.56283" lon="9.62264">
        <ele>1395.49</ele>
        <time>2012-07-28T15:22:19Z</time>
      </trkpt>
      <trkpt lat="46.5629" lon="9.62403">
        <ele>1401.26</ele>
        <time>2012-07-28T15:22:32Z</time>
      </trkpt>
      <trkpt lat="46.56133" lon="9.62446">
        <ele>1402.7</ele>
        <time>2012-07-28T15:22:44Z</time>
      </trkpt>
      <trkpt lat="46.55558" lon="9.62479">
        <ele>1407.99</ele>
        <time>2012-07-28T15:23:26Z</time>
      </trkpt>
      <trkpt lat="46.55367" lon="9.6249">
        <ele>1407.99</ele>
        <time>2012-07-28T15:23:36Z</time>
      </trkpt>
      <trkpt lat="46.54388" lon="9.62528">
        <ele>1414.72</ele>
        <time>2012-07-28T15:24:29Z</time>
      </trkpt>
      <trkpt lat="46.54179" lon="9.62513">
        <ele>1414.72</ele>
        <time>2012-07-28T15:24:40Z</time>
      </trkpt>
      <trkpt lat="46.53688" lon="9.62399">
        <ele>1420</ele>
        <time>2012-07-28T15:25:08Z</time>
      </trkpt>
      <trkpt lat="46.53522" lon="9.62396">
        <ele>1420.97</ele>
        <time>2012-07-28T15:25:18Z</time>
      </trkpt>
      <trkpt lat="46.52702" lon="9.61975">
        <ele>1441.15</ele>
        <time>2012-07-28T15:26:07Z</time>
      </trkpt>
      <trkpt lat="46.52625" lon="9.61965">
        <ele>1444.52</ele>
        <time>2012-07-28T15:26:13Z</time>
      </trkpt>
      <trkpt lat="46.52598" lon="9.61984">
        <ele>1446.92</ele>
        <time>2012-07-28T15:26:16Z</time>
      </trkpt>
      <trkpt lat="46.52566" lon="9.62029">
        <ele>1450.77</ele>
        <time>2012-07-28T15:26:21Z</time>
      </trkpt>
      <trkpt lat="46.52552" lon="9.62043">
        <ele>1451.73</ele>
        <time>2012-07-28T15:26:23Z</time>
      </trkpt>
      <trkpt lat="46.52455" lon="9.62111">
        <ele>1462.78</ele>
        <time>2012-07-28T15:26:36Z</time>
      </trkpt>
      <trkpt lat="46.52418" lon="9.62044">
        <ele>1469.03</ele>
        <time>2012-07-28T15:26:49Z</time>
      </trkpt>
      <trkpt lat="46.5233" lon="9.62053">
        <ele>1470.95</ele>
        <time>2012-07-28T15:26:58Z</time>
      </trkpt>
      <trkpt lat="46.52255" lon="9.62092">
        <ele>1478.16</ele>
        <time>2012-07-28T15:27:05Z</time>
      </trkpt>
      <trkpt lat="46.52202" lon="9.62162">
        <ele>1483.45</ele>
        <time>2012-07-28T15:27:11Z</time>
      </trkpt>
      <trkpt lat="46.52135" lon="9.62213">
        <ele>1491.14</ele>
        <time>2012-07-28T15:27:17Z</time>
      </trkpt>
      <trkpt lat="46.52113" lon="9.62298">
        <ele>1497.39</ele>
        <time>2012-07-28T15:27:22Z</time>
      </trkpt>
      <trkpt lat="46.52107" lon="9.62387">
        <ele>1502.2</ele>
        <time>2012-07-28T15:27:26Z</time>
      </trkpt>
      <trkpt lat="46.52098" lon="9.62454">
        <ele>1505.56</ele>
        <time>2012-07-28T15:27:29Z</time>
      </trkpt>
      <trkpt lat="46.52076" lon="9.62525">
        <ele>1507.97</ele>
        <time>2012-07-28T15:27:33Z</time>
      </trkpt>
      <trkpt lat="46.52043" lon="9.62565">
        <ele>1510.85</ele>
        <time>2012-07-28T15:27:36Z</time>
      </trkpt>
      <trkpt lat="46.51993" lon="9.62598">
        <ele>1512.29</ele>
        <time>2012-07-28T15:27:40Z</time>
      </trkpt>
      <trkpt lat="46.51961" lon="9.62584">
        <ele>1513.73</ele>
        <time>2012-07-28T15:27:43Z</time>
      </trkpt>
      <trkpt lat="46.51927" lon="9.62553">
        <ele>1513.25</ele>
        <time>2012-07-28T15:27:47Z</time>
      </trkpt>
      <trkpt lat="46.51893" lon="9.62572">
        <ele>1512.77</ele>
        <time>2012-07-28T15:27:51Z</time>
      </trkpt>
      <trkpt lat="46.51861" lon="9.62851">
        <ele>1523.35</ele>
        <time>2012-07-28T15:28:07Z</time>
      </trkpt>
      <trkpt lat="46.51832" lon="9.62915">
        <ele>1528.63</ele>
        <time>2012-07-28T15:28:12Z</time>
      </trkpt>
      <trkpt lat="46.51726" lon="9.62895">
        <ele>1541.13</ele>
        <time>2012-07-28T15:28:21Z</time>
      </trkpt>
      <trkpt lat="46.51687" lon="9.62934">
        <ele>1546.9</ele>
        <time>2012-07-28T15:28:25Z</time>
      </trkpt>
      <trkpt lat="46.51676" lon="9.62969">
        <ele>1548.82</ele>
        <time>2012-07-28T15:28:27Z</time>
      </trkpt>
      <trkpt lat="46.51658" lon="9.63023">
        <ele>1551.22</ele>
        <time>2012-07-28T15:28:31Z</time>
      </trkpt>
      <trkpt lat="46.51635" lon="9.63034">
        <ele>1554.11</ele>
        <time>2012-07-28T15:28:34Z</time>
      </trkpt>
      <trkpt lat="46.51614" lon="9.63012">
        <ele>1556.99</ele>
        <time>2012-07-28T15:28:37Z</time>
      </trkpt>
      <trkpt lat="46.51582" lon="9.62904">
        <ele>1567.57</ele>
        <time>2012-07-28T15:28:44Z</time>
      </trkpt>
      <trkpt lat="46.51574" lon="9.6289">
        <ele>1569.01</ele>
        <time>2012-07-28T15:28:45Z</time>
      </trkpt>
      <trkpt lat="46.51531" lon="9.62848">
        <ele>1571.89</ele>
        <time>2012-07-28T15:28:49Z</time>
      </trkpt>
      <trkpt lat="46.51422" lon="9.62796">
        <ele>1581.99</ele>
        <time>2012-07-28T15:28:59Z</time>
      </trkpt>
      <trkpt lat="46.51382" lon="9.62842">
        <ele>1587.75</ele>
        <time>2012-07-28T15:29:04Z</time>
      </trkpt>
      <trkpt lat="46.51345" lon="9.62907">
        <ele>1590.64</ele>
        <time>2012-07-28T15:29:09Z</time>
      </trkpt>
      <trkpt lat="46.51328" lon="9.62983">
        <ele>1596.41</ele>
        <time>2012-07-28T15:29:14Z</time>
      </trkpt>
      <trkpt lat="46.51329" lon="9.63122">
        <ele>1603.14</ele>
        <time>2012-07-28T15:29:23Z</time>
      </trkpt>
      <trkpt lat="46.51346" lon="9.63146">
        <ele>1605.06</ele>
        <time>2012-07-28T15:29:27Z</time>
      </trkpt>
      <trkpt lat="46.51387" lon="9.62989">
        <ele>1615.15</ele>
        <time>2012-07-28T15:29:39Z</time>
      </trkpt>
      <trkpt lat="46.51398" lon="9.62951">
        <ele>1617.07</ele>
        <time>2012-07-28T15:29:42Z</time>
      </trkpt>
      <trkpt lat="46.51423" lon="9.62937">
        <ele>1619.48</ele>
        <time>2012-07-28T15:29:45Z</time>
      </trkpt>
      <trkpt lat="46.51432" lon="9.62941">
        <ele>1620.44</ele>
        <time>2012-07-28T15:29:46Z</time>
      </trkpt>
      <trkpt lat="46.51448" lon="9.62998">
        <ele>1624.28</ele>
        <time>2012-07-28T15:29:51Z</time>
      </trkpt>
      <trkpt lat="46.51443" lon="9.63012">
        <ele>1625.73</ele>
        <time>2012-07-28T15:29:52Z</time>
      </trkpt>
      <trkpt lat="46.51397" lon="9.63115">
        <ele>1629.57</ele>
        <time>2012-07-28T15:29:59Z</time>
      </trkpt>
      <trkpt lat="46.51396" lon="9.63192">
        <ele>1633.9</ele>
        <time>2012-07-28T15:30:04Z</time>
      </trkpt>
      <trkpt lat="46.51376" lon="9.63229">
        <ele>1636.78</ele>
        <time>2012-07-28T15:30:07Z</time>
      </trkpt>
      <trkpt lat="46.51241" lon="9.63353">
        <ele>1650.24</ele>
        <time>2012-07-28T15:30:21Z</time>
      </trkpt>
      <trkpt lat="46.51168" lon="9.63336">
        <ele>1657.93</ele>
        <time>2012-07-28T15:30:28Z</time>
      </trkpt>
      <trkpt lat="46.51083" lon="9.63369">
        <ele>1663.7</ele>
        <time>2012-07-28T15:30:36Z</time>
      </trkpt>
      <trkpt lat="46.51032" lon="9.6344">
        <ele>1667.06</ele>
        <time>2012-07-28T15:30:42Z</time>
      </trkpt>
      <trkpt lat="46.5095" lon="9.63497">
        <ele>1666.58</ele>
        <time>2012-07-28T15:30:51Z</time>
      </trkpt>
      <trkpt lat="46.5088" lon="9.636">
        <ele>1668.99</ele>
        <time>2012-07-28T15:31:00Z</time>
      </trkpt>
      <trkpt lat="46.50855" lon="9.63658">
        <ele>1668.51</ele>
        <time>2012-07-28T15:31:04Z</time>
      </trkpt>
      <trkpt lat="46.50764" lon="9.63784">
        <ele>1670.91</ele>
        <time>2012-07-28T15:31:14Z</time>
      </trkpt>
      <trkpt lat="46.50713" lon="9.63835">
        <ele>1676.68</ele>
        <time>2012-07-28T15:31:18Z</time>
      </trkpt>
      <trkpt lat="46.50554" lon="9.63991">
        <ele>1675.72</ele>
        <time>2012-07-28T15:31:30Z</time>
      </trkpt>
      <trkpt lat="46.50418" lon="9.64072">
        <ele>1682.93</ele>
        <time>2012-07-28T15:31:38Z</time>
      </trkpt>
      <trkpt lat="46.50322" lon="9.6411">
        <ele>1679.56</ele>
        <time>2012-07-28T15:31:44Z</time>
      </trkpt>
      <trkpt lat="46.50166" lon="9.6406">
        <ele>1681.48</ele>
        <time>2012-07-28T15:31:56Z</time>
      </trkpt>
      <trkpt lat="46.50088" lon="9.64122">
        <ele>1682.44</ele>
        <time>2012-07-28T15:32:03Z</time>
      </trkpt>
      <trkpt lat="46.49883" lon="9.64158">
        <ele>1690.14</ele>
        <time>2012-07-28T15:32:15Z</time>
      </trkpt>
      <trkpt lat="46.4975" lon="9.64191">
        <ele>1688.21</ele>
        <time>2012-07-28T15:32:23Z</time>
      </trkpt>
      <trkpt lat="46.4968" lon="9.6428">
        <ele>1696.38</ele>
        <time>2012-07-28T15:32:29Z</time>
      </trkpt>
      <trkpt lat="46.49612" lon="9.64367">
        <ele>1699.27</ele>
        <time>2012-07-28T15:32:34Z</time>
      </trkpt>
      <trkpt lat="46.49567" lon="9.64438">
        <ele>1700.71</ele>
        <time>2012-07-28T15:32:38Z</time>
      </trkpt>
      <trkpt lat="46.49539" lon="9.64466">
        <ele>1703.59</ele>
        <time>2012-07-28T15:32:40Z</time>
      </trkpt>
      <trkpt lat="46.49444" lon="9.64547">
        <ele>1700.23</ele>
        <time>2012-07-28T15:32:47Z</time>
      </trkpt>
      <trkpt lat="46.49379" lon="9.6451">
        <ele>1700.23</ele>
        <time>2012-07-28T15:32:52Z</time>
      </trkpt>
      <trkpt lat="46.49288" lon="9.64452">
        <ele>1694.46</ele>
        <time>2012-07-28T15:32:58Z</time>
      </trkpt>
      <trkpt lat="46.49137" lon="9.64443">
        <ele>1686.77</ele>
        <time>2012-07-28T15:33:08Z</time>
      </trkpt>
      <trkpt lat="46.49096" lon="9.64315">
        <ele>1683.41</ele>
        <time>2012-07-28T15:33:15Z</time>
      </trkpt>
      <trkpt lat="46.49062" lon="9.64281">
        <ele>1681.48</ele>
        <time>2012-07-28T15:33:18Z</time>
      </trkpt>
      <trkpt lat="46.49032" lon="9.64276">
        <ele>1681.96</ele>
        <time>2012-07-28T15:33:20Z</time>
      </trkpt>
      <trkpt lat="46.48982" lon="9.64276">
        <ele>1676.2</ele>
        <time>2012-07-28T15:33:24Z</time>
      </trkpt>
      <trkpt lat="46.48959" lon="9.64232">
        <ele>1678.12</ele>
        <time>2012-07-28T15:33:27Z</time>
      </trkpt>
      <trkpt lat="46.48922" lon="9.64173">
        <ele>1674.75</ele>
        <time>2012-07-28T15:33:31Z</time>
      </trkpt>
      <trkpt lat="46.48834" lon="9.64183">
        <ele>1668.99</ele>
        <time>2012-07-28T15:33:37Z</time>
      </trkpt>
      <trkpt lat="46.4868" lon="9.64138">
        <ele>1670.43</ele>
        <time>2012-07-28T15:33:48Z</time>
      </trkpt>
      <trkpt lat="46.48592" lon="9.64145">
        <ele>1678.6</ele>
        <time>2012-07-28T15:33:54Z</time>
      </trkpt>
      <trkpt lat="46.48498" lon="9.64107">
        <ele>1687.73</ele>
        <time>2012-07-28T15:34:00Z</time>
      </trkpt>
      <trkpt lat="46.48452" lon="9.64104">
        <ele>1689.65</ele>
        <time>2012-07-28T15:34:03Z</time>
      </trkpt>
      <trkpt lat="46.48385" lon="9.64141">
        <ele>1693.02</ele>
        <time>2012-07-28T15:34:08Z</time>
      </trkpt>
      <trkpt lat="46.48301" lon="9.64138">
        <ele>1696.86</ele>
        <time>2012-07-28T15:34:13Z</time>
      </trkpt>
      <trkpt lat="46.48232" lon="9.64166">
        <ele>1696.86</ele>
        <time>2012-07-28T15:34:17Z</time>
      </trkpt>
      <trkpt lat="46.48009" lon="9.6417">
        <ele>1706.96</ele>
        <time>2012-07-28T15:34:29Z</time>
      </trkpt>
      <trkpt lat="46.47991" lon="9.64178">
        <ele>1707.44</ele>
        <time>2012-07-28T15:34:30Z</time>
      </trkpt>
      <trkpt lat="46.47944" lon="9.64219">
        <ele>1711.28</ele>
        <time>2012-07-28T15:34:33Z</time>
      </trkpt>
      <trkpt lat="46.47916" lon="9.64256">
        <ele>1715.13</ele>
        <time>2012-07-28T15:34:35Z</time>
      </trkpt>
      <trkpt lat="46.47868" lon="9.64407">
        <ele>1725.22</ele>
        <time>2012-07-28T15:34:41Z</time>
      </trkpt>
      <trkpt lat="46.47828" lon="9.64517">
        <ele>1730.03</ele>
        <time>2012-07-28T15:34:46Z</time>
      </trkpt>
      <trkpt lat="46.47745" lon="9.64564">
        <ele>1739.16</ele>
        <time>2012-07-28T15:34:51Z</time>
      </trkpt>
      <trkpt lat="46.4765" lon="9.64598">
        <ele>1746.37</ele>
        <time>2012-07-28T15:34:56Z</time>
      </trkpt>
      <trkpt lat="46.47554" lon="9.64652">
        <ele>1748.78</ele>
        <time>2012-07-28T15:35:01Z</time>
      </trkpt>
      <trkpt lat="46.47374" lon="9.64758">
        <ele>1750.22</ele>
        <time>2012-07-28T15:35:12Z</time>
      </trkpt>
      <trkpt lat="46.47328" lon="9.64906">
        <ele>1747.33</ele>
        <time>2012-07-28T15:35:19Z</time>
      </trkpt>
      <trkpt lat="46.47299" lon="9.6495">
        <ele>1746.37</ele>
        <time>2012-07-28T15:35:22Z</time>
      </trkpt>
      <trkpt lat="46.46953" lon="9.64995">
        <ele>1750.22</ele>
        <time>2012-07-28T15:35:49Z</time>
      </trkpt>
      <trkpt lat="46.46864" lon="9.65036">
        <ele>1748.29</ele>
        <time>2012-07-28T15:36:00Z</time>
      </trkpt>
      <trkpt lat="46.46764" lon="9.65053">
        <ele>1749.26</ele>
        <time>2012-07-28T15:36:11Z</time>
      </trkpt>
      <trkpt lat="46.46706" lon="9.65112">
        <ele>1756.47</ele>
        <time>2012-07-28T15:36:17Z</time>
      </trkpt>
      <trkpt lat="46.46686" lon="9.65141">
        <ele>1756.47</ele>
        <time>2012-07-28T15:36:19Z</time>
      </trkpt>
      <trkpt lat="46.46667" lon="9.6519">
        <ele>1762.71</ele>
        <time>2012-07-28T15:36:22Z</time>
      </trkpt>
      <trkpt lat="46.46657" lon="9.65269">
        <ele>1767.04</ele>
        <time>2012-07-28T15:36:26Z</time>
      </trkpt>
      <trkpt lat="46.46635" lon="9.65314">
        <ele>1769.44</ele>
        <time>2012-07-28T15:36:29Z</time>
      </trkpt>
      <trkpt lat="46.46536" lon="9.65332">
        <ele>1777.61</ele>
        <time>2012-07-28T15:36:36Z</time>
      </trkpt>
      <trkpt lat="46.46489" lon="9.65346">
        <ele>1780.02</ele>
        <time>2012-07-28T15:36:39Z</time>
      </trkpt>
      <trkpt lat="46.46351" lon="9.65466">
        <ele>1783.86</ele>
        <time>2012-07-28T15:36:48Z</time>
      </trkpt>
      <trkpt lat="46.4631" lon="9.65523">
        <ele>1782.42</ele>
        <time>2012-07-28T15:36:52Z</time>
      </trkpt>
      <trkpt lat="46.46307" lon="9.65584">
        <ele>1783.86</ele>
        <time>2012-07-28T15:36:55Z</time>
      </trkpt>
      <trkpt lat="46.46324" lon="9.65804">
        <ele>1780.98</ele>
        <time>2012-07-28T15:37:05Z</time>
      </trkpt>
      <trkpt lat="46.46355" lon="9.65838">
        <ele>1782.9</ele>
        <time>2012-07-28T15:37:08Z</time>
      </trkpt>
      <trkpt lat="46.46398" lon="9.65834">
        <ele>1786.27</ele>
        <time>2012-07-28T15:37:11Z</time>
      </trkpt>
      <trkpt lat="46.46442" lon="9.65822">
        <ele>1787.23</ele>
        <time>2012-07-28T15:37:15Z</time>
      </trkpt>
      <trkpt lat="46.46455" lon="9.6584">
        <ele>1787.23</ele>
        <time>2012-07-28T15:37:18Z</time>
      </trkpt>
      <trkpt lat="46.46344" lon="9.6613">
        <ele>1811.26</ele>
        <time>2012-07-28T15:37:34Z</time>
      </trkpt>
      <trkpt lat="46.46284" lon="9.66288">
        <ele>1821.35</ele>
        <time>2012-07-28T15:37:41Z</time>
      </trkpt>
      <trkpt lat="46.46227" lon="9.66695">
        <ele>1837.7</ele>
        <time>2012-07-28T15:37:56Z</time>
      </trkpt>
      <trkpt lat="46.46205" lon="9.67478">
        <ele>1850.19</ele>
        <time>2012-07-28T15:38:21Z</time>
      </trkpt>
      <trkpt lat="46.46241" lon="9.67747">
        <ele>1856.92</ele>
        <time>2012-07-28T15:38:30Z</time>
      </trkpt>
      <trkpt lat="46.46245" lon="9.67895">
        <ele>1860.77</ele>
        <time>2012-07-28T15:38:35Z</time>
      </trkpt>
      <trkpt lat="46.46245" lon="9.67953">
        <ele>1861.25</ele>
        <time>2012-07-28T15:38:37Z</time>
      </trkpt>
      <trkpt lat="46.46201" lon="9.68346">
        <ele>1883.36</ele>
        <time>2012-07-28T15:38:54Z</time>
      </trkpt>
      <trkpt lat="46.46196" lon="9.68373">
        <ele>1880.48</ele>
        <time>2012-07-28T15:38:56Z</time>
      </trkpt>
      <trkpt lat="46.46207" lon="9.68401">
        <ele>1880</ele>
        <time>2012-07-28T15:38:59Z</time>
      </trkpt>
      <trkpt lat="46.46223" lon="9.684">
        <ele>1881.44</ele>
        <time>2012-07-28T15:39:01Z</time>
      </trkpt>
      <trkpt lat="46.46259" lon="9.68349">
        <ele>1886.72</ele>
        <time>2012-07-28T15:39:07Z</time>
      </trkpt>
      <trkpt lat="46.46265" lon="9.68351">
        <ele>1887.21</ele>
        <time>2012-07-28T15:39:08Z</time>
      </trkpt>
      <trkpt lat="46.46301" lon="9.68431">
        <ele>1895.86</ele>
        <time>2012-07-28T15:39:14Z</time>
      </trkpt>
      <trkpt lat="46.46387" lon="9.68603">
        <ele>1910.28</ele>
        <time>2012-07-28T15:39:24Z</time>
      </trkpt>
      <trkpt lat="46.46403" lon="9.68665">
        <ele>1911.72</ele>
        <time>2012-07-28T15:39:29Z</time>
      </trkpt>
      <trkpt lat="46.46433" lon="9.68653">
        <ele>1916.04</ele>
        <time>2012-07-28T15:39:33Z</time>
      </trkpt>
      <trkpt lat="46.46452" lon="9.68625">
        <ele>1917.49</ele>
        <time>2012-07-28T15:39:36Z</time>
      </trkpt>
      <trkpt lat="46.46469" lon="9.68633">
        <ele>1918.45</ele>
        <time>2012-07-28T15:39:39Z</time>
      </trkpt>
      <trkpt lat="46.46461" lon="9.68694">
        <ele>1925.18</ele>
        <time>2012-07-28T15:39:44Z</time>
      </trkpt>
      <trkpt lat="46.46446" lon="9.68719">
        <ele>1928.06</ele>
        <time>2012-07-28T15:39:46Z</time>
      </trkpt>
      <trkpt lat="46.46422" lon="9.6874">
        <ele>1929.5</ele>
        <time>2012-07-28T15:39:49Z</time>
      </trkpt>
      <trkpt lat="46.46418" lon="9.68778">
        <ele>1930.95</ele>
        <time>2012-07-28T15:39:53Z</time>
      </trkpt>
      <trkpt lat="46.46437" lon="9.68787">
        <ele>1932.39</ele>
        <time>2012-07-28T15:39:56Z</time>
      </trkpt>
      <trkpt lat="46.46487" lon="9.68749">
        <ele>1939.6</ele>
        <time>2012-07-28T15:40:01Z</time>
      </trkpt>
      <trkpt lat="46.46515" lon="9.68731">
        <ele>1941.04</ele>
        <time>2012-07-28T15:40:04Z</time>
      </trkpt>
      <trkpt lat="46.46532" lon="9.68741">
        <ele>1942</ele>
        <time>2012-07-28T15:40:07Z</time>
      </trkpt>
      <trkpt lat="46.46528" lon="9.6877">
        <ele>1943.92</ele>
        <time>2012-07-28T15:40:10Z</time>
      </trkpt>
      <trkpt lat="46.4648" lon="9.68813">
        <ele>1951.13</ele>
        <time>2012-07-28T15:40:15Z</time>
      </trkpt>
      <trkpt lat="46.4645" lon="9.68859">
        <ele>1952.09</ele>
        <time>2012-07-28T15:40:20Z</time>
      </trkpt>
      <trkpt lat="46.46466" lon="9.68881">
        <ele>1953.54</ele>
        <time>2012-07-28T15:40:23Z</time>
      </trkpt>
      <trkpt lat="46.46504" lon="9.68864">
        <ele>1957.86</ele>
        <time>2012-07-28T15:40:27Z</time>
      </trkpt>
      <trkpt lat="46.46514" lon="9.68855">
        <ele>1958.82</ele>
        <time>2012-07-28T15:40:28Z</time>
      </trkpt>
      <trkpt lat="46.4654" lon="9.6884">
        <ele>1959.78</ele>
        <time>2012-07-28T15:40:31Z</time>
      </trkpt>
      <trkpt lat="46.46556" lon="9.68862">
        <ele>1961.23</ele>
        <time>2012-07-28T15:40:35Z</time>
      </trkpt>
      <trkpt lat="46.46532" lon="9.68895">
        <ele>1966.99</ele>
        <time>2012-07-28T15:40:39Z</time>
      </trkpt>
      <trkpt lat="46.46496" lon="9.68927">
        <ele>1970.36</ele>
        <time>2012-07-28T15:40:43Z</time>
      </trkpt>
      <trkpt lat="46.46486" lon="9.68954">
        <ele>1970.36</ele>
        <time>2012-07-28T15:40:46Z</time>
      </trkpt>
      <trkpt lat="46.46494" lon="9.68973">
        <ele>1971.8</ele>
        <time>2012-07-28T15:40:48Z</time>
      </trkpt>
      <trkpt lat="46.46564" lon="9.69008">
        <ele>1979.49</ele>
        <time>2012-07-28T15:40:54Z</time>
      </trkpt>
      <trkpt lat="46.46598" lon="9.69044">
        <ele>1982.86</ele>
        <time>2012-07-28T15:40:57Z</time>
      </trkpt>
      <trkpt lat="46.46645" lon="9.6921">
        <ele>1995.35</ele>
        <time>2012-07-28T15:41:05Z</time>
      </trkpt>
      <trkpt lat="46.46678" lon="9.69374">
        <ele>2002.08</ele>
        <time>2012-07-28T15:41:12Z</time>
      </trkpt>
      <trkpt lat="46.46687" lon="9.69474">
        <ele>2006.89</ele>
        <time>2012-07-28T15:41:16Z</time>
      </trkpt>
      <trkpt lat="46.46658" lon="9.69647">
        <ele>2014.1</ele>
        <time>2012-07-28T15:41:23Z</time>
      </trkpt>
      <trkpt lat="46.46563" lon="9.69814">
        <ele>2020.83</ele>
        <time>2012-07-28T15:41:31Z</time>
      </trkpt>
      <trkpt lat="46.46506" lon="9.69895">
        <ele>2024.19</ele>
        <time>2012-07-28T15:41:35Z</time>
      </trkpt>
      <trkpt lat="46.46438" lon="9.69998">
        <ele>2026.6</ele>
        <time>2012-07-28T15:41:40Z</time>
      </trkpt>
      <trkpt lat="46.46395" lon="9.70147">
        <ele>2035.25</ele>
        <time>2012-07-28T15:41:46Z</time>
      </trkpt>
      <trkpt lat="46.46407" lon="9.70305">
        <ele>2047.26</ele>
        <time>2012-07-28T15:41:52Z</time>
      </trkpt>
      <trkpt lat="46.46458" lon="9.70508">
        <ele>2062.17</ele>
        <time>2012-07-28T15:42:00Z</time>
      </trkpt>
      <trkpt lat="46.46481" lon="9.70582">
        <ele>2065.05</ele>
        <time>2012-07-28T15:42:04Z</time>
      </trkpt>
      <trkpt lat="46.46517" lon="9.70618">
        <ele>2068.41</ele>
        <time>2012-07-28T15:42:08Z</time>
      </trkpt>
      <trkpt lat="46.46564" lon="9.70604">
        <ele>2072.74</ele>
        <time>2012-07-28T15:42:12Z</time>
      </trkpt>
      <trkpt lat="46.46601" lon="9.70587">
        <ele>2073.22</ele>
        <time>2012-07-28T15:42:16Z</time>
      </trkpt>
      <trkpt lat="46.46615" lon="9.70603">
        <ele>2073.7</ele>
        <time>2012-07-28T15:42:19Z</time>
      </trkpt>
      <trkpt lat="46.46593" lon="9.70655">
        <ele>2078.51</ele>
        <time>2012-07-28T15:42:24Z</time>
      </trkpt>
      <trkpt lat="46.46546" lon="9.70719">
        <ele>2085.72</ele>
        <time>2012-07-28T15:42:29Z</time>
      </trkpt>
      <trkpt lat="46.46519" lon="9.70782">
        <ele>2088.6</ele>
        <time>2012-07-28T15:42:35Z</time>
      </trkpt>
      <trkpt lat="46.46535" lon="9.70801">
        <ele>2091</ele>
        <time>2012-07-28T15:42:38Z</time>
      </trkpt>
      <trkpt lat="46.46561" lon="9.70787">
        <ele>2094.85</ele>
        <time>2012-07-28T15:42:41Z</time>
      </trkpt>
      <trkpt lat="46.46591" lon="9.70756">
        <ele>2098.7</ele>
        <time>2012-07-28T15:42:44Z</time>
      </trkpt>
      <trkpt lat="46.46654" lon="9.70713">
        <ele>2102.06</ele>
        <time>2012-07-28T15:42:51Z</time>
      </trkpt>
      <trkpt lat="46.46662" lon="9.70735">
        <ele>2103.02</ele>
        <time>2012-07-28T15:42:54Z</time>
      </trkpt>
      <trkpt lat="46.46648" lon="9.70762">
        <ele>2106.39</ele>
        <time>2012-07-28T15:42:57Z</time>
      </trkpt>
      <trkpt lat="46.46628" lon="9.70812">
        <ele>2108.79</ele>
        <time>2012-07-28T15:43:02Z</time>
      </trkpt>
      <trkpt lat="46.46665" lon="9.70831">
        <ele>2114.08</ele>
        <time>2012-07-28T15:43:07Z</time>
      </trkpt>
      <trkpt lat="46.46677" lon="9.7083">
        <ele>2115.52</ele>
        <time>2012-07-28T15:43:08Z</time>
      </trkpt>
      <trkpt lat="46.46742" lon="9.70866">
        <ele>2119.36</ele>
        <time>2012-07-28T15:43:14Z</time>
      </trkpt>
      <trkpt lat="46.4675" lon="9.7088">
        <ele>2118.88</ele>
        <time>2012-07-28T15:43:15Z</time>
      </trkpt>
      <trkpt lat="46.46793" lon="9.71021">
        <ele>2126.57</ele>
        <time>2012-07-28T15:43:22Z</time>
      </trkpt>
      <trkpt lat="46.46844" lon="9.7121">
        <ele>2133.3</ele>
        <time>2012-07-28T15:43:30Z</time>
      </trkpt>
      <trkpt lat="46.4691" lon="9.7136">
        <ele>2141.95</ele>
        <time>2012-07-28T15:43:37Z</time>
      </trkpt>
      <trkpt lat="46.46959" lon="9.71489">
        <ele>2146.76</ele>
        <time>2012-07-28T15:43:46Z</time>
      </trkpt>
      <trkpt lat="46.46982" lon="9.71486">
        <ele>2148.2</ele>
        <time>2012-07-28T15:43:50Z</time>
      </trkpt>
      <trkpt lat="46.46989" lon="9.71439">
        <ele>2151.57</ele>
        <time>2012-07-28T15:43:54Z</time>
      </trkpt>
      <trkpt lat="46.47001" lon="9.71416">
        <ele>2152.53</ele>
        <time>2012-07-28T15:43:57Z</time>
      </trkpt>
      <trkpt lat="46.47019" lon="9.71422">
        <ele>2154.45</ele>
        <time>2012-07-28T15:44:00Z</time>
      </trkpt>
      <trkpt lat="46.47041" lon="9.71461">
        <ele>2160.22</ele>
        <time>2012-07-28T15:45:45Z</time>
      </trkpt>
      <trkpt lat="46.47126" lon="9.7159">
        <ele>2169.35</ele>
        <time>2012-07-28T15:46:13Z</time>
      </trkpt>
      <trkpt lat="46.47034" lon="9.71805">
        <ele>2236.16</ele>
        <time>2012-07-28T15:52:04Z</time>
      </trkpt>
      <trkpt lat="46.47241" lon="9.71982">
        <ele>2254.91</ele>
        <time>2012-07-28T15:59:18Z</time>
      </trkpt>
      <trkpt lat="46.47321" lon="9.72075">
        <ele>2253.95</ele>
        <time>2012-07-28T15:59:25Z</time>
      </trkpt>
      <trkpt lat="46.47319" lon="9.72125">
        <ele>2256.35</ele>
        <time>2012-07-28T15:59:29Z</time>
      </trkpt>
      <trkpt lat="46.47246" lon="9.72176">
        <ele>2262.12</ele>
        <time>2012-07-28T15:59:35Z</time>
      </trkpt>
      <trkpt lat="46.47194" lon="9.72182">
        <ele>2265</ele>
        <time>2012-07-28T15:59:39Z</time>
      </trkpt>
      <trkpt lat="46.47125" lon="9.72254">
        <ele>2273.17</ele>
        <time>2012-07-28T15:59:45Z</time>
      </trkpt>
      <trkpt lat="46.47085" lon="9.72316">
        <ele>2275.58</ele>
        <time>2012-07-28T15:59:50Z</time>
      </trkpt>
      <trkpt lat="46.47085" lon="9.72383">
        <ele>2277.98</ele>
        <time>2012-07-28T15:59:54Z</time>
      </trkpt>
      <trkpt lat="46.47088" lon="9.72401">
        <ele>2278.46</ele>
        <time>2012-07-28T15:59:55Z</time>
      </trkpt>
      <trkpt lat="46.47112" lon="9.72526">
        <ele>2279.42</ele>
        <time>2012-07-28T16:00:02Z</time>
      </trkpt>
      <trkpt lat="46.47177" lon="9.72611">
        <ele>2284.71</ele>
        <time>2012-07-28T16:00:08Z</time>
      </trkpt>
      <trkpt lat="46.4722" lon="9.72671">
        <ele>2282.79</ele>
        <time>2012-07-28T16:00:13Z</time>
      </trkpt>
      <trkpt lat="46.47222" lon="9.72776">
        <ele>2287.11</ele>
        <time>2012-07-28T16:00:19Z</time>
      </trkpt>
      <trkpt lat="46.47221" lon="9.72889">
        <ele>2283.75</ele>
        <time>2012-07-28T16:00:25Z</time>
      </trkpt>
      <trkpt lat="46.47221" lon="9.72953">
        <ele>2279.42</ele>
        <time>2012-07-28T16:00:28Z</time>
      </trkpt>
      <trkpt lat="46.47219" lon="9.72993">
        <ele>2277.02</ele>
        <time>2012-07-28T16:00:30Z</time>
      </trkpt>
      <trkpt lat="46.4716" lon="9.73152">
        <ele>2267.89</ele>
        <time>2012-07-28T16:00:38Z</time>
      </trkpt>
      <trkpt lat="46.47156" lon="9.73197">
        <ele>2267.89</ele>
        <time>2012-07-28T16:00:40Z</time>
      </trkpt>
      <trkpt lat="46.47177" lon="9.73333">
        <ele>2261.64</ele>
        <time>2012-07-28T16:00:47Z</time>
      </trkpt>
      <trkpt lat="46.47221" lon="9.7344">
        <ele>2255.87</ele>
        <time>2012-07-28T16:00:54Z</time>
      </trkpt>
      <trkpt lat="46.47197" lon="9.73606">
        <ele>2243.37</ele>
        <time>2012-07-28T16:01:03Z</time>
      </trkpt>
      <trkpt lat="46.47245" lon="9.73791">
        <ele>2233.28</ele>
        <time>2012-07-28T16:01:14Z</time>
      </trkpt>
      <trkpt lat="46.4725" lon="9.74877">
        <ele>2198.19</ele>
        <time>2012-07-28T16:02:00Z</time>
      </trkpt>
      <trkpt lat="46.47241" lon="9.7496">
        <ele>2197.71</ele>
        <time>2012-07-28T16:02:05Z</time>
      </trkpt>
      <trkpt lat="46.47188" lon="9.75015">
        <ele>2198.19</ele>
        <time>2012-07-28T16:02:10Z</time>
      </trkpt>
      <trkpt lat="46.47116" lon="9.75071">
        <ele>2190.98</ele>
        <time>2012-07-28T16:02:15Z</time>
      </trkpt>
      <trkpt lat="46.47085" lon="9.75135">
        <ele>2185.69</ele>
        <time>2012-07-28T16:02:19Z</time>
      </trkpt>
      <trkpt lat="46.47089" lon="9.75364">
        <ele>2175.12</ele>
        <time>2012-07-28T16:02:28Z</time>
      </trkpt>
      <trkpt lat="46.4705" lon="9.75455">
        <ele>2170.79</ele>
        <time>2012-07-28T16:02:33Z</time>
      </trkpt>
      <trkpt lat="46.47049" lon="9.75503">
        <ele>2169.35</ele>
        <time>2012-07-28T16:02:36Z</time>
      </trkpt>
      <trkpt lat="46.47042" lon="9.75572">
        <ele>2165.51</ele>
        <time>2012-07-28T16:02:40Z</time>
      </trkpt>
      <trkpt lat="46.47014" lon="9.75663">
        <ele>2159.26</ele>
        <time>2012-07-28T16:02:44Z</time>
      </trkpt>
      <trkpt lat="46.47007" lon="9.75705">
        <ele>2153.01</ele>
        <time>2012-07-28T16:02:46Z</time>
      </trkpt>
      <trkpt lat="46.4702" lon="9.75807">
        <ele>2147.24</ele>
        <time>2012-07-28T16:02:51Z</time>
      </trkpt>
      <trkpt lat="46.46937" lon="9.7601">
        <ele>2136.67</ele>
        <time>2012-07-28T16:03:00Z</time>
      </trkpt>
      <trkpt lat="46.46923" lon="9.76084">
        <ele>2134.74</ele>
        <time>2012-07-28T16:03:03Z</time>
      </trkpt>
      <trkpt lat="46.46897" lon="9.76371">
        <ele>2119.84</ele>
        <time>2012-07-28T16:03:13Z</time>
      </trkpt>
      <trkpt lat="46.46818" lon="9.76724">
        <ele>2104.46</ele>
        <time>2012-07-28T16:03:26Z</time>
      </trkpt>
      <trkpt lat="46.46798" lon="9.76797">
        <ele>2100.62</ele>
        <time>2012-07-28T16:03:29Z</time>
      </trkpt>
      <trkpt lat="46.46689" lon="9.76985">
        <ele>2097.73</ele>
        <time>2012-07-28T16:03:38Z</time>
      </trkpt>
      <trkpt lat="46.46667" lon="9.77023">
        <ele>2091.49</ele>
        <time>2012-07-28T16:03:40Z</time>
      </trkpt>
      <trkpt lat="46.46656" lon="9.77044">
        <ele>2093.41</ele>
        <time>2012-07-28T16:03:41Z</time>
      </trkpt>
      <trkpt lat="46.46591" lon="9.77206">
        <ele>2092.45</ele>
        <time>2012-07-28T16:03:48Z</time>
      </trkpt>
      <trkpt lat="46.46512" lon="9.77394">
        <ele>2085.72</ele>
        <time>2012-07-28T16:03:56Z</time>
      </trkpt>
      <trkpt lat="46.46413" lon="9.77539">
        <ele>2078.99</ele>
        <time>2012-07-28T16:04:04Z</time>
      </trkpt>
      <trkpt lat="46.46361" lon="9.77599">
        <ele>2075.14</ele>
        <time>2012-07-28T16:04:08Z</time>
      </trkpt>
      <trkpt lat="46.46336" lon="9.77662">
        <ele>2072.74</ele>
        <time>2012-07-28T16:04:11Z</time>
      </trkpt>
      <trkpt lat="46.4632" lon="9.77788">
        <ele>2063.61</ele>
        <time>2012-07-28T16:04:16Z</time>
      </trkpt>
      <trkpt lat="46.46271" lon="9.77917">
        <ele>2053.99</ele>
        <time>2012-07-28T16:04:22Z</time>
      </trkpt>
      <trkpt lat="46.46276" lon="9.78292">
        <ele>2031.4</ele>
        <time>2012-07-28T16:04:35Z</time>
      </trkpt>
      <trkpt lat="46.46261" lon="9.78536">
        <ele>2016.98</ele>
        <time>2012-07-28T16:04:44Z</time>
      </trkpt>
      <trkpt lat="46.46202" lon="9.78716">
        <ele>2007.37</ele>
        <time>2012-07-28T16:04:53Z</time>
      </trkpt>
      <trkpt lat="46.46226" lon="9.78805">
        <ele>2005.45</ele>
        <time>2012-07-28T16:04:57Z</time>
      </trkpt>
      <trkpt lat="46.46268" lon="9.78895">
        <ele>2001.6</ele>
        <time>2012-07-28T16:05:01Z</time>
      </trkpt>
      <trkpt lat="46.46329" lon="9.79005">
        <ele>1993.91</ele>
        <time>2012-07-28T16:05:06Z</time>
      </trkpt>
      <trkpt lat="46.46423" lon="9.79131">
        <ele>1986.7</ele>
        <time>2012-07-28T16:05:12Z</time>
      </trkpt>
      <trkpt lat="46.46513" lon="9.79262">
        <ele>1975.17</ele>
        <time>2012-07-28T16:05:18Z</time>
      </trkpt>
      <trkpt lat="46.46527" lon="9.79283">
        <ele>1970.36</ele>
        <time>2012-07-28T16:05:19Z</time>
      </trkpt>
      <trkpt lat="46.46557" lon="9.79323">
        <ele>1966.03</ele>
        <time>2012-07-28T16:05:21Z</time>
      </trkpt>
      <trkpt lat="46.46586" lon="9.79357">
        <ele>1962.19</ele>
        <time>2012-07-28T16:05:23Z</time>
      </trkpt>
      <trkpt lat="46.46637" lon="9.79411">
        <ele>1950.17</ele>
        <time>2012-07-28T16:05:28Z</time>
      </trkpt>
      <trkpt lat="46.46644" lon="9.79432">
        <ele>1948.73</ele>
        <time>2012-07-28T16:05:30Z</time>
      </trkpt>
      <trkpt lat="46.46628" lon="9.79461">
        <ele>1945.85</ele>
        <time>2012-07-28T16:05:33Z</time>
      </trkpt>
      <trkpt lat="46.46605" lon="9.79468">
        <ele>1948.25</ele>
        <time>2012-07-28T16:05:35Z</time>
      </trkpt>
      <trkpt lat="46.46566" lon="9.79474">
        <ele>1946.81</ele>
        <time>2012-07-28T16:05:37Z</time>
      </trkpt>
      <trkpt lat="46.46479" lon="9.79499">
        <ele>1935.27</ele>
        <time>2012-07-28T16:05:42Z</time>
      </trkpt>
      <trkpt lat="46.46366" lon="9.79412">
        <ele>1921.81</ele>
        <time>2012-07-28T16:05:50Z</time>
      </trkpt>
      <trkpt lat="46.46317" lon="9.79398">
        <ele>1915.08</ele>
        <time>2012-07-28T16:05:53Z</time>
      </trkpt>
      <trkpt lat="46.46242" lon="9.79402">
        <ele>1903.55</ele>
        <time>2012-07-28T16:06:02Z</time>
      </trkpt>
      <trkpt lat="46.46302" lon="9.79432">
        <ele>1899.7</ele>
        <time>2012-07-28T16:06:09Z</time>
      </trkpt>
      <trkpt lat="46.46339" lon="9.79445">
        <ele>1893.45</ele>
        <time>2012-07-28T16:06:13Z</time>
      </trkpt>
      <trkpt lat="46.46339" lon="9.79468">
        <ele>1891.05</ele>
        <time>2012-07-28T16:06:18Z</time>
      </trkpt>
      <trkpt lat="46.4604" lon="9.79388">
        <ele>1869.9</ele>
        <time>2012-07-28T16:06:47Z</time>
      </trkpt>
      <trkpt lat="46.46007" lon="9.79374">
        <ele>1859.33</ele>
        <time>2012-07-28T16:06:52Z</time>
      </trkpt>
      <trkpt lat="46.45994" lon="9.79535">
        <ele>1840.58</ele>
        <time>2012-07-28T16:07:10Z</time>
      </trkpt>
      <trkpt lat="46.46028" lon="9.79572">
        <ele>1837.7</ele>
        <time>2012-07-28T16:07:18Z</time>
      </trkpt>
      <trkpt lat="46.46032" lon="9.79593">
        <ele>1836.74</ele>
        <time>2012-07-28T16:07:21Z</time>
      </trkpt>
      <trkpt lat="46.46004" lon="9.79809">
        <ele>1827.12</ele>
        <time>2012-07-28T16:07:42Z</time>
      </trkpt>
      <trkpt lat="46.46085" lon="9.79797">
        <ele>1829.05</ele>
        <time>2012-07-28T16:07:52Z</time>
      </trkpt>
      <trkpt lat="46.46296" lon="9.79741">
        <ele>1828.56</ele>
        <time>2012-07-28T16:08:05Z</time>
      </trkpt>
      <trkpt lat="46.46425" lon="9.79772">
        <ele>1828.56</ele>
        <time>2012-07-28T16:08:12Z</time>
      </trkpt>
      <trkpt lat="46.46551" lon="9.79835">
        <ele>1827.6</ele>
        <time>2012-07-28T16:08:19Z</time>
      </trkpt>
      <trkpt lat="46.46614" lon="9.79893">
        <ele>1827.12</ele>
        <time>2012-07-28T16:08:23Z</time>
      </trkpt>
      <trkpt lat="46.46733" lon="9.80153">
        <ele>1825.68</ele>
        <time>2012-07-28T16:08:35Z</time>
      </trkpt>
      <trkpt lat="46.46745" lon="9.80165">
        <ele>1824.24</ele>
        <time>2012-07-28T16:08:36Z</time>
      </trkpt>
      <trkpt lat="46.46839" lon="9.80183">
        <ele>1825.2</ele>
        <time>2012-07-28T16:08:46Z</time>
      </trkpt>
      <trkpt lat="46.47078" lon="9.80311">
        <ele>1826.64</ele>
        <time>2012-07-28T16:09:04Z</time>
      </trkpt>
      <trkpt lat="46.47169" lon="9.80462">
        <ele>1826.16</ele>
        <time>2012-07-28T16:09:12Z</time>
      </trkpt>
      <trkpt lat="46.47256" lon="9.80551">
        <ele>1828.56</ele>
        <time>2012-07-28T16:09:18Z</time>
      </trkpt>
      <trkpt lat="46.47354" lon="9.80699">
        <ele>1828.08</ele>
        <time>2012-07-28T16:09:26Z</time>
      </trkpt>
      <trkpt lat="46.474" lon="9.8088">
        <ele>1830.97</ele>
        <time>2012-07-28T16:09:33Z</time>
      </trkpt>
      <trkpt lat="46.47581" lon="9.81484">
        <ele>1832.41</ele>
        <time>2012-07-28T16:09:54Z</time>
      </trkpt>
      <trkpt lat="46.47661" lon="9.81946">
        <ele>1825.2</ele>
        <time>2012-07-28T16:10:09Z</time>
      </trkpt>
      <trkpt lat="46.47764" lon="9.82194">
        <ele>1818.95</ele>
        <time>2012-07-28T16:10:18Z</time>
      </trkpt>
      <trkpt lat="46.47995" lon="9.82542">
        <ele>1811.26</ele>
        <time>2012-07-28T16:10:34Z</time>
      </trkpt>
      <trkpt lat="46.48017" lon="9.82621">
        <ele>1812.22</ele>
        <time>2012-07-28T16:10:37Z</time>
      </trkpt>
      <trkpt lat="46.4804" lon="9.82825">
        <ele>1810.78</ele>
        <time>2012-07-28T16:10:44Z</time>
      </trkpt>
      <trkpt lat="46.48075" lon="9.82921">
        <ele>1807.42</ele>
        <time>2012-07-28T16:10:48Z</time>
      </trkpt>
      <trkpt lat="46.48174" lon="9.83111">
        <ele>1803.09</ele>
        <time>2012-07-28T16:10:59Z</time>
      </trkpt>
      <trkpt lat="46.48321" lon="9.83288">
        <ele>1800.21</ele>
        <time>2012-07-28T16:11:12Z</time>
      </trkpt>
      <trkpt lat="46.48373" lon="9.83354">
        <ele>1797.8</ele>
        <time>2012-07-28T16:11:20Z</time>
      </trkpt>
      <trkpt lat="46.48655" lon="9.83582">
        <ele>1796.36</ele>
        <time>2012-07-28T16:11:47Z</time>
      </trkpt>
      <trkpt lat="46.48826" lon="9.83648">
        <ele>1796.84</ele>
        <time>2012-07-28T16:12:04Z</time>
      </trkpt>
      <trkpt lat="46.49002" lon="9.83549">
        <ele>1795.4</ele>
        <time>2012-07-28T16:12:24Z</time>
      </trkpt>
      <trkpt lat="46.49234" lon="9.83579">
        <ele>1796.84</ele>
        <time>2012-07-28T16:12:55Z</time>
      </trkpt>
      <trkpt lat="46.49335" lon="9.83638">
        <ele>1795.88</ele>
        <time>2012-07-28T16:13:03Z</time>
      </trkpt>
      <trkpt lat="46.49397" lon="9.83741">
        <ele>1795.88</ele>
        <time>2012-07-28T16:13:10Z</time>
      </trkpt>
      <trkpt lat="46.49473" lon="9.83936">
        <ele>1796.36</ele>
        <time>2012-07-28T16:13:21Z</time>
      </trkpt>
      <trkpt lat="46.4958" lon="9.84097">
        <ele>1794.92</ele>
        <time>2012-07-28T16:13:32Z</time>
      </trkpt>
      <trkpt lat="46.49643" lon="9.84246">
        <ele>1793.96</ele>
        <time>2012-07-28T16:13:41Z</time>
      </trkpt>
      <trkpt lat="46.49709" lon="9.84526">
        <ele>1796.84</ele>
        <time>2012-07-28T16:14:04Z</time>
      </trkpt>
      <trkpt lat="46.49773" lon="9.84727">
        <ele>1793.96</ele>
        <time>2012-07-28T16:14:15Z</time>
      </trkpt>
      <trkpt lat="46.49858" lon="9.84872">
        <ele>1790.59</ele>
        <time>2012-07-28T16:14:23Z</time>
      </trkpt>
      <trkpt lat="46.50089" lon="9.85216">
        <ele>1773.77</ele>
        <time>2012-07-28T16:14:40Z</time>
      </trkpt>
      <trkpt lat="46.5071" lon="9.85833">
        <ele>1747.81</ele>
        <time>2012-07-28T16:15:16Z</time>
      </trkpt>
      <trkpt lat="46.50872" lon="9.86051">
        <ele>1748.78</ele>
        <time>2012-07-28T16:15:27Z</time>
      </trkpt>
      <trkpt lat="46.50938" lon="9.86199">
        <ele>1750.22</ele>
        <time>2012-07-28T16:15:33Z</time>
      </trkpt>
      <trkpt lat="46.51123" lon="9.86965">
        <ele>1747.81</ele>
        <time>2012-07-28T16:16:00Z</time>
      </trkpt>
      <trkpt lat="46.51139" lon="9.87021">
        <ele>1745.41</ele>
        <time>2012-07-28T16:16:02Z</time>
      </trkpt>
      <trkpt lat="46.51161" lon="9.87554">
        <ele>1754.06</ele>
        <time>2012-07-28T16:16:21Z</time>
      </trkpt>
      <trkpt lat="46.51136" lon="9.87687">
        <ele>1753.58</ele>
        <time>2012-07-28T16:16:27Z</time>
      </trkpt>
      <trkpt lat="46.51146" lon="9.87812">
        <ele>1751.18</ele>
        <time>2012-07-28T16:16:36Z</time>
      </trkpt>
      <trkpt lat="46.51112" lon="9.879">
        <ele>1750.7</ele>
        <time>2012-07-28T16:16:47Z</time>
      </trkpt>
      <trkpt lat="46.50996" lon="9.88012">
        <ele>1756.47</ele>
        <time>2012-07-28T16:16:59Z</time>
      </trkpt>
      <trkpt lat="46.50914" lon="9.8811">
        <ele>1760.31</ele>
        <time>2012-07-28T16:17:06Z</time>
      </trkpt>
      <trkpt lat="46.50859" lon="9.8821">
        <ele>1763.68</ele>
        <time>2012-07-28T16:17:12Z</time>
      </trkpt>
      <trkpt lat="46.50235" lon="9.88796">
        <ele>1780.02</ele>
        <time>2012-07-28T16:17:54Z</time>
      </trkpt>
      <trkpt lat="46.49984" lon="9.88937">
        <ele>1779.06</ele>
        <time>2012-07-28T16:18:07Z</time>
      </trkpt>
      <trkpt lat="46.49838" lon="9.89047">
        <ele>1779.06</ele>
        <time>2012-07-28T16:18:15Z</time>
      </trkpt>
      <trkpt lat="46.49262" lon="9.89628">
        <ele>1792.03</ele>
        <time>2012-07-28T16:18:47Z</time>
      </trkpt>
      <trkpt lat="46.49174" lon="9.89762">
        <ele>1797.8</ele>
        <time>2012-07-28T16:18:53Z</time>
      </trkpt>
      <trkpt lat="46.49126" lon="9.89904">
        <ele>1801.17</ele>
        <time>2012-07-28T16:18:58Z</time>
      </trkpt>
      <trkpt lat="46.49027" lon="9.90216">
        <ele>1804.53</ele>
        <time>2012-07-28T16:20:23Z</time>
      </trkpt>
      <trkpt lat="46.48986" lon="9.90275">
        <ele>1809.34</ele>
        <time>2012-07-28T16:20:29Z</time>
      </trkpt>
      <trkpt lat="46.48932" lon="9.90329">
        <ele>1816.55</ele>
        <time>2012-07-28T16:20:34Z</time>
      </trkpt>
      <trkpt lat="46.48808" lon="9.90439">
        <ele>1827.12</ele>
        <time>2012-07-28T16:20:43Z</time>
      </trkpt>
      <trkpt lat="46.48754" lon="9.90508">
        <ele>1831.45</ele>
        <time>2012-07-28T16:20:47Z</time>
      </trkpt>
      <trkpt lat="46.48565" lon="9.90869">
        <ele>1842.98</ele>
        <time>2012-07-28T16:21:03Z</time>
      </trkpt>
      <trkpt lat="46.48464" lon="9.91055">
        <ele>1844.91</ele>
        <time>2012-07-28T16:21:12Z</time>
      </trkpt>
      <trkpt lat="46.48114" lon="9.91573">
        <ele>1849.23</ele>
        <time>2012-07-28T16:21:39Z</time>
      </trkpt>
      <trkpt lat="46.47882" lon="9.92036">
        <ele>1855.48</ele>
        <time>2012-07-28T16:21:59Z</time>
      </trkpt>
      <trkpt lat="46.47692" lon="9.92232">
        <ele>1860.29</ele>
        <time>2012-07-28T16:22:10Z</time>
      </trkpt>
      <trkpt lat="46.47599" lon="9.92295">
        <ele>1862.21</ele>
        <time>2012-07-28T16:22:15Z</time>
      </trkpt>
      <trkpt lat="46.47478" lon="9.92326">
        <ele>1865.09</ele>
        <time>2012-07-28T16:22:21Z</time>
      </trkpt>
      <trkpt lat="46.4746" lon="9.92338">
        <ele>1865.09</ele>
        <time>2012-07-28T16:22:22Z</time>
      </trkpt>
      <trkpt lat="46.47315" lon="9.92511">
        <ele>1871.82</ele>
        <time>2012-07-28T16:22:31Z</time>
      </trkpt>
      <trkpt lat="46.47137" lon="9.92677">
        <ele>1875.67</ele>
        <time>2012-07-28T16:22:41Z</time>
      </trkpt>
      <trkpt lat="46.46835" lon="9.92902">
        <ele>1885.28</ele>
        <time>2012-07-28T16:22:57Z</time>
      </trkpt>
      <trkpt lat="46.46693" lon="9.93049">
        <ele>1889.61</ele>
        <time>2012-07-28T16:23:05Z</time>
      </trkpt>
      <trkpt lat="46.46611" lon="9.93151">
        <ele>1892.49</ele>
        <time>2012-07-28T16:23:10Z</time>
      </trkpt>
      <trkpt lat="46.46597" lon="9.93174">
        <ele>1892.97</ele>
        <time>2012-07-28T16:23:11Z</time>
      </trkpt>
      <trkpt lat="46.46556" lon="9.9324">
        <ele>1893.45</ele>
        <time>2012-07-28T16:23:14Z</time>
      </trkpt>
      <trkpt lat="46.46446" lon="9.93337">
        <ele>1896.82</ele>
        <time>2012-07-28T16:23:20Z</time>
      </trkpt>
      <trkpt lat="46.46266" lon="9.93565">
        <ele>1903.07</ele>
        <time>2012-07-28T16:23:31Z</time>
      </trkpt>
      <trkpt lat="46.46125" lon="9.93887">
        <ele>1917.01</ele>
        <time>2012-07-28T16:23:44Z</time>
      </trkpt>
      <trkpt lat="46.46017" lon="9.93989">
        <ele>1926.14</ele>
        <time>2012-07-28T16:23:51Z</time>
      </trkpt>
      <trkpt lat="46.45873" lon="9.94079">
        <ele>1935.75</ele>
        <time>2012-07-28T16:24:00Z</time>
      </trkpt>
      <trkpt lat="46.45835" lon="9.94118">
        <ele>1936.23</ele>
        <time>2012-07-28T16:24:03Z</time>
      </trkpt>
      <trkpt lat="46.45783" lon="9.94116">
        <ele>1941.04</ele>
        <time>2012-07-28T16:24:07Z</time>
      </trkpt>
      <trkpt lat="46.45758" lon="9.94121">
        <ele>1941.04</ele>
        <time>2012-07-28T16:24:09Z</time>
      </trkpt>
      <trkpt lat="46.45713" lon="9.94174">
        <ele>1946.33</ele>
        <time>2012-07-28T16:24:13Z</time>
      </trkpt>
      <trkpt lat="46.45673" lon="9.94219">
        <ele>1946.33</ele>
        <time>2012-07-28T16:24:17Z</time>
      </trkpt>
      <trkpt lat="46.45671" lon="9.9424">
        <ele>1946.81</ele>
        <time>2012-07-28T16:24:20Z</time>
      </trkpt>
      <trkpt lat="46.45683" lon="9.94237">
        <ele>1948.73</ele>
        <time>2012-07-28T16:24:22Z</time>
      </trkpt>
      <trkpt lat="46.4571" lon="9.94215">
        <ele>1951.61</ele>
        <time>2012-07-28T16:24:25Z</time>
      </trkpt>
      <trkpt lat="46.45775" lon="9.94203">
        <ele>1957.38</ele>
        <time>2012-07-28T16:24:30Z</time>
      </trkpt>
      <trkpt lat="46.45805" lon="9.94217">
        <ele>1956.9</ele>
        <time>2012-07-28T16:24:33Z</time>
      </trkpt>
      <trkpt lat="46.45808" lon="9.94233">
        <ele>1958.82</ele>
        <time>2012-07-28T16:24:35Z</time>
      </trkpt>
      <trkpt lat="46.45786" lon="9.94246">
        <ele>1963.15</ele>
        <time>2012-07-28T16:24:38Z</time>
      </trkpt>
      <trkpt lat="46.45775" lon="9.9425">
        <ele>1964.59</ele>
        <time>2012-07-28T16:24:39Z</time>
      </trkpt>
      <trkpt lat="46.45709" lon="9.9428">
        <ele>1966.03</ele>
        <time>2012-07-28T16:24:48Z</time>
      </trkpt>
      <trkpt lat="46.45655" lon="9.94388">
        <ele>1975.17</ele>
        <time>2012-07-28T16:27:10Z</time>
      </trkpt>
      <trkpt lat="46.45625" lon="9.94442">
        <ele>1979.01</ele>
        <time>2012-07-28T16:27:14Z</time>
      </trkpt>
      <trkpt lat="46.45546" lon="9.9448">
        <ele>1985.74</ele>
        <time>2012-07-28T16:27:21Z</time>
      </trkpt>
      <trkpt lat="46.45476" lon="9.94576">
        <ele>1992.95</ele>
        <time>2012-07-28T16:27:29Z</time>
      </trkpt>
      <trkpt lat="46.45427" lon="9.94618">
        <ele>1998.24</ele>
        <time>2012-07-28T16:27:33Z</time>
      </trkpt>
      <trkpt lat="46.45383" lon="9.94663">
        <ele>2001.6</ele>
        <time>2012-07-28T16:27:37Z</time>
      </trkpt>
      <trkpt lat="46.45344" lon="9.94748">
        <ele>2004.01</ele>
        <time>2012-07-28T16:31:15Z</time>
      </trkpt>
      <trkpt lat="46.45302" lon="9.94902">
        <ele>2016.5</ele>
        <time>2012-07-28T16:32:50Z</time>
      </trkpt>
      <trkpt lat="46.45252" lon="9.94981">
        <ele>2020.83</ele>
        <time>2012-07-28T16:32:56Z</time>
      </trkpt>
      <trkpt lat="46.45252" lon="9.95053">
        <ele>2025.15</ele>
        <time>2012-07-28T16:33:00Z</time>
      </trkpt>
      <trkpt lat="46.45259" lon="9.95171">
        <ele>2027.08</ele>
        <time>2012-07-28T16:33:06Z</time>
      </trkpt>
      <trkpt lat="46.45212" lon="9.95261">
        <ele>2031.4</ele>
        <time>2012-07-28T16:33:11Z</time>
      </trkpt>
      <trkpt lat="46.45182" lon="9.95288">
        <ele>2032.36</ele>
        <time>2012-07-28T16:33:13Z</time>
      </trkpt>
      <trkpt lat="46.45056" lon="9.9541">
        <ele>2035.73</ele>
        <time>2012-07-28T16:33:21Z</time>
      </trkpt>
      <trkpt lat="46.44999" lon="9.95496">
        <ele>2038.13</ele>
        <time>2012-07-28T16:33:25Z</time>
      </trkpt>
      <trkpt lat="46.44883" lon="9.9571">
        <ele>2041.02</ele>
        <time>2012-07-28T16:33:34Z</time>
      </trkpt>
      <trkpt lat="46.44807" lon="9.96035">
        <ele>2051.11</ele>
        <time>2012-07-28T16:33:45Z</time>
      </trkpt>
      <trkpt lat="46.44704" lon="9.96495">
        <ele>2047.75</ele>
        <time>2012-07-28T16:34:01Z</time>
      </trkpt>
      <trkpt lat="46.44662" lon="9.96644">
        <ele>2046.78</ele>
        <time>2012-07-28T16:34:09Z</time>
      </trkpt>
      <trkpt lat="46.44518" lon="9.96929">
        <ele>2051.11</ele>
        <time>2012-07-28T16:34:34Z</time>
      </trkpt>
      <trkpt lat="46.44461" lon="9.97199">
        <ele>2059.76</ele>
        <time>2012-07-28T16:34:46Z</time>
      </trkpt>
      <trkpt lat="46.44378" lon="9.97336">
        <ele>2066.49</ele>
        <time>2012-07-28T16:34:53Z</time>
      </trkpt>
      <trkpt lat="46.44297" lon="9.97491">
        <ele>2069.38</ele>
        <time>2012-07-28T16:35:00Z</time>
      </trkpt>
      <trkpt lat="46.44275" lon="9.97565">
        <ele>2069.38</ele>
        <time>2012-07-28T16:35:03Z</time>
      </trkpt>
      <trkpt lat="46.44272" lon="9.97644">
        <ele>2072.74</ele>
        <time>2012-07-28T16:35:06Z</time>
      </trkpt>
      <trkpt lat="46.44295" lon="9.97801">
        <ele>2075.14</ele>
        <time>2012-07-28T16:35:12Z</time>
      </trkpt>
      <trkpt lat="46.44256" lon="9.98068">
        <ele>2086.2</ele>
        <time>2012-07-28T16:35:22Z</time>
      </trkpt>
      <trkpt lat="46.44218" lon="9.98451">
        <ele>2088.6</ele>
        <time>2012-07-28T16:35:36Z</time>
      </trkpt>
      <trkpt lat="46.44214" lon="9.98496">
        <ele>2084.76</ele>
        <time>2012-07-28T16:35:38Z</time>
      </trkpt>
      <trkpt lat="46.44196" lon="9.98554">
        <ele>2085.24</ele>
        <time>2012-07-28T16:35:41Z</time>
      </trkpt>
      <trkpt lat="46.44063" lon="9.98652">
        <ele>2093.41</ele>
        <time>2012-07-28T16:35:50Z</time>
      </trkpt>
      <trkpt lat="46.44004" lon="9.98793">
        <ele>2097.25</ele>
        <time>2012-07-28T16:35:56Z</time>
      </trkpt>
      <trkpt lat="46.43936" lon="9.98904">
        <ele>2101.58</ele>
        <time>2012-07-28T16:36:01Z</time>
      </trkpt>
      <trkpt lat="46.43722" lon="9.99236">
        <ele>2109.75</ele>
        <time>2012-07-28T16:36:16Z</time>
      </trkpt>
      <trkpt lat="46.43653" lon="9.99391">
        <ele>2113.12</ele>
        <time>2012-07-28T16:36:22Z</time>
      </trkpt>
      <trkpt lat="46.43631" lon="9.99443">
        <ele>2114.08</ele>
        <time>2012-07-28T16:36:24Z</time>
      </trkpt>
      <trkpt lat="46.4358" lon="9.99536">
        <ele>2113.12</ele>
        <time>2012-07-28T16:36:29Z</time>
      </trkpt>
      <trkpt lat="46.43498" lon="9.9959">
        <ele>2120.32</ele>
        <time>2012-07-28T16:36:34Z</time>
      </trkpt>
      <trkpt lat="46.43438" lon="9.99645">
        <ele>2125.13</ele>
        <time>2012-07-28T16:36:38Z</time>
      </trkpt>
      <trkpt lat="46.43423" lon="9.99658">
        <ele>2125.61</ele>
        <time>2012-07-28T16:36:39Z</time>
      </trkpt>
      <trkpt lat="46.43326" lon="9.99692">
        <ele>2130.42</ele>
        <time>2012-07-28T16:36:45Z</time>
      </trkpt>
      <trkpt lat="46.43292" lon="9.99733">
        <ele>2132.82</ele>
        <time>2012-07-28T16:36:48Z</time>
      </trkpt>
      <trkpt lat="46.43276" lon="9.99765">
        <ele>2130.42</ele>
        <time>2012-07-28T16:36:50Z</time>
      </trkpt>
      <trkpt lat="46.43255" lon="9.99785">
        <ele>2129.94</ele>
        <time>2012-07-28T16:36:52Z</time>
      </trkpt>
      <trkpt lat="46.43172" lon="9.99801">
        <ele>2133.78</ele>
        <time>2012-07-28T16:36:58Z</time>
      </trkpt>
      <trkpt lat="46.43082" lon="9.99881">
        <ele>2137.63</ele>
        <time>2012-07-28T16:37:05Z</time>
      </trkpt>
      <trkpt lat="46.42939" lon="9.99925">
        <ele>2146.76</ele>
        <time>2012-07-28T16:37:13Z</time>
      </trkpt>
      <trkpt lat="46.42689" lon="9.99917">
        <ele>2163.1</ele>
        <time>2012-07-28T16:37:26Z</time>
      </trkpt>
      <trkpt lat="46.42634" lon="9.99934">
        <ele>2164.55</ele>
        <time>2012-07-28T16:37:29Z</time>
      </trkpt>
      <trkpt lat="46.42427" lon="10.00067">
        <ele>2181.85</ele>
        <time>2012-07-28T16:37:41Z</time>
      </trkpt>
      <trkpt lat="46.42273" lon="10.00197">
        <ele>2196.27</ele>
        <time>2012-07-28T16:37:50Z</time>
      </trkpt>
      <trkpt lat="46.42111" lon="10.0029">
        <ele>2210.69</ele>
        <time>2012-07-28T16:37:59Z</time>
      </trkpt>
      <trkpt lat="46.42062" lon="10.00322">
        <ele>2213.57</ele>
        <time>2012-07-28T16:38:02Z</time>
      </trkpt>
      <trkpt lat="46.42022" lon="10.00362">
        <ele>2216.46</ele>
        <time>2012-07-28T16:38:05Z</time>
      </trkpt>
      <trkpt lat="46.41977" lon="10.00462">
        <ele>2222.71</ele>
        <time>2012-07-28T16:38:10Z</time>
      </trkpt>
      <trkpt lat="46.41958" lon="10.0059">
        <ele>2228.47</ele>
        <time>2012-07-28T16:38:15Z</time>
      </trkpt>
      <trkpt lat="46.4193" lon="10.00738">
        <ele>2231.84</ele>
        <time>2012-07-28T16:38:21Z</time>
      </trkpt>
      <trkpt lat="46.4182" lon="10.00915">
        <ele>2241.45</ele>
        <time>2012-07-28T16:38:31Z</time>
      </trkpt>
      <trkpt lat="46.41798" lon="10.00966">
        <ele>2238.57</ele>
        <time>2012-07-28T16:38:34Z</time>
      </trkpt>
      <trkpt lat="46.41796" lon="10.0104">
        <ele>2245.3</ele>
        <time>2012-07-28T16:38:38Z</time>
      </trkpt>
      <trkpt lat="46.41793" lon="10.0117">
        <ele>2244.33</ele>
        <time>2012-07-28T16:38:44Z</time>
      </trkpt>
      <trkpt lat="46.41781" lon="10.01209">
        <ele>2246.74</ele>
        <time>2012-07-28T16:38:46Z</time>
      </trkpt>
      <trkpt lat="46.41712" lon="10.0129">
        <ele>2252.51</ele>
        <time>2012-07-28T16:38:52Z</time>
      </trkpt>
      <trkpt lat="46.41686" lon="10.01315">
        <ele>2252.99</ele>
        <time>2012-07-28T16:38:54Z</time>
      </trkpt>
      <trkpt lat="46.41609" lon="10.01362">
        <ele>2253.95</ele>
        <time>2012-07-28T16:39:00Z</time>
      </trkpt>
      <trkpt lat="46.41578" lon="10.01424">
        <ele>2258.75</ele>
        <time>2012-07-28T16:39:04Z</time>
      </trkpt>
      <trkpt lat="46.41564" lon="10.01462">
        <ele>2258.27</ele>
        <time>2012-07-28T16:39:06Z</time>
      </trkpt>
      <trkpt lat="46.41554" lon="10.01632">
        <ele>2267.89</ele>
        <time>2012-07-28T16:39:13Z</time>
      </trkpt>
      <trkpt lat="46.41556" lon="10.01728">
        <ele>2266.93</ele>
        <time>2012-07-28T16:39:17Z</time>
      </trkpt>
      <trkpt lat="46.41586" lon="10.01848">
        <ele>2273.17</ele>
        <time>2012-07-28T16:39:22Z</time>
      </trkpt>
      <trkpt lat="46.41625" lon="10.01938">
        <ele>2273.66</ele>
        <time>2012-07-28T16:39:26Z</time>
      </trkpt>
      <trkpt lat="46.41673" lon="10.02041">
        <ele>2267.89</ele>
        <time>2012-07-28T16:39:32Z</time>
      </trkpt>
      <trkpt lat="46.41674" lon="10.0208">
        <ele>2269.33</ele>
        <time>2012-07-28T16:39:35Z</time>
      </trkpt>
      <trkpt lat="46.41654" lon="10.02104">
        <ele>2271.73</ele>
        <time>2012-07-28T16:39:38Z</time>
      </trkpt>
      <trkpt lat="46.41609" lon="10.02089">
        <ele>2277.5</ele>
        <time>2012-07-28T16:39:42Z</time>
      </trkpt>
      <trkpt lat="46.41569" lon="10.02078">
        <ele>2281.83</ele>
        <time>2012-07-28T16:39:45Z</time>
      </trkpt>
      <trkpt lat="46.41522" lon="10.02077">
        <ele>2283.75</ele>
        <time>2012-07-28T16:39:48Z</time>
      </trkpt>
      <trkpt lat="46.41436" lon="10.02064">
        <ele>2285.67</ele>
        <time>2012-07-28T16:39:54Z</time>
      </trkpt>
      <trkpt lat="46.41318" lon="10.02101">
        <ele>2288.56</ele>
        <time>2012-07-28T16:40:02Z</time>
      </trkpt>
      <trkpt lat="46.41254" lon="10.02143">
        <ele>2286.63</ele>
        <time>2012-07-28T16:40:07Z</time>
      </trkpt>
      <trkpt lat="46.41164" lon="10.02124">
        <ele>2294.8</ele>
        <time>2012-07-28T16:40:14Z</time>
      </trkpt>
      <trkpt lat="46.41116" lon="10.02149">
        <ele>2297.69</ele>
        <time>2012-07-28T16:40:18Z</time>
      </trkpt>
      <trkpt lat="46.41106" lon="10.02161">
        <ele>2297.69</ele>
        <time>2012-07-28T16:40:19Z</time>
      </trkpt>
      <trkpt lat="46.41076" lon="10.02251">
        <ele>2297.21</ele>
        <time>2012-07-28T16:40:24Z</time>
      </trkpt>
      <trkpt lat="46.41074" lon="10.02641">
        <ele>2311.63</ele>
        <time>2012-07-28T16:40:43Z</time>
      </trkpt>
      <trkpt lat="46.41111" lon="10.02842">
        <ele>2312.11</ele>
        <time>2012-07-28T16:40:53Z</time>
      </trkpt>
      <trkpt lat="46.41148" lon="10.02929">
        <ele>2310.67</ele>
        <time>2012-07-28T16:40:58Z</time>
      </trkpt>
      <trkpt lat="46.41151" lon="10.02947">
        <ele>2307.3</ele>
        <time>2012-07-28T16:40:59Z</time>
      </trkpt>
      <trkpt lat="46.41137" lon="10.03074">
        <ele>2294.8</ele>
        <time>2012-07-28T16:41:05Z</time>
      </trkpt>
      <trkpt lat="46.41154" lon="10.03273">
        <ele>2284.71</ele>
        <time>2012-07-28T16:41:14Z</time>
      </trkpt>
      <trkpt lat="46.41214" lon="10.03345">
        <ele>2277.98</ele>
        <time>2012-07-28T16:41:19Z</time>
      </trkpt>
      <trkpt lat="46.41263" lon="10.03454">
        <ele>2267.89</ele>
        <time>2012-07-28T16:41:25Z</time>
      </trkpt>
      <trkpt lat="46.41341" lon="10.03518">
        <ele>2262.12</ele>
        <time>2012-07-28T16:41:30Z</time>
      </trkpt>
      <trkpt lat="46.41388" lon="10.03615">
        <ele>2256.83</ele>
        <time>2012-07-28T16:41:34Z</time>
      </trkpt>
      <trkpt lat="46.41427" lon="10.03692">
        <ele>2246.26</ele>
        <time>2012-07-28T16:41:38Z</time>
      </trkpt>
      <trkpt lat="46.41438" lon="10.03802">
        <ele>2239.05</ele>
        <time>2012-07-28T16:41:43Z</time>
      </trkpt>
      <trkpt lat="46.41502" lon="10.03897">
        <ele>2233.28</ele>
        <time>2012-07-28T16:41:48Z</time>
      </trkpt>
      <trkpt lat="46.41547" lon="10.03986">
        <ele>2225.11</ele>
        <time>2012-07-28T16:41:52Z</time>
      </trkpt>
      <trkpt lat="46.41589" lon="10.04051">
        <ele>2215.98</ele>
        <time>2012-07-28T16:41:58Z</time>
      </trkpt>
      <trkpt lat="46.4158" lon="10.04062">
        <ele>2215.5</ele>
        <time>2012-07-28T16:42:00Z</time>
      </trkpt>
      <trkpt lat="46.41555" lon="10.04034">
        <ele>2216.94</ele>
        <time>2012-07-28T16:42:03Z</time>
      </trkpt>
      <trkpt lat="46.41507" lon="10.0397">
        <ele>2215.5</ele>
        <time>2012-07-28T16:42:07Z</time>
      </trkpt>
      <trkpt lat="46.4136" lon="10.03892">
        <ele>2204.44</ele>
        <time>2012-07-28T16:43:48Z</time>
      </trkpt>
      <trkpt lat="46.41267" lon="10.03798">
        <ele>2191.94</ele>
        <time>2012-07-28T16:43:56Z</time>
      </trkpt>
      <trkpt lat="46.41231" lon="10.03793">
        <ele>2188.58</ele>
        <time>2012-07-28T16:43:59Z</time>
      </trkpt>
      <trkpt lat="46.41203" lon="10.03829">
        <ele>2186.66</ele>
        <time>2012-07-28T16:44:02Z</time>
      </trkpt>
      <trkpt lat="46.41205" lon="10.03884">
        <ele>2182.81</ele>
        <time>2012-07-28T16:44:05Z</time>
      </trkpt>
      <trkpt lat="46.41245" lon="10.0394">
        <ele>2176.56</ele>
        <time>2012-07-28T16:44:09Z</time>
      </trkpt>
      <trkpt lat="46.41254" lon="10.03981">
        <ele>2177.52</ele>
        <time>2012-07-28T16:44:11Z</time>
      </trkpt>
      <trkpt lat="46.41255" lon="10.04002">
        <ele>2176.56</ele>
        <time>2012-07-28T16:44:12Z</time>
      </trkpt>
      <trkpt lat="46.41267" lon="10.04058">
        <ele>2171.76</ele>
        <time>2012-07-28T16:44:15Z</time>
      </trkpt>
      <trkpt lat="46.41307" lon="10.04095">
        <ele>2169.35</ele>
        <time>2012-07-28T16:44:18Z</time>
      </trkpt>
      <trkpt lat="46.41383" lon="10.04156">
        <ele>2157.34</ele>
        <time>2012-07-28T16:44:24Z</time>
      </trkpt>
      <trkpt lat="46.41382" lon="10.04296">
        <ele>2154.93</ele>
        <time>2012-07-28T16:44:30Z</time>
      </trkpt>
      <trkpt lat="46.41364" lon="10.04365">
        <ele>2148.68</ele>
        <time>2012-07-28T16:44:33Z</time>
      </trkpt>
      <trkpt lat="46.4136" lon="10.04481">
        <ele>2139.07</ele>
        <time>2012-07-28T16:44:39Z</time>
      </trkpt>
      <trkpt lat="46.41316" lon="10.04516">
        <ele>2137.15</ele>
        <time>2012-07-28T16:44:43Z</time>
      </trkpt>
      <trkpt lat="46.41285" lon="10.04533">
        <ele>2130.9</ele>
        <time>2012-07-28T16:44:46Z</time>
      </trkpt>
      <trkpt lat="46.41279" lon="10.04586">
        <ele>2131.86</ele>
        <time>2012-07-28T16:44:49Z</time>
      </trkpt>
      <trkpt lat="46.41287" lon="10.04641">
        <ele>2125.61</ele>
        <time>2012-07-28T16:44:52Z</time>
      </trkpt>
      <trkpt lat="46.41318" lon="10.04671">
        <ele>2124.17</ele>
        <time>2012-07-28T16:44:55Z</time>
      </trkpt>
      <trkpt lat="46.41362" lon="10.04672">
        <ele>2119.84</ele>
        <time>2012-07-28T16:44:58Z</time>
      </trkpt>
      <trkpt lat="46.41392" lon="10.04688">
        <ele>2113.6</ele>
        <time>2012-07-28T16:45:01Z</time>
      </trkpt>
      <trkpt lat="46.414" lon="10.0471">
        <ele>2111.19</ele>
        <time>2012-07-28T16:45:03Z</time>
      </trkpt>
      <trkpt lat="46.41393" lon="10.04731">
        <ele>2108.79</ele>
        <time>2012-07-28T16:45:05Z</time>
      </trkpt>
      <trkpt lat="46.41371" lon="10.04736">
        <ele>2109.27</ele>
        <time>2012-07-28T16:45:07Z</time>
      </trkpt>
      <trkpt lat="46.4131" lon="10.04755">
        <ele>2101.1</ele>
        <time>2012-07-28T16:45:13Z</time>
      </trkpt>
      <trkpt lat="46.41321" lon="10.04827">
        <ele>2096.77</ele>
        <time>2012-07-28T16:45:21Z</time>
      </trkpt>
      <trkpt lat="46.41311" lon="10.04842">
        <ele>2094.85</ele>
        <time>2012-07-28T16:45:23Z</time>
      </trkpt>
      <trkpt lat="46.41296" lon="10.04837">
        <ele>2092.93</ele>
        <time>2012-07-28T16:45:25Z</time>
      </trkpt>
      <trkpt lat="46.41257" lon="10.04775">
        <ele>2088.12</ele>
        <time>2012-07-28T16:45:33Z</time>
      </trkpt>
      <trkpt lat="46.41247" lon="10.04775">
        <ele>2087.16</ele>
        <time>2012-07-28T16:45:34Z</time>
      </trkpt>
      <trkpt lat="46.4115" lon="10.04859">
        <ele>2081.87</ele>
        <time>2012-07-28T16:45:41Z</time>
      </trkpt>
      <trkpt lat="46.41089" lon="10.04922">
        <ele>2073.22</ele>
        <time>2012-07-28T16:45:46Z</time>
      </trkpt>
      <trkpt lat="46.41075" lon="10.04965">
        <ele>2067.45</ele>
        <time>2012-07-28T16:45:49Z</time>
      </trkpt>
      <trkpt lat="46.41082" lon="10.05006">
        <ele>2064.57</ele>
        <time>2012-07-28T16:45:52Z</time>
      </trkpt>
      <trkpt lat="46.41145" lon="10.05081">
        <ele>2053.99</ele>
        <time>2012-07-28T16:46:03Z</time>
      </trkpt>
      <trkpt lat="46.41221" lon="10.05043">
        <ele>2057.36</ele>
        <time>2012-07-28T16:46:31Z</time>
      </trkpt>
      <trkpt lat="46.41272" lon="10.04985">
        <ele>2058.32</ele>
        <time>2012-07-28T16:46:38Z</time>
      </trkpt>
      <trkpt lat="46.41331" lon="10.04994">
        <ele>2060.24</ele>
        <time>2012-07-28T16:46:44Z</time>
      </trkpt>
      <trkpt lat="46.41402" lon="10.04966">
        <ele>2057.36</ele>
        <time>2012-07-28T16:46:50Z</time>
      </trkpt>
      <trkpt lat="46.41456" lon="10.05016">
        <ele>2055.44</ele>
        <time>2012-07-28T16:46:56Z</time>
      </trkpt>
      <trkpt lat="46.41546" lon="10.0503">
        <ele>2053.51</ele>
        <time>2012-07-28T16:47:03Z</time>
      </trkpt>
      <trkpt lat="46.41586" lon="10.05068">
        <ele>2053.51</ele>
        <time>2012-07-28T16:47:08Z</time>
      </trkpt>
      <trkpt lat="46.41645" lon="10.05078">
        <ele>2056.88</ele>
        <time>2012-07-28T16:47:14Z</time>
      </trkpt>
      <trkpt lat="46.41682" lon="10.05106">
        <ele>2057.84</ele>
        <time>2012-07-28T16:47:18Z</time>
      </trkpt>
      <trkpt lat="46.41798" lon="10.05074">
        <ele>2065.53</ele>
        <time>2012-07-28T16:47:27Z</time>
      </trkpt>
      <trkpt lat="46.41968" lon="10.05111">
        <ele>2073.7</ele>
        <time>2012-07-28T16:47:39Z</time>
      </trkpt>
      <trkpt lat="46.42014" lon="10.051">
        <ele>2079.47</ele>
        <time>2012-07-28T16:47:42Z</time>
      </trkpt>
      <trkpt lat="46.42031" lon="10.05096">
        <ele>2079.47</ele>
        <time>2012-07-28T16:47:43Z</time>
      </trkpt>
      <trkpt lat="46.42162" lon="10.05086">
        <ele>2090.04</ele>
        <time>2012-07-28T16:47:51Z</time>
      </trkpt>
      <trkpt lat="46.42226" lon="10.05089">
        <ele>2089.08</ele>
        <time>2012-07-28T16:47:55Z</time>
      </trkpt>
      <trkpt lat="46.42307" lon="10.05125">
        <ele>2084.76</ele>
        <time>2012-07-28T16:48:01Z</time>
      </trkpt>
      <trkpt lat="46.42322" lon="10.05137">
        <ele>2083.31</ele>
        <time>2012-07-28T16:48:03Z</time>
      </trkpt>
      <trkpt lat="46.42353" lon="10.05245">
        <ele>2090.04</ele>
        <time>2012-07-28T16:48:10Z</time>
      </trkpt>
      <trkpt lat="46.42387" lon="10.05267">
        <ele>2095.33</ele>
        <time>2012-07-28T16:48:13Z</time>
      </trkpt>
      <trkpt lat="46.42535" lon="10.05183">
        <ele>2112.63</ele>
        <time>2012-07-28T16:48:24Z</time>
      </trkpt>
      <trkpt lat="46.42594" lon="10.05183">
        <ele>2119.36</ele>
        <time>2012-07-28T16:48:28Z</time>
      </trkpt>
      <trkpt lat="46.4265" lon="10.05193">
        <ele>2121.29</ele>
        <time>2012-07-28T16:48:39Z</time>
      </trkpt>
      <trkpt lat="46.42639" lon="10.05179">
        <ele>2122.73</ele>
        <time>2012-07-28T16:49:56Z</time>
      </trkpt>
      <trkpt lat="46.4264" lon="10.05179">
        <ele>2122.73</ele>
        <time>2012-07-28T16:50:19Z</time>
      </trkpt>
      <trkpt lat="46.42768" lon="10.05249">
        <ele>2131.86</ele>
        <time>2012-07-28T16:51:12Z</time>
      </trkpt>
      <trkpt lat="46.42783" lon="10.05249">
        <ele>2131.38</ele>
        <time>2012-07-28T16:51:13Z</time>
      </trkpt>
      <trkpt lat="46.42904" lon="10.05211">
        <ele>2143.88</ele>
        <time>2012-07-28T16:51:21Z</time>
      </trkpt>
      <trkpt lat="46.42997" lon="10.05214">
        <ele>2156.37</ele>
        <time>2012-07-28T16:51:27Z</time>
      </trkpt>
      <trkpt lat="46.43104" lon="10.05219">
        <ele>2167.91</ele>
        <time>2012-07-28T16:51:34Z</time>
      </trkpt>
      <trkpt lat="46.43226" lon="10.05157">
        <ele>2181.85</ele>
        <time>2012-07-28T16:51:43Z</time>
      </trkpt>
      <trkpt lat="46.43297" lon="10.05142">
        <ele>2192.9</ele>
        <time>2012-07-28T16:51:48Z</time>
      </trkpt>
      <trkpt lat="46.43378" lon="10.05152">
        <ele>2201.08</ele>
        <time>2012-07-28T16:51:54Z</time>
      </trkpt>
      <trkpt lat="46.43409" lon="10.05095">
        <ele>2207.81</ele>
        <time>2012-07-28T16:51:59Z</time>
      </trkpt>
      <trkpt lat="46.43404" lon="10.05008">
        <ele>2216.94</ele>
        <time>2012-07-28T16:52:04Z</time>
      </trkpt>
      <trkpt lat="46.43353" lon="10.04936">
        <ele>2218.86</ele>
        <time>2012-07-28T16:52:12Z</time>
      </trkpt>
      <trkpt lat="46.43352" lon="10.04932">
        <ele>2217.9</ele>
        <time>2012-07-28T16:52:13Z</time>
      </trkpt>
      <trkpt lat="46.43437" lon="10.04995">
        <ele>2232.8</ele>
        <time>2012-07-28T16:52:22Z</time>
      </trkpt>
      <trkpt lat="46.43449" lon="10.05007">
        <ele>2232.8</ele>
        <time>2012-07-28T16:52:23Z</time>
      </trkpt>
      <trkpt lat="46.43478" lon="10.05061">
        <ele>2243.85</ele>
        <time>2012-07-28T16:52:27Z</time>
      </trkpt>
      <trkpt lat="46.43469" lon="10.05136">
        <ele>2246.74</ele>
        <time>2012-07-28T16:52:33Z</time>
      </trkpt>
      <trkpt lat="46.43484" lon="10.05157">
        <ele>2246.74</ele>
        <time>2012-07-28T16:52:35Z</time>
      </trkpt>
      <trkpt lat="46.43524" lon="10.05187">
        <ele>2251.06</ele>
        <time>2012-07-28T16:52:38Z</time>
      </trkpt>
      <trkpt lat="46.43582" lon="10.05214">
        <ele>2253.95</ele>
        <time>2012-07-28T16:52:42Z</time>
      </trkpt>
      <trkpt lat="46.43622" lon="10.05271">
        <ele>2263.56</ele>
        <time>2012-07-28T16:52:47Z</time>
      </trkpt>
      <trkpt lat="46.43759" lon="10.05352">
        <ele>2271.73</ele>
        <time>2012-07-28T16:52:57Z</time>
      </trkpt>
      <trkpt lat="46.43996" lon="10.05553">
        <ele>2302.98</ele>
        <time>2012-07-28T16:53:13Z</time>
      </trkpt>
      <trkpt lat="46.44079" lon="10.0561">
        <ele>2306.82</ele>
        <time>2012-07-28T16:53:20Z</time>
      </trkpt>
      <trkpt lat="46.44115" lon="10.05623">
        <ele>2306.34</ele>
        <time>2012-07-28T16:53:27Z</time>
      </trkpt>
      <trkpt lat="46.44131" lon="10.05609">
        <ele>2305.86</ele>
        <time>2012-07-28T16:53:31Z</time>
      </trkpt>
      <trkpt lat="46.4416" lon="10.05553">
        <ele>2302.98</ele>
        <time>2012-07-28T16:53:36Z</time>
      </trkpt>
      <trkpt lat="46.44185" lon="10.05535">
        <ele>2299.13</ele>
        <time>2012-07-28T16:53:39Z</time>
      </trkpt>
      <trkpt lat="46.44355" lon="10.05617">
        <ele>2289.52</ele>
        <time>2012-07-28T16:53:50Z</time>
      </trkpt>
      <trkpt lat="46.44515" lon="10.0567">
        <ele>2273.17</ele>
        <time>2012-07-28T16:54:00Z</time>
      </trkpt>
      <trkpt lat="46.44736" lon="10.05641">
        <ele>2259.24</ele>
        <time>2012-07-28T16:54:12Z</time>
      </trkpt>
      <trkpt lat="46.44894" lon="10.05614">
        <ele>2246.26</ele>
        <time>2012-07-28T16:54:19Z</time>
      </trkpt>
      <trkpt lat="46.44979" lon="10.05618">
        <ele>2239.05</ele>
        <time>2012-07-28T16:54:23Z</time>
      </trkpt>
      <trkpt lat="46.45161" lon="10.0567">
        <ele>2231.84</ele>
        <time>2012-07-28T16:54:34Z</time>
      </trkpt>
      <trkpt lat="46.45275" lon="10.05675">
        <ele>2224.15</ele>
        <time>2012-07-28T16:54:40Z</time>
      </trkpt>
      <trkpt lat="46.45387" lon="10.05715">
        <ele>2215.98</ele>
        <time>2012-07-28T16:54:45Z</time>
      </trkpt>
      <trkpt lat="46.45626" lon="10.05778">
        <ele>2193.87</ele>
        <time>2012-07-28T16:54:59Z</time>
      </trkpt>
      <trkpt lat="46.45695" lon="10.05717">
        <ele>2187.62</ele>
        <time>2012-07-28T16:55:04Z</time>
      </trkpt>
      <trkpt lat="46.45736" lon="10.05712">
        <ele>2183.77</ele>
        <time>2012-07-28T16:55:07Z</time>
      </trkpt>
      <trkpt lat="46.45761" lon="10.0572">
        <ele>2182.33</ele>
        <time>2012-07-28T16:55:09Z</time>
      </trkpt>
      <trkpt lat="46.45775" lon="10.05726">
        <ele>2178.97</ele>
        <time>2012-07-28T16:55:10Z</time>
      </trkpt>
      <trkpt lat="46.45789" lon="10.0574">
        <ele>2177.52</ele>
        <time>2012-07-28T16:55:11Z</time>
      </trkpt>
      <trkpt lat="46.45772" lon="10.05737">
        <ele>2175.6</ele>
        <time>2012-07-28T16:55:12Z</time>
      </trkpt>
      <trkpt lat="46.45829" lon="10.0579">
        <ele>2174.16</ele>
        <time>2012-07-28T16:55:13Z</time>
      </trkpt>
      <trkpt lat="46.45902" lon="10.05868">
        <ele>2167.91</ele>
        <time>2012-07-28T16:55:18Z</time>
      </trkpt>
      <trkpt lat="46.45957" lon="10.05971">
        <ele>2162.62</ele>
        <time>2012-07-28T16:55:23Z</time>
      </trkpt>
      <trkpt lat="46.46033" lon="10.06113">
        <ele>2150.61</ele>
        <time>2012-07-28T16:55:30Z</time>
      </trkpt>
      <trkpt lat="46.46059" lon="10.0617">
        <ele>2147.72</ele>
        <time>2012-07-28T16:55:33Z</time>
      </trkpt>
      <trkpt lat="46.46071" lon="10.06308">
        <ele>2142.44</ele>
        <time>2012-07-28T16:55:38Z</time>
      </trkpt>
      <trkpt lat="46.46073" lon="10.0636">
        <ele>2137.63</ele>
        <time>2012-07-28T16:55:40Z</time>
      </trkpt>
      <trkpt lat="46.46084" lon="10.0643">
        <ele>2133.3</ele>
        <time>2012-07-28T16:55:43Z</time>
      </trkpt>
      <trkpt lat="46.46154" lon="10.06617">
        <ele>2123.21</ele>
        <time>2012-07-28T16:55:52Z</time>
      </trkpt>
      <trkpt lat="46.46153" lon="10.06671">
        <ele>2122.73</ele>
        <time>2012-07-28T16:55:54Z</time>
      </trkpt>
      <trkpt lat="46.46151" lon="10.06869">
        <ele>2112.15</ele>
        <time>2012-07-28T16:56:02Z</time>
      </trkpt>
      <trkpt lat="46.46163" lon="10.06972">
        <ele>2112.63</ele>
        <time>2012-07-28T16:56:06Z</time>
      </trkpt>
      <trkpt lat="46.46206" lon="10.0716">
        <ele>2100.62</ele>
        <time>2012-07-28T16:56:13Z</time>
      </trkpt>
      <trkpt lat="46.4621" lon="10.07204">
        <ele>2096.29</ele>
        <time>2012-07-28T16:56:15Z</time>
      </trkpt>
      <trkpt lat="46.46199" lon="10.07272">
        <ele>2093.41</ele>
        <time>2012-07-28T16:56:18Z</time>
      </trkpt>
      <trkpt lat="46.46177" lon="10.07309">
        <ele>2092.45</ele>
        <time>2012-07-28T16:56:20Z</time>
      </trkpt>
      <trkpt lat="46.46156" lon="10.0736">
        <ele>2089.08</ele>
        <time>2012-07-28T16:56:23Z</time>
      </trkpt>
      <trkpt lat="46.46153" lon="10.07472">
        <ele>2088.6</ele>
        <time>2012-07-28T16:56:27Z</time>
      </trkpt>
      <trkpt lat="46.46161" lon="10.07565">
        <ele>2085.24</ele>
        <time>2012-07-28T16:56:30Z</time>
      </trkpt>
      <trkpt lat="46.46181" lon="10.07782">
        <ele>2072.74</ele>
        <time>2012-07-28T16:56:38Z</time>
      </trkpt>
      <trkpt lat="46.46162" lon="10.07926">
        <ele>2063.61</ele>
        <time>2012-07-28T16:56:44Z</time>
      </trkpt>
      <trkpt lat="46.46232" lon="10.08139">
        <ele>2059.28</ele>
        <time>2012-07-28T16:56:53Z</time>
      </trkpt>
      <trkpt lat="46.46276" lon="10.08288">
        <ele>2047.75</ele>
        <time>2012-07-28T16:57:00Z</time>
      </trkpt>
      <trkpt lat="46.46246" lon="10.08507">
        <ele>2038.13</ele>
        <time>2012-07-28T16:57:10Z</time>
      </trkpt>
      <trkpt lat="46.46271" lon="10.086">
        <ele>2036.69</ele>
        <time>2012-07-28T16:57:15Z</time>
      </trkpt>
      <trkpt lat="46.46293" lon="10.08734">
        <ele>2029.48</ele>
        <time>2012-07-28T16:57:21Z</time>
      </trkpt>
      <trkpt lat="46.46327" lon="10.08813">
        <ele>2023.71</ele>
        <time>2012-07-28T16:57:25Z</time>
      </trkpt>
      <trkpt lat="46.46446" lon="10.0895">
        <ele>2019.87</ele>
        <time>2012-07-28T16:57:33Z</time>
      </trkpt>
      <trkpt lat="46.4658" lon="10.09057">
        <ele>2006.41</ele>
        <time>2012-07-28T16:57:41Z</time>
      </trkpt>
      <trkpt lat="46.46654" lon="10.09162">
        <ele>2002.56</ele>
        <time>2012-07-28T16:57:47Z</time>
      </trkpt>
      <trkpt lat="46.46795" lon="10.09271">
        <ele>1996.8</ele>
        <time>2012-07-28T16:57:55Z</time>
      </trkpt>
      <trkpt lat="46.46898" lon="10.0948">
        <ele>1988.14</ele>
        <time>2012-07-28T16:58:04Z</time>
      </trkpt>
      <trkpt lat="46.46927" lon="10.09511">
        <ele>1987.66</ele>
        <time>2012-07-28T16:58:06Z</time>
      </trkpt>
      <trkpt lat="46.46991" lon="10.09554">
        <ele>1984.3</ele>
        <time>2012-07-28T16:58:10Z</time>
      </trkpt>
      <trkpt lat="46.47242" lon="10.09518">
        <ele>1984.78</ele>
        <time>2012-07-28T16:58:23Z</time>
      </trkpt>
      <trkpt lat="46.47358" lon="10.09465">
        <ele>1978.53</ele>
        <time>2012-07-28T16:58:29Z</time>
      </trkpt>
      <trkpt lat="46.47417" lon="10.09476">
        <ele>1979.97</ele>
        <time>2012-07-28T16:58:32Z</time>
      </trkpt>
      <trkpt lat="46.4752" lon="10.09503">
        <ele>1975.65</ele>
        <time>2012-07-28T16:58:37Z</time>
      </trkpt>
      <trkpt lat="46.47596" lon="10.09536">
        <ele>1974.69</ele>
        <time>2012-07-28T16:58:41Z</time>
      </trkpt>
      <trkpt lat="46.47686" lon="10.09613">
        <ele>1970.36</ele>
        <time>2012-07-28T16:58:46Z</time>
      </trkpt>
      <trkpt lat="46.47751" lon="10.09665">
        <ele>1963.15</ele>
        <time>2012-07-28T16:58:50Z</time>
      </trkpt>
      <trkpt lat="46.47763" lon="10.09677">
        <ele>1961.23</ele>
        <time>2012-07-28T16:58:51Z</time>
      </trkpt>
      <trkpt lat="46.47782" lon="10.0971">
        <ele>1960.27</ele>
        <time>2012-07-28T16:58:53Z</time>
      </trkpt>
      <trkpt lat="46.47833" lon="10.09924">
        <ele>1954.02</ele>
        <time>2012-07-28T16:59:01Z</time>
      </trkpt>
      <trkpt lat="46.47891" lon="10.10137">
        <ele>1943.92</ele>
        <time>2012-07-28T16:59:11Z</time>
      </trkpt>
      <trkpt lat="46.4795" lon="10.10176">
        <ele>1946.33</ele>
        <time>2012-07-28T16:59:15Z</time>
      </trkpt>
      <trkpt lat="46.48019" lon="10.10215">
        <ele>1945.85</ele>
        <time>2012-07-28T16:59:19Z</time>
      </trkpt>
      <trkpt lat="46.48147" lon="10.1033">
        <ele>1942.48</ele>
        <time>2012-07-28T16:59:26Z</time>
      </trkpt>
      <trkpt lat="46.4896" lon="10.11362">
        <ele>1918.45</ele>
        <time>2012-07-28T17:00:15Z</time>
      </trkpt>
      <trkpt lat="46.49016" lon="10.11415">
        <ele>1918.45</ele>
        <time>2012-07-28T17:00:18Z</time>
      </trkpt>
      <trkpt lat="46.49277" lon="10.11501">
        <ele>1913.64</ele>
        <time>2012-07-28T17:00:29Z</time>
      </trkpt>
      <trkpt lat="46.49929" lon="10.11683">
        <ele>1895.86</ele>
        <time>2012-07-28T17:02:05Z</time>
      </trkpt>
      <trkpt lat="46.49905" lon="10.11688">
        <ele>1894.42</ele>
        <time>2012-07-28T17:06:41Z</time>
      </trkpt>
      <trkpt lat="46.50329" lon="10.11797">
        <ele>1893.93</ele>
        <time>2012-07-28T17:07:25Z</time>
      </trkpt>
      <trkpt lat="46.50698" lon="10.1194">
        <ele>1884.32</ele>
        <time>2012-07-28T17:07:53Z</time>
      </trkpt>
      <trkpt lat="46.51001" lon="10.121">
        <ele>1883.84</ele>
        <time>2012-07-28T17:08:17Z</time>
      </trkpt>
      <trkpt lat="46.51127" lon="10.1211">
        <ele>1884.32</ele>
        <time>2012-07-28T17:08:27Z</time>
      </trkpt>
      <trkpt lat="46.51346" lon="10.1207">
        <ele>1877.59</ele>
        <time>2012-07-28T17:08:47Z</time>
      </trkpt>
      <trkpt lat="46.51435" lon="10.12128">
        <ele>1880</ele>
        <time>2012-07-28T17:08:56Z</time>
      </trkpt>
      <trkpt lat="46.51536" lon="10.12163">
        <ele>1881.44</ele>
        <time>2012-07-28T17:09:09Z</time>
      </trkpt>
      <trkpt lat="46.51705" lon="10.12275">
        <ele>1878.07</ele>
        <time>2012-07-28T17:09:36Z</time>
      </trkpt>
      <trkpt lat="46.51804" lon="10.12314">
        <ele>1882.88</ele>
        <time>2012-07-28T17:09:48Z</time>
      </trkpt>
      <trkpt lat="46.51965" lon="10.12397">
        <ele>1880</ele>
        <time>2012-07-28T17:10:06Z</time>
      </trkpt>
      <trkpt lat="46.52259" lon="10.12628">
        <ele>1880.96</ele>
        <time>2012-07-28T17:10:52Z</time>
      </trkpt>
      <trkpt lat="46.52434" lon="10.12704">
        <ele>1886.24</ele>
        <time>2012-07-28T17:12:03Z</time>
      </trkpt>
      <trkpt lat="46.52488" lon="10.127">
        <ele>1885.28</ele>
        <time>2012-07-28T17:12:26Z</time>
      </trkpt>
      <trkpt lat="46.52499" lon="10.12716">
        <ele>1884.8</ele>
        <time>2012-07-28T17:12:30Z</time>
      </trkpt>
      <trkpt lat="46.52503" lon="10.12837">
        <ele>1877.11</ele>
        <time>2012-07-28T17:13:11Z</time>
      </trkpt>
      <trkpt lat="46.52566" lon="10.12824">
        <ele>1879.51</ele>
        <time>2012-07-28T17:13:17Z</time>
      </trkpt>
      <trkpt lat="46.52658" lon="10.12797">
        <ele>1877.11</ele>
        <time>2012-07-28T17:13:24Z</time>
      </trkpt>
      <trkpt lat="46.52751" lon="10.12801">
        <ele>1872.3</ele>
        <time>2012-07-28T17:13:32Z</time>
      </trkpt>
      <trkpt lat="46.52824" lon="10.12826">
        <ele>1871.34</ele>
        <time>2012-07-28T17:13:40Z</time>
      </trkpt>
      <trkpt lat="46.53106" lon="10.13009">
        <ele>1862.69</ele>
        <time>2012-07-28T17:14:08Z</time>
      </trkpt>
      <trkpt lat="46.53453" lon="10.13506">
        <ele>1841.54</ele>
        <time>2012-07-28T17:14:50Z</time>
      </trkpt>
      <trkpt lat="46.53493" lon="10.1355">
        <ele>1839.14</ele>
        <time>2012-07-28T17:14:55Z</time>
      </trkpt>
      <trkpt lat="46.54131" lon="10.13965">
        <ele>1832.41</ele>
        <time>2012-07-28T17:16:51Z</time>
      </trkpt>
      <trkpt lat="46.54157" lon="10.13975">
        <ele>1831.45</ele>
        <time>2012-07-28T17:16:56Z</time>
      </trkpt>
      <trkpt lat="46.53954" lon="10.13835">
        <ele>1832.89</ele>
        <time>2012-07-28T17:17:35Z</time>
      </trkpt>
      <trkpt lat="46.53948" lon="10.13817">
        <ele>1833.37</ele>
        <time>2012-07-28T17:17:41Z</time>
      </trkpt>
      <trkpt lat="46.53964" lon="10.13777">
        <ele>1833.37</ele>
        <time>2012-07-28T17:18:01Z</time>
      </trkpt>
      <trkpt lat="46.53965" lon="10.13776">
        <ele>1832.41</ele>
        <time>2012-07-28T17:18:16Z</time>
      </trkpt>
      <trkpt lat="46.52871" lon="10.12681">
        <ele>1870.86</ele>
        <time>2012-07-28T17:39:42Z</time>
      </trkpt>
      <trkpt lat="46.5287" lon="10.12686">
        <ele>1876.63</ele>
        <time>2012-07-28T17:41:39Z</time>
      </trkpt>
      <trkpt lat="46.52855" lon="10.12692">
        <ele>1876.15</ele>
        <time>2012-07-28T17:44:30Z</time>
      </trkpt>
      <trkpt lat="46.52558" lon="10.12689">
        <ele>1885.28</ele>
        <time>2012-07-28T17:50:26Z</time>
      </trkpt>
      <trkpt lat="46.52409" lon="10.12691">
        <ele>1885.76</ele>
        <time>2012-07-28T17:51:14Z</time>
      </trkpt>
      <trkpt lat="46.52324" lon="10.12664">
        <ele>1883.84</ele>
        <time>2012-07-28T17:51:35Z</time>
      </trkpt>
      <trkpt lat="46.52326" lon="10.12649">
        <ele>1883.84</ele>
        <time>2012-07-28T17:51:52Z</time>
      </trkpt>
      <trkpt lat="46.52325" lon="10.12648">
        <ele>1882.88</ele>
        <time>2012-07-28T17:53:35Z</time>
      </trkpt>
      <trkpt lat="46.52311" lon="10.1268">
        <ele>1880.96</ele>
        <time>2012-07-28T17:57:34Z</time>
      </trkpt>
    </trkseg>
  </trk>
</gpx>